<?xml version="1.0" encoding="UTF-8" standalone="no" ?>
<gpx xmlns="http://www.topografix.com/GPX/1/1" xmlns:xsi="http://www.w3.org/2001/XMLSchema-instance" xsi:schemaLocation="http://www.topografix.com/GPX/1/1 http://www.topografix.com/GPX/1/1/gpx.xsd" version="1.1" creator="VisuGPX - https://www.visugpx.com">
  <metadata>
    <name>critérium blanc : Rando VTT </name>
    <desc><![CDATA[critérium blanc du 28/08/2010
Rando VTT avec le group des petits]]></desc>
  </metadata>
  <trk>
    <name><![CDATA[ADi2010/08/28_13:34]]></name>
    <trkseg>
      <trkpt lat="48.87304" lon="7.36357">
        <ele>117.565979</ele>
        <time>2010-08-28T11:34:34Z</time>
      </trkpt>
      <trkpt lat="48.87284" lon="7.36356">
        <ele>157.647583</ele>
        <time>2010-08-28T11:34:35Z</time>
      </trkpt>
      <trkpt lat="48.87281" lon="7.36364">
        <ele>170.381958</ele>
        <time>2010-08-28T11:34:35Z</time>
      </trkpt>
      <trkpt lat="48.87286" lon="7.36372">
        <ele>168.276489</ele>
        <time>2010-08-28T11:34:35Z</time>
      </trkpt>
      <trkpt lat="48.87289" lon="7.36377">
        <ele>168.182739</ele>
        <time>2010-08-28T11:34:35Z</time>
      </trkpt>
      <trkpt lat="48.87294" lon="7.36381">
        <ele>163.854614</ele>
        <time>2010-08-28T11:34:35Z</time>
      </trkpt>
      <trkpt lat="48.87299" lon="7.36383">
        <ele>156.819458</ele>
        <time>2010-08-28T11:34:36Z</time>
      </trkpt>
      <trkpt lat="48.87296" lon="7.36382">
        <ele>164.217896</ele>
        <time>2010-08-28T11:34:36Z</time>
      </trkpt>
      <trkpt lat="48.87306" lon="7.36382">
        <ele>146.096802</ele>
        <time>2010-08-28T11:34:39Z</time>
      </trkpt>
      <trkpt lat="48.87313" lon="7.36383">
        <ele>142.112427</ele>
        <time>2010-08-28T11:34:41Z</time>
      </trkpt>
      <trkpt lat="48.87318" lon="7.36386">
        <ele>138.159302</ele>
        <time>2010-08-28T11:34:42Z</time>
      </trkpt>
      <trkpt lat="48.87313" lon="7.36385">
        <ele>158.510864</ele>
        <time>2010-08-28T11:34:49Z</time>
      </trkpt>
      <trkpt lat="48.87317" lon="7.3638">
        <ele>146.893677</ele>
        <time>2010-08-28T11:34:54Z</time>
      </trkpt>
      <trkpt lat="48.87312" lon="7.36375">
        <ele>139.245239</ele>
        <time>2010-08-28T11:34:55Z</time>
      </trkpt>
      <trkpt lat="48.8731" lon="7.36372">
        <ele>131.819458</ele>
        <time>2010-08-28T11:34:56Z</time>
      </trkpt>
      <trkpt lat="48.87216" lon="7.36328">
        <ele>220.003052</ele>
        <time>2010-08-28T11:34:58Z</time>
      </trkpt>
      <trkpt lat="48.87212" lon="7.36326">
        <ele>217.190552</ele>
        <time>2010-08-28T11:35:00Z</time>
      </trkpt>
      <trkpt lat="48.87213" lon="7.36324">
        <ele>212.143677</ele>
        <time>2010-08-28T11:35:05Z</time>
      </trkpt>
      <trkpt lat="48.87216" lon="7.36327">
        <ele>212.784302</ele>
        <time>2010-08-28T11:35:27Z</time>
      </trkpt>
      <trkpt lat="48.87221" lon="7.36346">
        <ele>238.588989</ele>
        <time>2010-08-28T11:40:24Z</time>
      </trkpt>
      <trkpt lat="48.8722" lon="7.36347">
        <ele>243.960083</ele>
        <time>2010-08-28T11:40:28Z</time>
      </trkpt>
      <trkpt lat="48.87221" lon="7.36353">
        <ele>245.690552</ele>
        <time>2010-08-28T11:40:30Z</time>
      </trkpt>
      <trkpt lat="48.87226" lon="7.36354">
        <ele>247.944458</ele>
        <time>2010-08-28T11:40:49Z</time>
      </trkpt>
      <trkpt lat="48.8723" lon="7.36359">
        <ele>246.530396</ele>
        <time>2010-08-28T11:40:56Z</time>
      </trkpt>
      <trkpt lat="48.87234" lon="7.36366">
        <ele>245.983521</ele>
        <time>2010-08-28T11:40:59Z</time>
      </trkpt>
      <trkpt lat="48.8724" lon="7.36372">
        <ele>245.253052</ele>
        <time>2010-08-28T11:41:02Z</time>
      </trkpt>
      <trkpt lat="48.87244" lon="7.36378">
        <ele>244.952271</ele>
        <time>2010-08-28T11:41:05Z</time>
      </trkpt>
      <trkpt lat="48.87248" lon="7.36379">
        <ele>245.651489</ele>
        <time>2010-08-28T11:41:08Z</time>
      </trkpt>
      <trkpt lat="48.87254" lon="7.36378">
        <ele>246.358521</ele>
        <time>2010-08-28T11:41:10Z</time>
      </trkpt>
      <trkpt lat="48.87258" lon="7.36373">
        <ele>245.592896</ele>
        <time>2010-08-28T11:41:12Z</time>
      </trkpt>
      <trkpt lat="48.87262" lon="7.36365">
        <ele>244.995239</ele>
        <time>2010-08-28T11:41:14Z</time>
      </trkpt>
      <trkpt lat="48.87267" lon="7.36357">
        <ele>244.510864</ele>
        <time>2010-08-28T11:41:16Z</time>
      </trkpt>
      <trkpt lat="48.87273" lon="7.36347">
        <ele>243.717896</ele>
        <time>2010-08-28T11:41:18Z</time>
      </trkpt>
      <trkpt lat="48.87276" lon="7.3634">
        <ele>243.237427</ele>
        <time>2010-08-28T11:41:19Z</time>
      </trkpt>
      <trkpt lat="48.8728" lon="7.36334">
        <ele>242.745239</ele>
        <time>2010-08-28T11:41:20Z</time>
      </trkpt>
      <trkpt lat="48.87283" lon="7.36328">
        <ele>242.292114</ele>
        <time>2010-08-28T11:41:21Z</time>
      </trkpt>
      <trkpt lat="48.87287" lon="7.36321">
        <ele>241.245239</ele>
        <time>2010-08-28T11:41:22Z</time>
      </trkpt>
      <trkpt lat="48.87291" lon="7.36314">
        <ele>240.444458</ele>
        <time>2010-08-28T11:41:23Z</time>
      </trkpt>
      <trkpt lat="48.87294" lon="7.36306">
        <ele>239.499146</ele>
        <time>2010-08-28T11:41:24Z</time>
      </trkpt>
      <trkpt lat="48.87299" lon="7.36298">
        <ele>238.967896</ele>
        <time>2010-08-28T11:41:25Z</time>
      </trkpt>
      <trkpt lat="48.87304" lon="7.3629">
        <ele>238.803833</ele>
        <time>2010-08-28T11:41:26Z</time>
      </trkpt>
      <trkpt lat="48.87307" lon="7.36283">
        <ele>238.428833</ele>
        <time>2010-08-28T11:41:27Z</time>
      </trkpt>
      <trkpt lat="48.87313" lon="7.36275">
        <ele>237.940552</ele>
        <time>2010-08-28T11:41:29Z</time>
      </trkpt>
      <trkpt lat="48.8732" lon="7.36272">
        <ele>238.436646</ele>
        <time>2010-08-28T11:41:31Z</time>
      </trkpt>
      <trkpt lat="48.87325" lon="7.36277">
        <ele>238.838989</ele>
        <time>2010-08-28T11:41:33Z</time>
      </trkpt>
      <trkpt lat="48.87326" lon="7.36287">
        <ele>238.850708</ele>
        <time>2010-08-28T11:41:35Z</time>
      </trkpt>
      <trkpt lat="48.87328" lon="7.36298">
        <ele>238.596802</ele>
        <time>2010-08-28T11:41:37Z</time>
      </trkpt>
      <trkpt lat="48.8733" lon="7.36308">
        <ele>238.874146</ele>
        <time>2010-08-28T11:41:39Z</time>
      </trkpt>
      <trkpt lat="48.87331" lon="7.36318">
        <ele>239.182739</ele>
        <time>2010-08-28T11:41:41Z</time>
      </trkpt>
      <trkpt lat="48.87334" lon="7.36329">
        <ele>240.198364</ele>
        <time>2010-08-28T11:41:43Z</time>
      </trkpt>
      <trkpt lat="48.87336" lon="7.3634">
        <ele>240.729614</ele>
        <time>2010-08-28T11:41:45Z</time>
      </trkpt>
      <trkpt lat="48.87338" lon="7.36349">
        <ele>240.620239</ele>
        <time>2010-08-28T11:41:47Z</time>
      </trkpt>
      <trkpt lat="48.8734" lon="7.36356">
        <ele>240.596802</ele>
        <time>2010-08-28T11:41:49Z</time>
      </trkpt>
      <trkpt lat="48.87343" lon="7.36362">
        <ele>240.788208</ele>
        <time>2010-08-28T11:41:51Z</time>
      </trkpt>
      <trkpt lat="48.8735" lon="7.36363">
        <ele>239.909302</ele>
        <time>2010-08-28T11:41:54Z</time>
      </trkpt>
      <trkpt lat="48.87357" lon="7.36362">
        <ele>238.932739</ele>
        <time>2010-08-28T11:41:56Z</time>
      </trkpt>
      <trkpt lat="48.87365" lon="7.3636">
        <ele>238.182739</ele>
        <time>2010-08-28T11:41:58Z</time>
      </trkpt>
      <trkpt lat="48.8737" lon="7.3636">
        <ele>237.698364</ele>
        <time>2010-08-28T11:41:59Z</time>
      </trkpt>
      <trkpt lat="48.87376" lon="7.36359">
        <ele>237.112427</ele>
        <time>2010-08-28T11:42:00Z</time>
      </trkpt>
      <trkpt lat="48.87381" lon="7.36358">
        <ele>236.393677</ele>
        <time>2010-08-28T11:42:01Z</time>
      </trkpt>
      <trkpt lat="48.87387" lon="7.36358">
        <ele>235.385864</ele>
        <time>2010-08-28T11:42:02Z</time>
      </trkpt>
      <trkpt lat="48.87393" lon="7.36357">
        <ele>234.663208</ele>
        <time>2010-08-28T11:42:03Z</time>
      </trkpt>
      <trkpt lat="48.87399" lon="7.36356">
        <ele>233.995239</ele>
        <time>2010-08-28T11:42:04Z</time>
      </trkpt>
      <trkpt lat="48.87404" lon="7.36356">
        <ele>233.733521</ele>
        <time>2010-08-28T11:42:05Z</time>
      </trkpt>
      <trkpt lat="48.87408" lon="7.36355">
        <ele>233.546021</ele>
        <time>2010-08-28T11:42:06Z</time>
      </trkpt>
      <trkpt lat="48.87417" lon="7.36355">
        <ele>233.003052</ele>
        <time>2010-08-28T11:42:08Z</time>
      </trkpt>
      <trkpt lat="48.87422" lon="7.36354">
        <ele>232.522583</ele>
        <time>2010-08-28T11:42:09Z</time>
      </trkpt>
      <trkpt lat="48.87427" lon="7.36354">
        <ele>231.917114</ele>
        <time>2010-08-28T11:42:10Z</time>
      </trkpt>
      <trkpt lat="48.87432" lon="7.36353">
        <ele>231.639771</ele>
        <time>2010-08-28T11:42:11Z</time>
      </trkpt>
      <trkpt lat="48.87437" lon="7.36353">
        <ele>230.999146</ele>
        <time>2010-08-28T11:42:12Z</time>
      </trkpt>
      <trkpt lat="48.87443" lon="7.36352">
        <ele>230.674927</ele>
        <time>2010-08-28T11:42:13Z</time>
      </trkpt>
      <trkpt lat="48.87449" lon="7.36352">
        <ele>230.436646</ele>
        <time>2010-08-28T11:42:14Z</time>
      </trkpt>
      <trkpt lat="48.87454" lon="7.36351">
        <ele>230.010864</ele>
        <time>2010-08-28T11:42:15Z</time>
      </trkpt>
      <trkpt lat="48.8746" lon="7.3635">
        <ele>229.760864</ele>
        <time>2010-08-28T11:42:16Z</time>
      </trkpt>
      <trkpt lat="48.87465" lon="7.3635">
        <ele>229.374146</ele>
        <time>2010-08-28T11:42:17Z</time>
      </trkpt>
      <trkpt lat="48.8747" lon="7.36351">
        <ele>228.967896</ele>
        <time>2010-08-28T11:42:18Z</time>
      </trkpt>
      <trkpt lat="48.87474" lon="7.36353">
        <ele>228.483521</ele>
        <time>2010-08-28T11:42:19Z</time>
      </trkpt>
      <trkpt lat="48.87479" lon="7.36356">
        <ele>227.932739</ele>
        <time>2010-08-28T11:42:20Z</time>
      </trkpt>
      <trkpt lat="48.87484" lon="7.3636">
        <ele>227.682739</ele>
        <time>2010-08-28T11:42:21Z</time>
      </trkpt>
      <trkpt lat="48.87486" lon="7.36366">
        <ele>227.452271</ele>
        <time>2010-08-28T11:42:22Z</time>
      </trkpt>
      <trkpt lat="48.87489" lon="7.36378">
        <ele>226.971802</ele>
        <time>2010-08-28T11:42:24Z</time>
      </trkpt>
      <trkpt lat="48.87489" lon="7.36391">
        <ele>226.932739</ele>
        <time>2010-08-28T11:42:26Z</time>
      </trkpt>
      <trkpt lat="48.87489" lon="7.36403">
        <ele>226.713989</ele>
        <time>2010-08-28T11:42:28Z</time>
      </trkpt>
      <trkpt lat="48.87489" lon="7.36417">
        <ele>226.713989</ele>
        <time>2010-08-28T11:42:30Z</time>
      </trkpt>
      <trkpt lat="48.8749" lon="7.36429">
        <ele>226.491333</ele>
        <time>2010-08-28T11:42:32Z</time>
      </trkpt>
      <trkpt lat="48.8749" lon="7.36442">
        <ele>226.081177</ele>
        <time>2010-08-28T11:42:34Z</time>
      </trkpt>
      <trkpt lat="48.87491" lon="7.36454">
        <ele>225.569458</ele>
        <time>2010-08-28T11:42:36Z</time>
      </trkpt>
      <trkpt lat="48.87489" lon="7.36465">
        <ele>225.510864</ele>
        <time>2010-08-28T11:42:38Z</time>
      </trkpt>
      <trkpt lat="48.87489" lon="7.36475">
        <ele>225.596802</ele>
        <time>2010-08-28T11:42:40Z</time>
      </trkpt>
      <trkpt lat="48.87489" lon="7.36487">
        <ele>225.694458</ele>
        <time>2010-08-28T11:42:42Z</time>
      </trkpt>
      <trkpt lat="48.87488" lon="7.36497">
        <ele>225.460083</ele>
        <time>2010-08-28T11:42:44Z</time>
      </trkpt>
      <trkpt lat="48.87488" lon="7.36508">
        <ele>225.631958</ele>
        <time>2010-08-28T11:42:46Z</time>
      </trkpt>
      <trkpt lat="48.87489" lon="7.36515">
        <ele>225.753052</ele>
        <time>2010-08-28T11:42:47Z</time>
      </trkpt>
      <trkpt lat="48.87489" lon="7.36529">
        <ele>226.417114</ele>
        <time>2010-08-28T11:42:49Z</time>
      </trkpt>
      <trkpt lat="48.8749" lon="7.36537">
        <ele>224.764771</ele>
        <time>2010-08-28T11:42:50Z</time>
      </trkpt>
      <trkpt lat="48.87493" lon="7.36553">
        <ele>223.807739</ele>
        <time>2010-08-28T11:42:52Z</time>
      </trkpt>
      <trkpt lat="48.87495" lon="7.36562">
        <ele>223.475708</ele>
        <time>2010-08-28T11:42:53Z</time>
      </trkpt>
      <trkpt lat="48.87498" lon="7.36567">
        <ele>223.631958</ele>
        <time>2010-08-28T11:42:54Z</time>
      </trkpt>
      <trkpt lat="48.87503" lon="7.36571">
        <ele>224.389771</ele>
        <time>2010-08-28T11:42:55Z</time>
      </trkpt>
      <trkpt lat="48.8751" lon="7.36574">
        <ele>224.596802</ele>
        <time>2010-08-28T11:42:57Z</time>
      </trkpt>
      <trkpt lat="48.87516" lon="7.36574">
        <ele>225.522583</ele>
        <time>2010-08-28T11:42:58Z</time>
      </trkpt>
      <trkpt lat="48.87525" lon="7.36573">
        <ele>226.342896</ele>
        <time>2010-08-28T11:43:00Z</time>
      </trkpt>
      <trkpt lat="48.8753" lon="7.36573">
        <ele>226.139771</ele>
        <time>2010-08-28T11:43:01Z</time>
      </trkpt>
      <trkpt lat="48.87534" lon="7.36575">
        <ele>226.323364</ele>
        <time>2010-08-28T11:43:02Z</time>
      </trkpt>
      <trkpt lat="48.87542" lon="7.36582">
        <ele>227.003052</ele>
        <time>2010-08-28T11:43:04Z</time>
      </trkpt>
      <trkpt lat="48.87545" lon="7.36593">
        <ele>227.299927</ele>
        <time>2010-08-28T11:43:06Z</time>
      </trkpt>
      <trkpt lat="48.87548" lon="7.36604">
        <ele>227.296021</ele>
        <time>2010-08-28T11:43:08Z</time>
      </trkpt>
      <trkpt lat="48.87551" lon="7.36615">
        <ele>227.971802</ele>
        <time>2010-08-28T11:43:10Z</time>
      </trkpt>
      <trkpt lat="48.87553" lon="7.36623">
        <ele>228.838989</ele>
        <time>2010-08-28T11:43:12Z</time>
      </trkpt>
      <trkpt lat="48.87556" lon="7.36631">
        <ele>230.022583</ele>
        <time>2010-08-28T11:43:14Z</time>
      </trkpt>
      <trkpt lat="48.87558" lon="7.36637">
        <ele>230.413208</ele>
        <time>2010-08-28T11:43:16Z</time>
      </trkpt>
      <trkpt lat="48.87561" lon="7.36643">
        <ele>231.213989</ele>
        <time>2010-08-28T11:43:19Z</time>
      </trkpt>
      <trkpt lat="48.87566" lon="7.36642">
        <ele>232.526489</ele>
        <time>2010-08-28T11:43:24Z</time>
      </trkpt>
      <trkpt lat="48.87571" lon="7.3664">
        <ele>234.374146</ele>
        <time>2010-08-28T11:43:29Z</time>
      </trkpt>
      <trkpt lat="48.87576" lon="7.36636">
        <ele>234.452271</ele>
        <time>2010-08-28T11:43:36Z</time>
      </trkpt>
      <trkpt lat="48.8758" lon="7.36632">
        <ele>235.276489</ele>
        <time>2010-08-28T11:43:40Z</time>
      </trkpt>
      <trkpt lat="48.87585" lon="7.36631">
        <ele>235.987427</ele>
        <time>2010-08-28T11:43:44Z</time>
      </trkpt>
      <trkpt lat="48.87584" lon="7.36638">
        <ele>236.233521</ele>
        <time>2010-08-28T11:43:48Z</time>
      </trkpt>
      <trkpt lat="48.87583" lon="7.36646">
        <ele>236.471802</ele>
        <time>2010-08-28T11:43:53Z</time>
      </trkpt>
      <trkpt lat="48.87581" lon="7.36654">
        <ele>236.342896</ele>
        <time>2010-08-28T11:43:57Z</time>
      </trkpt>
      <trkpt lat="48.87581" lon="7.36663">
        <ele>236.460083</ele>
        <time>2010-08-28T11:44:00Z</time>
      </trkpt>
      <trkpt lat="48.87581" lon="7.3667">
        <ele>236.780396</ele>
        <time>2010-08-28T11:44:02Z</time>
      </trkpt>
      <trkpt lat="48.87581" lon="7.3668">
        <ele>236.936646</ele>
        <time>2010-08-28T11:44:05Z</time>
      </trkpt>
      <trkpt lat="48.87581" lon="7.36688">
        <ele>237.081177</ele>
        <time>2010-08-28T11:44:07Z</time>
      </trkpt>
      <trkpt lat="48.87581" lon="7.36696">
        <ele>236.827271</ele>
        <time>2010-08-28T11:44:09Z</time>
      </trkpt>
      <trkpt lat="48.87582" lon="7.36705">
        <ele>236.967896</ele>
        <time>2010-08-28T11:44:11Z</time>
      </trkpt>
      <trkpt lat="48.87582" lon="7.36714">
        <ele>236.963989</ele>
        <time>2010-08-28T11:44:13Z</time>
      </trkpt>
      <trkpt lat="48.87583" lon="7.36723">
        <ele>237.085083</ele>
        <time>2010-08-28T11:44:15Z</time>
      </trkpt>
      <trkpt lat="48.87583" lon="7.36733">
        <ele>236.753052</ele>
        <time>2010-08-28T11:44:17Z</time>
      </trkpt>
      <trkpt lat="48.87584" lon="7.36742">
        <ele>236.963989</ele>
        <time>2010-08-28T11:44:19Z</time>
      </trkpt>
      <trkpt lat="48.87585" lon="7.36752">
        <ele>236.878052</ele>
        <time>2010-08-28T11:44:21Z</time>
      </trkpt>
      <trkpt lat="48.87587" lon="7.36761">
        <ele>237.061646</ele>
        <time>2010-08-28T11:44:23Z</time>
      </trkpt>
      <trkpt lat="48.87588" lon="7.36772">
        <ele>236.862427</ele>
        <time>2010-08-28T11:44:25Z</time>
      </trkpt>
      <trkpt lat="48.87589" lon="7.36783">
        <ele>237.225708</ele>
        <time>2010-08-28T11:44:27Z</time>
      </trkpt>
      <trkpt lat="48.87591" lon="7.36794">
        <ele>237.792114</ele>
        <time>2010-08-28T11:44:29Z</time>
      </trkpt>
      <trkpt lat="48.87593" lon="7.36805">
        <ele>238.112427</ele>
        <time>2010-08-28T11:44:31Z</time>
      </trkpt>
      <trkpt lat="48.87595" lon="7.36815">
        <ele>238.928833</ele>
        <time>2010-08-28T11:44:33Z</time>
      </trkpt>
      <trkpt lat="48.87599" lon="7.36822">
        <ele>239.815552</ele>
        <time>2010-08-28T11:44:35Z</time>
      </trkpt>
      <trkpt lat="48.87602" lon="7.36829">
        <ele>240.881958</ele>
        <time>2010-08-28T11:44:37Z</time>
      </trkpt>
      <trkpt lat="48.87606" lon="7.36836">
        <ele>241.315552</ele>
        <time>2010-08-28T11:44:39Z</time>
      </trkpt>
      <trkpt lat="48.8761" lon="7.36841">
        <ele>241.639771</ele>
        <time>2010-08-28T11:44:41Z</time>
      </trkpt>
      <trkpt lat="48.87614" lon="7.36847">
        <ele>242.350708</ele>
        <time>2010-08-28T11:44:43Z</time>
      </trkpt>
      <trkpt lat="48.87618" lon="7.36853">
        <ele>241.971802</ele>
        <time>2010-08-28T11:44:45Z</time>
      </trkpt>
      <trkpt lat="48.87624" lon="7.36861">
        <ele>242.264771</ele>
        <time>2010-08-28T11:44:47Z</time>
      </trkpt>
      <trkpt lat="48.87629" lon="7.3687">
        <ele>243.018677</ele>
        <time>2010-08-28T11:44:49Z</time>
      </trkpt>
      <trkpt lat="48.87635" lon="7.36878">
        <ele>243.131958</ele>
        <time>2010-08-28T11:44:51Z</time>
      </trkpt>
      <trkpt lat="48.8764" lon="7.36888">
        <ele>243.534302</ele>
        <time>2010-08-28T11:44:53Z</time>
      </trkpt>
      <trkpt lat="48.87646" lon="7.36898">
        <ele>243.924927</ele>
        <time>2010-08-28T11:44:55Z</time>
      </trkpt>
      <trkpt lat="48.8765" lon="7.36908">
        <ele>243.749146</ele>
        <time>2010-08-28T11:44:57Z</time>
      </trkpt>
      <trkpt lat="48.87654" lon="7.36919">
        <ele>243.706177</ele>
        <time>2010-08-28T11:44:59Z</time>
      </trkpt>
      <trkpt lat="48.87656" lon="7.36931">
        <ele>243.893677</ele>
        <time>2010-08-28T11:45:01Z</time>
      </trkpt>
      <trkpt lat="48.87659" lon="7.36942">
        <ele>244.022583</ele>
        <time>2010-08-28T11:45:03Z</time>
      </trkpt>
      <trkpt lat="48.87663" lon="7.36953">
        <ele>244.253052</ele>
        <time>2010-08-28T11:45:05Z</time>
      </trkpt>
      <trkpt lat="48.87665" lon="7.36966">
        <ele>244.612427</ele>
        <time>2010-08-28T11:45:07Z</time>
      </trkpt>
      <trkpt lat="48.87666" lon="7.3698">
        <ele>244.413208</ele>
        <time>2010-08-28T11:45:09Z</time>
      </trkpt>
      <trkpt lat="48.87666" lon="7.36993">
        <ele>244.346802</ele>
        <time>2010-08-28T11:45:11Z</time>
      </trkpt>
      <trkpt lat="48.87666" lon="7.37">
        <ele>244.131958</ele>
        <time>2010-08-28T11:45:12Z</time>
      </trkpt>
      <trkpt lat="48.87666" lon="7.37007">
        <ele>244.495239</ele>
        <time>2010-08-28T11:45:13Z</time>
      </trkpt>
      <trkpt lat="48.87666" lon="7.37014">
        <ele>244.288208</ele>
        <time>2010-08-28T11:45:14Z</time>
      </trkpt>
      <trkpt lat="48.87666" lon="7.37021">
        <ele>244.436646</ele>
        <time>2010-08-28T11:45:15Z</time>
      </trkpt>
      <trkpt lat="48.87666" lon="7.37029">
        <ele>244.823364</ele>
        <time>2010-08-28T11:45:16Z</time>
      </trkpt>
      <trkpt lat="48.87666" lon="7.37036">
        <ele>244.573364</ele>
        <time>2010-08-28T11:45:17Z</time>
      </trkpt>
      <trkpt lat="48.87668" lon="7.37048">
        <ele>245.280396</ele>
        <time>2010-08-28T11:45:19Z</time>
      </trkpt>
      <trkpt lat="48.8767" lon="7.3706">
        <ele>245.436646</ele>
        <time>2010-08-28T11:45:21Z</time>
      </trkpt>
      <trkpt lat="48.87671" lon="7.37068">
        <ele>245.276489</ele>
        <time>2010-08-28T11:45:23Z</time>
      </trkpt>
      <trkpt lat="48.87672" lon="7.37077">
        <ele>245.393677</ele>
        <time>2010-08-28T11:45:25Z</time>
      </trkpt>
      <trkpt lat="48.87673" lon="7.37084">
        <ele>245.913208</ele>
        <time>2010-08-28T11:45:27Z</time>
      </trkpt>
      <trkpt lat="48.87674" lon="7.37094">
        <ele>246.366333</ele>
        <time>2010-08-28T11:45:30Z</time>
      </trkpt>
      <trkpt lat="48.87674" lon="7.37102">
        <ele>246.549927</ele>
        <time>2010-08-28T11:45:33Z</time>
      </trkpt>
      <trkpt lat="48.87674" lon="7.3711">
        <ele>246.819458</ele>
        <time>2010-08-28T11:45:35Z</time>
      </trkpt>
      <trkpt lat="48.87675" lon="7.37118">
        <ele>247.014771</ele>
        <time>2010-08-28T11:45:37Z</time>
      </trkpt>
      <trkpt lat="48.87676" lon="7.37127">
        <ele>247.928833</ele>
        <time>2010-08-28T11:45:39Z</time>
      </trkpt>
      <trkpt lat="48.87676" lon="7.37138">
        <ele>248.077271</ele>
        <time>2010-08-28T11:45:41Z</time>
      </trkpt>
      <trkpt lat="48.87676" lon="7.3715">
        <ele>248.659302</ele>
        <time>2010-08-28T11:45:43Z</time>
      </trkpt>
      <trkpt lat="48.87676" lon="7.37162">
        <ele>249.003052</ele>
        <time>2010-08-28T11:45:45Z</time>
      </trkpt>
      <trkpt lat="48.87676" lon="7.37173">
        <ele>249.182739</ele>
        <time>2010-08-28T11:45:47Z</time>
      </trkpt>
      <trkpt lat="48.87676" lon="7.37183">
        <ele>249.448364</ele>
        <time>2010-08-28T11:45:49Z</time>
      </trkpt>
      <trkpt lat="48.87677" lon="7.37193">
        <ele>249.397583</ele>
        <time>2010-08-28T11:45:51Z</time>
      </trkpt>
      <trkpt lat="48.87677" lon="7.37203">
        <ele>249.671021</ele>
        <time>2010-08-28T11:45:53Z</time>
      </trkpt>
      <trkpt lat="48.87677" lon="7.37212">
        <ele>249.534302</ele>
        <time>2010-08-28T11:45:55Z</time>
      </trkpt>
      <trkpt lat="48.87679" lon="7.3722">
        <ele>249.768677</ele>
        <time>2010-08-28T11:45:57Z</time>
      </trkpt>
      <trkpt lat="48.8768" lon="7.3723">
        <ele>249.807739</ele>
        <time>2010-08-28T11:46:00Z</time>
      </trkpt>
      <trkpt lat="48.8768" lon="7.37237">
        <ele>249.581177</ele>
        <time>2010-08-28T11:46:02Z</time>
      </trkpt>
      <trkpt lat="48.87682" lon="7.37246">
        <ele>249.909302</ele>
        <time>2010-08-28T11:46:04Z</time>
      </trkpt>
      <trkpt lat="48.87683" lon="7.37255">
        <ele>249.940552</ele>
        <time>2010-08-28T11:46:06Z</time>
      </trkpt>
      <trkpt lat="48.87684" lon="7.37264">
        <ele>250.038208</ele>
        <time>2010-08-28T11:46:08Z</time>
      </trkpt>
      <trkpt lat="48.87685" lon="7.37273">
        <ele>250.030396</ele>
        <time>2010-08-28T11:46:10Z</time>
      </trkpt>
      <trkpt lat="48.87686" lon="7.3728">
        <ele>250.186646</ele>
        <time>2010-08-28T11:46:12Z</time>
      </trkpt>
      <trkpt lat="48.87687" lon="7.37288">
        <ele>250.260864</ele>
        <time>2010-08-28T11:46:14Z</time>
      </trkpt>
      <trkpt lat="48.87688" lon="7.37296">
        <ele>250.241333</ele>
        <time>2010-08-28T11:46:16Z</time>
      </trkpt>
      <trkpt lat="48.87689" lon="7.37304">
        <ele>250.581177</ele>
        <time>2010-08-28T11:46:18Z</time>
      </trkpt>
      <trkpt lat="48.8769" lon="7.37312">
        <ele>250.866333</ele>
        <time>2010-08-28T11:46:20Z</time>
      </trkpt>
      <trkpt lat="48.87692" lon="7.3732">
        <ele>250.803833</ele>
        <time>2010-08-28T11:46:22Z</time>
      </trkpt>
      <trkpt lat="48.87694" lon="7.37328">
        <ele>250.756958</ele>
        <time>2010-08-28T11:46:24Z</time>
      </trkpt>
      <trkpt lat="48.87696" lon="7.3734">
        <ele>251.538208</ele>
        <time>2010-08-28T11:46:26Z</time>
      </trkpt>
      <trkpt lat="48.87697" lon="7.37348">
        <ele>251.467896</ele>
        <time>2010-08-28T11:46:27Z</time>
      </trkpt>
      <trkpt lat="48.87698" lon="7.37356">
        <ele>251.647583</ele>
        <time>2010-08-28T11:46:28Z</time>
      </trkpt>
      <trkpt lat="48.877" lon="7.37363">
        <ele>252.026489</ele>
        <time>2010-08-28T11:46:29Z</time>
      </trkpt>
      <trkpt lat="48.877" lon="7.37371">
        <ele>253.100708</ele>
        <time>2010-08-28T11:46:30Z</time>
      </trkpt>
      <trkpt lat="48.87701" lon="7.37377">
        <ele>253.010864</ele>
        <time>2010-08-28T11:46:31Z</time>
      </trkpt>
      <trkpt lat="48.87703" lon="7.37388">
        <ele>252.831177</ele>
        <time>2010-08-28T11:46:33Z</time>
      </trkpt>
      <trkpt lat="48.87705" lon="7.37399">
        <ele>252.979614</ele>
        <time>2010-08-28T11:46:35Z</time>
      </trkpt>
      <trkpt lat="48.87708" lon="7.3741">
        <ele>252.799927</ele>
        <time>2010-08-28T11:46:37Z</time>
      </trkpt>
      <trkpt lat="48.87711" lon="7.37421">
        <ele>252.495239</ele>
        <time>2010-08-28T11:46:39Z</time>
      </trkpt>
      <trkpt lat="48.87713" lon="7.37431">
        <ele>252.760864</ele>
        <time>2010-08-28T11:46:41Z</time>
      </trkpt>
      <trkpt lat="48.87716" lon="7.37441">
        <ele>253.194458</ele>
        <time>2010-08-28T11:46:43Z</time>
      </trkpt>
      <trkpt lat="48.87719" lon="7.37451">
        <ele>253.506958</ele>
        <time>2010-08-28T11:46:45Z</time>
      </trkpt>
      <trkpt lat="48.87722" lon="7.37461">
        <ele>253.659302</ele>
        <time>2010-08-28T11:46:47Z</time>
      </trkpt>
      <trkpt lat="48.87725" lon="7.37471">
        <ele>253.932739</ele>
        <time>2010-08-28T11:46:49Z</time>
      </trkpt>
      <trkpt lat="48.87729" lon="7.3748">
        <ele>253.456177</ele>
        <time>2010-08-28T11:46:51Z</time>
      </trkpt>
      <trkpt lat="48.87732" lon="7.3749">
        <ele>253.381958</ele>
        <time>2010-08-28T11:46:53Z</time>
      </trkpt>
      <trkpt lat="48.87735" lon="7.37499">
        <ele>253.131958</ele>
        <time>2010-08-28T11:46:55Z</time>
      </trkpt>
      <trkpt lat="48.87738" lon="7.37509">
        <ele>253.225708</ele>
        <time>2010-08-28T11:46:57Z</time>
      </trkpt>
      <trkpt lat="48.87742" lon="7.37519">
        <ele>253.159302</ele>
        <time>2010-08-28T11:46:59Z</time>
      </trkpt>
      <trkpt lat="48.87745" lon="7.37528">
        <ele>252.967896</ele>
        <time>2010-08-28T11:47:01Z</time>
      </trkpt>
      <trkpt lat="48.87749" lon="7.37538">
        <ele>252.624146</ele>
        <time>2010-08-28T11:47:03Z</time>
      </trkpt>
      <trkpt lat="48.87753" lon="7.37548">
        <ele>252.311646</ele>
        <time>2010-08-28T11:47:05Z</time>
      </trkpt>
      <trkpt lat="48.87759" lon="7.37556">
        <ele>252.385864</ele>
        <time>2010-08-28T11:47:07Z</time>
      </trkpt>
      <trkpt lat="48.87766" lon="7.37562">
        <ele>252.217896</ele>
        <time>2010-08-28T11:47:09Z</time>
      </trkpt>
      <trkpt lat="48.87771" lon="7.37566">
        <ele>252.022583</ele>
        <time>2010-08-28T11:47:11Z</time>
      </trkpt>
      <trkpt lat="48.87775" lon="7.37571">
        <ele>251.030396</ele>
        <time>2010-08-28T11:47:13Z</time>
      </trkpt>
      <trkpt lat="48.8778" lon="7.37576">
        <ele>250.647583</ele>
        <time>2010-08-28T11:47:16Z</time>
      </trkpt>
      <trkpt lat="48.87777" lon="7.3758">
        <ele>248.315552</ele>
        <time>2010-08-28T11:47:24Z</time>
      </trkpt>
      <trkpt lat="48.87771" lon="7.3759">
        <ele>248.315552</ele>
        <time>2010-08-28T11:47:51Z</time>
      </trkpt>
      <trkpt lat="48.87767" lon="7.37594">
        <ele>249.815552</ele>
        <time>2010-08-28T11:48:13Z</time>
      </trkpt>
      <trkpt lat="48.87771" lon="7.37589">
        <ele>249.893677</ele>
        <time>2010-08-28T11:48:53Z</time>
      </trkpt>
      <trkpt lat="48.8777" lon="7.37596">
        <ele>250.917114</ele>
        <time>2010-08-28T11:50:00Z</time>
      </trkpt>
      <trkpt lat="48.87772" lon="7.37605">
        <ele>250.506958</ele>
        <time>2010-08-28T11:50:03Z</time>
      </trkpt>
      <trkpt lat="48.87774" lon="7.37612">
        <ele>250.823364</ele>
        <time>2010-08-28T11:50:05Z</time>
      </trkpt>
      <trkpt lat="48.87777" lon="7.37621">
        <ele>250.475708</ele>
        <time>2010-08-28T11:50:07Z</time>
      </trkpt>
      <trkpt lat="48.87779" lon="7.3763">
        <ele>250.514771</ele>
        <time>2010-08-28T11:50:09Z</time>
      </trkpt>
      <trkpt lat="48.87782" lon="7.37635">
        <ele>250.229614</ele>
        <time>2010-08-28T11:50:11Z</time>
      </trkpt>
      <trkpt lat="48.87787" lon="7.37644">
        <ele>250.171021</ele>
        <time>2010-08-28T11:50:14Z</time>
      </trkpt>
      <trkpt lat="48.8779" lon="7.37651">
        <ele>250.237427</ele>
        <time>2010-08-28T11:50:16Z</time>
      </trkpt>
      <trkpt lat="48.87793" lon="7.37658">
        <ele>249.995239</ele>
        <time>2010-08-28T11:50:18Z</time>
      </trkpt>
      <trkpt lat="48.87796" lon="7.37665">
        <ele>249.546021</ele>
        <time>2010-08-28T11:50:20Z</time>
      </trkpt>
      <trkpt lat="48.878" lon="7.37672">
        <ele>248.690552</ele>
        <time>2010-08-28T11:50:22Z</time>
      </trkpt>
      <trkpt lat="48.87803" lon="7.37678">
        <ele>247.448364</ele>
        <time>2010-08-28T11:50:24Z</time>
      </trkpt>
      <trkpt lat="48.87808" lon="7.37687">
        <ele>245.983521</ele>
        <time>2010-08-28T11:50:26Z</time>
      </trkpt>
      <trkpt lat="48.87814" lon="7.37697">
        <ele>244.506958</ele>
        <time>2010-08-28T11:50:28Z</time>
      </trkpt>
      <trkpt lat="48.87818" lon="7.37703">
        <ele>243.792114</ele>
        <time>2010-08-28T11:50:29Z</time>
      </trkpt>
      <trkpt lat="48.87822" lon="7.3771">
        <ele>243.284302</ele>
        <time>2010-08-28T11:50:30Z</time>
      </trkpt>
      <trkpt lat="48.87826" lon="7.37717">
        <ele>242.897583</ele>
        <time>2010-08-28T11:50:31Z</time>
      </trkpt>
      <trkpt lat="48.8783" lon="7.37724">
        <ele>242.542114</ele>
        <time>2010-08-28T11:50:32Z</time>
      </trkpt>
      <trkpt lat="48.87834" lon="7.37731">
        <ele>241.799927</ele>
        <time>2010-08-28T11:50:33Z</time>
      </trkpt>
      <trkpt lat="48.87838" lon="7.37738">
        <ele>241.264771</ele>
        <time>2010-08-28T11:50:34Z</time>
      </trkpt>
      <trkpt lat="48.87842" lon="7.37745">
        <ele>240.924927</ele>
        <time>2010-08-28T11:50:35Z</time>
      </trkpt>
      <trkpt lat="48.87845" lon="7.37751">
        <ele>240.596802</ele>
        <time>2010-08-28T11:50:36Z</time>
      </trkpt>
      <trkpt lat="48.8785" lon="7.3776">
        <ele>239.768677</ele>
        <time>2010-08-28T11:50:38Z</time>
      </trkpt>
      <trkpt lat="48.87853" lon="7.37766">
        <ele>239.370239</ele>
        <time>2010-08-28T11:50:39Z</time>
      </trkpt>
      <trkpt lat="48.87857" lon="7.37772">
        <ele>239.842896</ele>
        <time>2010-08-28T11:50:40Z</time>
      </trkpt>
      <trkpt lat="48.87863" lon="7.3778">
        <ele>238.381958</ele>
        <time>2010-08-28T11:50:42Z</time>
      </trkpt>
      <trkpt lat="48.87869" lon="7.37788">
        <ele>237.557739</ele>
        <time>2010-08-28T11:50:44Z</time>
      </trkpt>
      <trkpt lat="48.87872" lon="7.37792">
        <ele>236.378052</ele>
        <time>2010-08-28T11:50:45Z</time>
      </trkpt>
      <trkpt lat="48.87877" lon="7.37798">
        <ele>235.206177</ele>
        <time>2010-08-28T11:50:47Z</time>
      </trkpt>
      <trkpt lat="48.87879" lon="7.37805">
        <ele>234.171021</ele>
        <time>2010-08-28T11:50:49Z</time>
      </trkpt>
      <trkpt lat="48.87882" lon="7.37815">
        <ele>232.885864</ele>
        <time>2010-08-28T11:50:51Z</time>
      </trkpt>
      <trkpt lat="48.87886" lon="7.37828">
        <ele>232.381958</ele>
        <time>2010-08-28T11:50:53Z</time>
      </trkpt>
      <trkpt lat="48.87888" lon="7.37834">
        <ele>231.643677</ele>
        <time>2010-08-28T11:50:54Z</time>
      </trkpt>
      <trkpt lat="48.8789" lon="7.37843">
        <ele>232.655396</ele>
        <time>2010-08-28T11:50:55Z</time>
      </trkpt>
      <trkpt lat="48.87891" lon="7.37851">
        <ele>233.178833</ele>
        <time>2010-08-28T11:50:56Z</time>
      </trkpt>
      <trkpt lat="48.8789" lon="7.37863">
        <ele>232.729614</ele>
        <time>2010-08-28T11:50:58Z</time>
      </trkpt>
      <trkpt lat="48.87891" lon="7.37875">
        <ele>232.393677</ele>
        <time>2010-08-28T11:51:00Z</time>
      </trkpt>
      <trkpt lat="48.87895" lon="7.37884">
        <ele>231.835083</ele>
        <time>2010-08-28T11:51:02Z</time>
      </trkpt>
      <trkpt lat="48.87898" lon="7.37892">
        <ele>230.960083</ele>
        <time>2010-08-28T11:51:04Z</time>
      </trkpt>
      <trkpt lat="48.87899" lon="7.37899">
        <ele>230.909302</ele>
        <time>2010-08-28T11:51:06Z</time>
      </trkpt>
      <trkpt lat="48.87902" lon="7.37907">
        <ele>232.463989</ele>
        <time>2010-08-28T11:51:08Z</time>
      </trkpt>
      <trkpt lat="48.87903" lon="7.37914">
        <ele>233.510864</ele>
        <time>2010-08-28T11:51:10Z</time>
      </trkpt>
      <trkpt lat="48.87904" lon="7.37921">
        <ele>234.874146</ele>
        <time>2010-08-28T11:51:28Z</time>
      </trkpt>
      <trkpt lat="48.87903" lon="7.37927">
        <ele>233.831177</ele>
        <time>2010-08-28T11:51:38Z</time>
      </trkpt>
      <trkpt lat="48.87903" lon="7.37936">
        <ele>234.335083</ele>
        <time>2010-08-28T11:51:43Z</time>
      </trkpt>
      <trkpt lat="48.87902" lon="7.37945">
        <ele>234.924927</ele>
        <time>2010-08-28T11:51:46Z</time>
      </trkpt>
      <trkpt lat="48.87903" lon="7.37955">
        <ele>235.424927</ele>
        <time>2010-08-28T11:51:49Z</time>
      </trkpt>
      <trkpt lat="48.87905" lon="7.37961">
        <ele>235.284302</ele>
        <time>2010-08-28T11:51:51Z</time>
      </trkpt>
      <trkpt lat="48.87906" lon="7.37968">
        <ele>234.971802</ele>
        <time>2010-08-28T11:51:53Z</time>
      </trkpt>
      <trkpt lat="48.87909" lon="7.37977">
        <ele>234.983521</ele>
        <time>2010-08-28T11:51:55Z</time>
      </trkpt>
      <trkpt lat="48.87912" lon="7.37986">
        <ele>235.792114</ele>
        <time>2010-08-28T11:51:57Z</time>
      </trkpt>
      <trkpt lat="48.87915" lon="7.37994">
        <ele>235.596802</ele>
        <time>2010-08-28T11:51:59Z</time>
      </trkpt>
      <trkpt lat="48.87916" lon="7.38004">
        <ele>236.370239</ele>
        <time>2010-08-28T11:52:02Z</time>
      </trkpt>
      <trkpt lat="48.87919" lon="7.38012">
        <ele>236.292114</ele>
        <time>2010-08-28T11:52:04Z</time>
      </trkpt>
      <trkpt lat="48.8792" lon="7.38019">
        <ele>236.963989</ele>
        <time>2010-08-28T11:52:06Z</time>
      </trkpt>
      <trkpt lat="48.87923" lon="7.38029">
        <ele>234.823364</ele>
        <time>2010-08-28T11:52:08Z</time>
      </trkpt>
      <trkpt lat="48.87925" lon="7.3804">
        <ele>232.440552</ele>
        <time>2010-08-28T11:52:10Z</time>
      </trkpt>
      <trkpt lat="48.87927" lon="7.38049">
        <ele>231.245239</ele>
        <time>2010-08-28T11:52:12Z</time>
      </trkpt>
      <trkpt lat="48.87929" lon="7.38059">
        <ele>230.585083</ele>
        <time>2010-08-28T11:52:14Z</time>
      </trkpt>
      <trkpt lat="48.87931" lon="7.38067">
        <ele>236.276489</ele>
        <time>2010-08-28T11:52:15Z</time>
      </trkpt>
      <trkpt lat="48.87934" lon="7.38075">
        <ele>236.569458</ele>
        <time>2010-08-28T11:52:17Z</time>
      </trkpt>
      <trkpt lat="48.87938" lon="7.38082">
        <ele>236.151489</ele>
        <time>2010-08-28T11:52:19Z</time>
      </trkpt>
      <trkpt lat="48.87942" lon="7.38089">
        <ele>235.053833</ele>
        <time>2010-08-28T11:52:21Z</time>
      </trkpt>
      <trkpt lat="48.87946" lon="7.38096">
        <ele>234.588989</ele>
        <time>2010-08-28T11:52:23Z</time>
      </trkpt>
      <trkpt lat="48.87951" lon="7.38102">
        <ele>232.440552</ele>
        <time>2010-08-28T11:52:25Z</time>
      </trkpt>
      <trkpt lat="48.87951" lon="7.38112">
        <ele>232.120239</ele>
        <time>2010-08-28T11:52:28Z</time>
      </trkpt>
      <trkpt lat="48.87952" lon="7.38119">
        <ele>231.944458</ele>
        <time>2010-08-28T11:52:30Z</time>
      </trkpt>
      <trkpt lat="48.87955" lon="7.38125">
        <ele>231.823364</ele>
        <time>2010-08-28T11:52:32Z</time>
      </trkpt>
      <trkpt lat="48.87958" lon="7.38132">
        <ele>231.553833</ele>
        <time>2010-08-28T11:52:34Z</time>
      </trkpt>
      <trkpt lat="48.8796" lon="7.3814">
        <ele>230.182739</ele>
        <time>2010-08-28T11:52:36Z</time>
      </trkpt>
      <trkpt lat="48.87962" lon="7.38148">
        <ele>230.010864</ele>
        <time>2010-08-28T11:52:38Z</time>
      </trkpt>
      <trkpt lat="48.87964" lon="7.38157">
        <ele>230.081177</ele>
        <time>2010-08-28T11:52:41Z</time>
      </trkpt>
      <trkpt lat="48.87964" lon="7.38168">
        <ele>229.526489</ele>
        <time>2010-08-28T11:52:44Z</time>
      </trkpt>
      <trkpt lat="48.87965" lon="7.38178">
        <ele>229.194458</ele>
        <time>2010-08-28T11:52:46Z</time>
      </trkpt>
      <trkpt lat="48.87967" lon="7.38188">
        <ele>227.561646</ele>
        <time>2010-08-28T11:52:48Z</time>
      </trkpt>
      <trkpt lat="48.87968" lon="7.38198">
        <ele>227.256958</ele>
        <time>2010-08-28T11:52:50Z</time>
      </trkpt>
      <trkpt lat="48.87971" lon="7.38206">
        <ele>225.706177</ele>
        <time>2010-08-28T11:52:52Z</time>
      </trkpt>
      <trkpt lat="48.87971" lon="7.38215">
        <ele>225.471802</ele>
        <time>2010-08-28T11:52:55Z</time>
      </trkpt>
      <trkpt lat="48.87971" lon="7.38224">
        <ele>226.213989</ele>
        <time>2010-08-28T11:52:57Z</time>
      </trkpt>
      <trkpt lat="48.87972" lon="7.38232">
        <ele>227.858521</ele>
        <time>2010-08-28T11:52:59Z</time>
      </trkpt>
      <trkpt lat="48.87975" lon="7.38241">
        <ele>227.299927</ele>
        <time>2010-08-28T11:53:01Z</time>
      </trkpt>
      <trkpt lat="48.87978" lon="7.38252">
        <ele>227.768677</ele>
        <time>2010-08-28T11:53:03Z</time>
      </trkpt>
      <trkpt lat="48.87982" lon="7.38261">
        <ele>226.838989</ele>
        <time>2010-08-28T11:53:05Z</time>
      </trkpt>
      <trkpt lat="48.87985" lon="7.3827">
        <ele>226.413208</ele>
        <time>2010-08-28T11:53:07Z</time>
      </trkpt>
      <trkpt lat="48.87988" lon="7.38276">
        <ele>225.909302</ele>
        <time>2010-08-28T11:53:08Z</time>
      </trkpt>
      <trkpt lat="48.87991" lon="7.38285">
        <ele>225.952271</ele>
        <time>2010-08-28T11:53:10Z</time>
      </trkpt>
      <trkpt lat="48.87996" lon="7.38293">
        <ele>224.522583</ele>
        <time>2010-08-28T11:53:12Z</time>
      </trkpt>
      <trkpt lat="48.88" lon="7.383">
        <ele>224.116333</ele>
        <time>2010-08-28T11:53:14Z</time>
      </trkpt>
      <trkpt lat="48.88002" lon="7.3831">
        <ele>223.999146</ele>
        <time>2010-08-28T11:53:16Z</time>
      </trkpt>
      <trkpt lat="48.88006" lon="7.38319">
        <ele>224.995239</ele>
        <time>2010-08-28T11:53:18Z</time>
      </trkpt>
      <trkpt lat="48.88009" lon="7.38328">
        <ele>224.217896</ele>
        <time>2010-08-28T11:53:20Z</time>
      </trkpt>
      <trkpt lat="48.88012" lon="7.38337">
        <ele>223.503052</ele>
        <time>2010-08-28T11:53:22Z</time>
      </trkpt>
      <trkpt lat="48.88015" lon="7.38346">
        <ele>223.487427</ele>
        <time>2010-08-28T11:53:24Z</time>
      </trkpt>
      <trkpt lat="48.88017" lon="7.38358">
        <ele>223.741333</ele>
        <time>2010-08-28T11:53:26Z</time>
      </trkpt>
      <trkpt lat="48.88019" lon="7.38365">
        <ele>224.003052</ele>
        <time>2010-08-28T11:53:27Z</time>
      </trkpt>
      <trkpt lat="48.88019" lon="7.38376">
        <ele>223.952271</ele>
        <time>2010-08-28T11:53:29Z</time>
      </trkpt>
      <trkpt lat="48.88024" lon="7.38388">
        <ele>222.471802</ele>
        <time>2010-08-28T11:53:31Z</time>
      </trkpt>
      <trkpt lat="48.88027" lon="7.38398">
        <ele>221.354614</ele>
        <time>2010-08-28T11:53:33Z</time>
      </trkpt>
      <trkpt lat="48.88029" lon="7.38408">
        <ele>222.069458</ele>
        <time>2010-08-28T11:53:35Z</time>
      </trkpt>
      <trkpt lat="48.88032" lon="7.38418">
        <ele>223.553833</ele>
        <time>2010-08-28T11:53:37Z</time>
      </trkpt>
      <trkpt lat="48.88035" lon="7.38427">
        <ele>223.706177</ele>
        <time>2010-08-28T11:53:39Z</time>
      </trkpt>
      <trkpt lat="48.88039" lon="7.38437">
        <ele>222.694458</ele>
        <time>2010-08-28T11:53:41Z</time>
      </trkpt>
      <trkpt lat="48.88042" lon="7.38447">
        <ele>222.639771</ele>
        <time>2010-08-28T11:53:43Z</time>
      </trkpt>
      <trkpt lat="48.88043" lon="7.38458">
        <ele>222.010864</ele>
        <time>2010-08-28T11:53:45Z</time>
      </trkpt>
      <trkpt lat="48.88043" lon="7.38469">
        <ele>221.967896</ele>
        <time>2010-08-28T11:53:47Z</time>
      </trkpt>
      <trkpt lat="48.88042" lon="7.38479">
        <ele>222.374146</ele>
        <time>2010-08-28T11:53:49Z</time>
      </trkpt>
      <trkpt lat="48.88043" lon="7.38489">
        <ele>222.706177</ele>
        <time>2010-08-28T11:53:51Z</time>
      </trkpt>
      <trkpt lat="48.88044" lon="7.38498">
        <ele>222.678833</ele>
        <time>2010-08-28T11:53:53Z</time>
      </trkpt>
      <trkpt lat="48.88044" lon="7.38506">
        <ele>222.905396</ele>
        <time>2010-08-28T11:53:55Z</time>
      </trkpt>
      <trkpt lat="48.88043" lon="7.38513">
        <ele>222.631958</ele>
        <time>2010-08-28T11:53:57Z</time>
      </trkpt>
      <trkpt lat="48.88043" lon="7.38522">
        <ele>222.178833</ele>
        <time>2010-08-28T11:53:59Z</time>
      </trkpt>
      <trkpt lat="48.88044" lon="7.3853">
        <ele>221.600708</ele>
        <time>2010-08-28T11:54:01Z</time>
      </trkpt>
      <trkpt lat="48.88044" lon="7.38539">
        <ele>222.049927</ele>
        <time>2010-08-28T11:54:03Z</time>
      </trkpt>
      <trkpt lat="48.88044" lon="7.38547">
        <ele>220.499146</ele>
        <time>2010-08-28T11:54:05Z</time>
      </trkpt>
      <trkpt lat="48.88044" lon="7.38557">
        <ele>220.612427</ele>
        <time>2010-08-28T11:54:07Z</time>
      </trkpt>
      <trkpt lat="48.88046" lon="7.3857">
        <ele>220.620239</ele>
        <time>2010-08-28T11:54:09Z</time>
      </trkpt>
      <trkpt lat="48.88047" lon="7.38581">
        <ele>220.616333</ele>
        <time>2010-08-28T11:54:11Z</time>
      </trkpt>
      <trkpt lat="48.88049" lon="7.38592">
        <ele>221.186646</ele>
        <time>2010-08-28T11:54:13Z</time>
      </trkpt>
      <trkpt lat="48.88051" lon="7.386">
        <ele>221.190552</ele>
        <time>2010-08-28T11:54:15Z</time>
      </trkpt>
      <trkpt lat="48.88052" lon="7.3861">
        <ele>221.885864</ele>
        <time>2010-08-28T11:54:17Z</time>
      </trkpt>
      <trkpt lat="48.88053" lon="7.38617">
        <ele>222.510864</ele>
        <time>2010-08-28T11:54:19Z</time>
      </trkpt>
      <trkpt lat="48.88054" lon="7.38626">
        <ele>221.991333</ele>
        <time>2010-08-28T11:54:21Z</time>
      </trkpt>
      <trkpt lat="48.88054" lon="7.38633">
        <ele>222.518677</ele>
        <time>2010-08-28T11:54:23Z</time>
      </trkpt>
      <trkpt lat="48.88054" lon="7.38641">
        <ele>223.096802</ele>
        <time>2010-08-28T11:54:25Z</time>
      </trkpt>
      <trkpt lat="48.88054" lon="7.38649">
        <ele>223.237427</ele>
        <time>2010-08-28T11:54:27Z</time>
      </trkpt>
      <trkpt lat="48.88055" lon="7.38657">
        <ele>223.549927</ele>
        <time>2010-08-28T11:54:29Z</time>
      </trkpt>
      <trkpt lat="48.88055" lon="7.38666">
        <ele>222.487427</ele>
        <time>2010-08-28T11:54:31Z</time>
      </trkpt>
      <trkpt lat="48.88055" lon="7.38679">
        <ele>222.026489</ele>
        <time>2010-08-28T11:54:33Z</time>
      </trkpt>
      <trkpt lat="48.88055" lon="7.38692">
        <ele>221.417114</ele>
        <time>2010-08-28T11:54:35Z</time>
      </trkpt>
      <trkpt lat="48.88054" lon="7.38698">
        <ele>220.885864</ele>
        <time>2010-08-28T11:54:36Z</time>
      </trkpt>
      <trkpt lat="48.88054" lon="7.38706">
        <ele>220.905396</ele>
        <time>2010-08-28T11:54:37Z</time>
      </trkpt>
      <trkpt lat="48.88053" lon="7.38712">
        <ele>221.042114</ele>
        <time>2010-08-28T11:54:38Z</time>
      </trkpt>
      <trkpt lat="48.88052" lon="7.38725">
        <ele>221.760864</ele>
        <time>2010-08-28T11:54:40Z</time>
      </trkpt>
      <trkpt lat="48.88052" lon="7.38735">
        <ele>220.909302</ele>
        <time>2010-08-28T11:54:42Z</time>
      </trkpt>
      <trkpt lat="48.88052" lon="7.38744">
        <ele>221.491333</ele>
        <time>2010-08-28T11:54:44Z</time>
      </trkpt>
      <trkpt lat="48.88051" lon="7.38753">
        <ele>221.171021</ele>
        <time>2010-08-28T11:54:46Z</time>
      </trkpt>
      <trkpt lat="48.88051" lon="7.38761">
        <ele>221.198364</ele>
        <time>2010-08-28T11:54:48Z</time>
      </trkpt>
      <trkpt lat="48.88051" lon="7.38771">
        <ele>221.124146</ele>
        <time>2010-08-28T11:54:50Z</time>
      </trkpt>
      <trkpt lat="48.88051" lon="7.38782">
        <ele>220.991333</ele>
        <time>2010-08-28T11:54:52Z</time>
      </trkpt>
      <trkpt lat="48.88051" lon="7.38794">
        <ele>220.784302</ele>
        <time>2010-08-28T11:54:54Z</time>
      </trkpt>
      <trkpt lat="48.88051" lon="7.38804">
        <ele>219.721802</ele>
        <time>2010-08-28T11:54:56Z</time>
      </trkpt>
      <trkpt lat="48.88051" lon="7.38814">
        <ele>219.495239</ele>
        <time>2010-08-28T11:54:58Z</time>
      </trkpt>
      <trkpt lat="48.88051" lon="7.38825">
        <ele>218.897583</ele>
        <time>2010-08-28T11:55:00Z</time>
      </trkpt>
      <trkpt lat="48.88051" lon="7.38834">
        <ele>218.760864</ele>
        <time>2010-08-28T11:55:02Z</time>
      </trkpt>
      <trkpt lat="48.88051" lon="7.38843">
        <ele>218.424927</ele>
        <time>2010-08-28T11:55:04Z</time>
      </trkpt>
      <trkpt lat="48.88054" lon="7.38854">
        <ele>218.092896</ele>
        <time>2010-08-28T11:55:06Z</time>
      </trkpt>
      <trkpt lat="48.88054" lon="7.38864">
        <ele>217.565552</ele>
        <time>2010-08-28T11:55:08Z</time>
      </trkpt>
      <trkpt lat="48.88054" lon="7.38872">
        <ele>217.674927</ele>
        <time>2010-08-28T11:55:10Z</time>
      </trkpt>
      <trkpt lat="48.88054" lon="7.38882">
        <ele>218.428833</ele>
        <time>2010-08-28T11:55:12Z</time>
      </trkpt>
      <trkpt lat="48.88049" lon="7.38887">
        <ele>220.436646</ele>
        <time>2010-08-28T11:55:14Z</time>
      </trkpt>
      <trkpt lat="48.88047" lon="7.38897">
        <ele>218.932739</ele>
        <time>2010-08-28T11:55:16Z</time>
      </trkpt>
      <trkpt lat="48.88045" lon="7.38906">
        <ele>218.046021</ele>
        <time>2010-08-28T11:55:18Z</time>
      </trkpt>
      <trkpt lat="48.88045" lon="7.38914">
        <ele>218.460083</ele>
        <time>2010-08-28T11:55:19Z</time>
      </trkpt>
      <trkpt lat="48.88043" lon="7.38925">
        <ele>218.139771</ele>
        <time>2010-08-28T11:55:21Z</time>
      </trkpt>
      <trkpt lat="48.88043" lon="7.38935">
        <ele>217.870239</ele>
        <time>2010-08-28T11:55:23Z</time>
      </trkpt>
      <trkpt lat="48.88044" lon="7.38944">
        <ele>218.299927</ele>
        <time>2010-08-28T11:55:25Z</time>
      </trkpt>
      <trkpt lat="48.88044" lon="7.38952">
        <ele>219.077271</ele>
        <time>2010-08-28T11:55:27Z</time>
      </trkpt>
      <trkpt lat="48.88044" lon="7.38962">
        <ele>221.956177</ele>
        <time>2010-08-28T11:55:30Z</time>
      </trkpt>
      <trkpt lat="48.88045" lon="7.38969">
        <ele>222.010864</ele>
        <time>2010-08-28T11:55:32Z</time>
      </trkpt>
      <trkpt lat="48.88047" lon="7.38978">
        <ele>222.397583</ele>
        <time>2010-08-28T11:55:35Z</time>
      </trkpt>
      <trkpt lat="48.88053" lon="7.38985">
        <ele>223.108521</ele>
        <time>2010-08-28T11:55:37Z</time>
      </trkpt>
      <trkpt lat="48.88059" lon="7.38992">
        <ele>220.573364</ele>
        <time>2010-08-28T11:55:39Z</time>
      </trkpt>
      <trkpt lat="48.88062" lon="7.38999">
        <ele>222.635864</ele>
        <time>2010-08-28T11:55:41Z</time>
      </trkpt>
      <trkpt lat="48.88063" lon="7.39007">
        <ele>223.151489</ele>
        <time>2010-08-28T11:55:43Z</time>
      </trkpt>
      <trkpt lat="48.88067" lon="7.39015">
        <ele>222.745239</ele>
        <time>2010-08-28T11:55:45Z</time>
      </trkpt>
      <trkpt lat="48.8807" lon="7.39023">
        <ele>222.663208</ele>
        <time>2010-08-28T11:55:47Z</time>
      </trkpt>
      <trkpt lat="48.88073" lon="7.39031">
        <ele>222.819458</ele>
        <time>2010-08-28T11:55:50Z</time>
      </trkpt>
      <trkpt lat="48.88075" lon="7.39037">
        <ele>223.577271</ele>
        <time>2010-08-28T11:55:52Z</time>
      </trkpt>
      <trkpt lat="48.88079" lon="7.39042">
        <ele>224.616333</ele>
        <time>2010-08-28T11:55:56Z</time>
      </trkpt>
      <trkpt lat="48.88083" lon="7.39044">
        <ele>225.596802</ele>
        <time>2010-08-28T11:56:00Z</time>
      </trkpt>
      <trkpt lat="48.88088" lon="7.39044">
        <ele>225.885864</ele>
        <time>2010-08-28T11:56:07Z</time>
      </trkpt>
      <trkpt lat="48.88096" lon="7.39044">
        <ele>225.655396</ele>
        <time>2010-08-28T11:56:10Z</time>
      </trkpt>
      <trkpt lat="48.88101" lon="7.39043">
        <ele>225.167114</ele>
        <time>2010-08-28T11:56:15Z</time>
      </trkpt>
      <trkpt lat="48.88107" lon="7.39045">
        <ele>224.838989</ele>
        <time>2010-08-28T11:56:18Z</time>
      </trkpt>
      <trkpt lat="48.88114" lon="7.39043">
        <ele>223.753052</ele>
        <time>2010-08-28T11:56:20Z</time>
      </trkpt>
      <trkpt lat="48.8812" lon="7.39041">
        <ele>221.987427</ele>
        <time>2010-08-28T11:56:22Z</time>
      </trkpt>
      <trkpt lat="48.88124" lon="7.39036">
        <ele>221.479614</ele>
        <time>2010-08-28T11:56:24Z</time>
      </trkpt>
      <trkpt lat="48.88128" lon="7.39031">
        <ele>220.667114</ele>
        <time>2010-08-28T11:56:26Z</time>
      </trkpt>
      <trkpt lat="48.88133" lon="7.39026">
        <ele>220.100708</ele>
        <time>2010-08-28T11:56:28Z</time>
      </trkpt>
      <trkpt lat="48.88136" lon="7.3902">
        <ele>217.983521</ele>
        <time>2010-08-28T11:56:31Z</time>
      </trkpt>
      <trkpt lat="48.88141" lon="7.39016">
        <ele>217.655396</ele>
        <time>2010-08-28T11:56:33Z</time>
      </trkpt>
      <trkpt lat="48.88145" lon="7.39012">
        <ele>217.100708</ele>
        <time>2010-08-28T11:56:35Z</time>
      </trkpt>
      <trkpt lat="48.88149" lon="7.39008">
        <ele>217.128052</ele>
        <time>2010-08-28T11:56:37Z</time>
      </trkpt>
      <trkpt lat="48.88154" lon="7.39003">
        <ele>215.924927</ele>
        <time>2010-08-28T11:56:40Z</time>
      </trkpt>
      <trkpt lat="48.88158" lon="7.38997">
        <ele>215.440552</ele>
        <time>2010-08-28T11:56:43Z</time>
      </trkpt>
      <trkpt lat="48.88162" lon="7.38994">
        <ele>214.756958</ele>
        <time>2010-08-28T11:56:45Z</time>
      </trkpt>
      <trkpt lat="48.88166" lon="7.38988">
        <ele>213.604614</ele>
        <time>2010-08-28T11:56:48Z</time>
      </trkpt>
      <trkpt lat="48.88171" lon="7.38985">
        <ele>213.440552</ele>
        <time>2010-08-28T11:56:50Z</time>
      </trkpt>
      <trkpt lat="48.88176" lon="7.3898">
        <ele>213.284302</ele>
        <time>2010-08-28T11:56:53Z</time>
      </trkpt>
      <trkpt lat="48.88182" lon="7.38975">
        <ele>213.268677</ele>
        <time>2010-08-28T11:56:56Z</time>
      </trkpt>
      <trkpt lat="48.88187" lon="7.38971">
        <ele>213.182739</ele>
        <time>2010-08-28T11:56:59Z</time>
      </trkpt>
      <trkpt lat="48.88191" lon="7.38968">
        <ele>212.811646</ele>
        <time>2010-08-28T11:57:01Z</time>
      </trkpt>
      <trkpt lat="48.88195" lon="7.38964">
        <ele>212.514771</ele>
        <time>2010-08-28T11:57:03Z</time>
      </trkpt>
      <trkpt lat="48.882" lon="7.38959">
        <ele>212.944458</ele>
        <time>2010-08-28T11:57:05Z</time>
      </trkpt>
      <trkpt lat="48.88206" lon="7.38955">
        <ele>212.921021</ele>
        <time>2010-08-28T11:57:08Z</time>
      </trkpt>
      <trkpt lat="48.8821" lon="7.38951">
        <ele>212.792114</ele>
        <time>2010-08-28T11:57:10Z</time>
      </trkpt>
      <trkpt lat="48.88216" lon="7.38949">
        <ele>213.292114</ele>
        <time>2010-08-28T11:57:12Z</time>
      </trkpt>
      <trkpt lat="48.88221" lon="7.38945">
        <ele>213.862427</ele>
        <time>2010-08-28T11:57:14Z</time>
      </trkpt>
      <trkpt lat="48.88226" lon="7.38941">
        <ele>214.190552</ele>
        <time>2010-08-28T11:57:16Z</time>
      </trkpt>
      <trkpt lat="48.88233" lon="7.38936">
        <ele>214.409302</ele>
        <time>2010-08-28T11:57:19Z</time>
      </trkpt>
      <trkpt lat="48.88239" lon="7.38931">
        <ele>213.217896</ele>
        <time>2010-08-28T11:57:22Z</time>
      </trkpt>
      <trkpt lat="48.88244" lon="7.38928">
        <ele>213.159302</ele>
        <time>2010-08-28T11:57:24Z</time>
      </trkpt>
      <trkpt lat="48.88249" lon="7.38925">
        <ele>213.616333</ele>
        <time>2010-08-28T11:57:26Z</time>
      </trkpt>
      <trkpt lat="48.88254" lon="7.38922">
        <ele>213.370239</ele>
        <time>2010-08-28T11:57:28Z</time>
      </trkpt>
      <trkpt lat="48.8826" lon="7.38919">
        <ele>212.811646</ele>
        <time>2010-08-28T11:57:30Z</time>
      </trkpt>
      <trkpt lat="48.88265" lon="7.38918">
        <ele>212.678833</ele>
        <time>2010-08-28T11:57:32Z</time>
      </trkpt>
      <trkpt lat="48.88269" lon="7.38916">
        <ele>212.983521</ele>
        <time>2010-08-28T11:57:34Z</time>
      </trkpt>
      <trkpt lat="48.88275" lon="7.38914">
        <ele>213.741333</ele>
        <time>2010-08-28T11:57:36Z</time>
      </trkpt>
      <trkpt lat="48.8828" lon="7.38913">
        <ele>214.292114</ele>
        <time>2010-08-28T11:57:37Z</time>
      </trkpt>
      <trkpt lat="48.88286" lon="7.38911">
        <ele>214.491333</ele>
        <time>2010-08-28T11:57:39Z</time>
      </trkpt>
      <trkpt lat="48.8829" lon="7.38909">
        <ele>214.815552</ele>
        <time>2010-08-28T11:57:41Z</time>
      </trkpt>
      <trkpt lat="48.88298" lon="7.38907">
        <ele>216.647583</ele>
        <time>2010-08-28T11:57:44Z</time>
      </trkpt>
      <trkpt lat="48.88303" lon="7.38905">
        <ele>217.960083</ele>
        <time>2010-08-28T11:57:47Z</time>
      </trkpt>
      <trkpt lat="48.88312" lon="7.38904">
        <ele>218.358521</ele>
        <time>2010-08-28T11:57:50Z</time>
      </trkpt>
      <trkpt lat="48.88317" lon="7.38902">
        <ele>217.506958</ele>
        <time>2010-08-28T11:57:52Z</time>
      </trkpt>
      <trkpt lat="48.88321" lon="7.389">
        <ele>216.842896</ele>
        <time>2010-08-28T11:57:54Z</time>
      </trkpt>
      <trkpt lat="48.88327" lon="7.38899">
        <ele>217.249146</ele>
        <time>2010-08-28T11:57:57Z</time>
      </trkpt>
      <trkpt lat="48.88332" lon="7.38898">
        <ele>216.870239</ele>
        <time>2010-08-28T11:57:59Z</time>
      </trkpt>
      <trkpt lat="48.88339" lon="7.38897">
        <ele>217.440552</ele>
        <time>2010-08-28T11:58:02Z</time>
      </trkpt>
      <trkpt lat="48.88345" lon="7.38898">
        <ele>218.174927</ele>
        <time>2010-08-28T11:58:04Z</time>
      </trkpt>
      <trkpt lat="48.8835" lon="7.38897">
        <ele>217.667114</ele>
        <time>2010-08-28T11:58:06Z</time>
      </trkpt>
      <trkpt lat="48.88353" lon="7.38892">
        <ele>216.229614</ele>
        <time>2010-08-28T11:58:09Z</time>
      </trkpt>
      <trkpt lat="48.8836" lon="7.38891">
        <ele>215.561646</ele>
        <time>2010-08-28T11:58:12Z</time>
      </trkpt>
      <trkpt lat="48.88365" lon="7.38892">
        <ele>214.999146</ele>
        <time>2010-08-28T11:58:14Z</time>
      </trkpt>
      <trkpt lat="48.88371" lon="7.38893">
        <ele>214.143677</ele>
        <time>2010-08-28T11:58:16Z</time>
      </trkpt>
      <trkpt lat="48.88376" lon="7.38893">
        <ele>213.737427</ele>
        <time>2010-08-28T11:58:18Z</time>
      </trkpt>
      <trkpt lat="48.88383" lon="7.38894">
        <ele>212.838989</ele>
        <time>2010-08-28T11:58:21Z</time>
      </trkpt>
      <trkpt lat="48.88389" lon="7.38896">
        <ele>212.467896</ele>
        <time>2010-08-28T11:58:24Z</time>
      </trkpt>
      <trkpt lat="48.88397" lon="7.38898">
        <ele>209.487427</ele>
        <time>2010-08-28T11:58:26Z</time>
      </trkpt>
      <trkpt lat="48.88403" lon="7.38901">
        <ele>208.737427</ele>
        <time>2010-08-28T11:58:28Z</time>
      </trkpt>
      <trkpt lat="48.88409" lon="7.38905">
        <ele>207.862427</ele>
        <time>2010-08-28T11:58:30Z</time>
      </trkpt>
      <trkpt lat="48.8842" lon="7.38908">
        <ele>207.487427</ele>
        <time>2010-08-28T11:58:32Z</time>
      </trkpt>
      <trkpt lat="48.88426" lon="7.38911">
        <ele>206.581177</ele>
        <time>2010-08-28T11:58:34Z</time>
      </trkpt>
      <trkpt lat="48.8843" lon="7.38916">
        <ele>207.460083</ele>
        <time>2010-08-28T11:58:37Z</time>
      </trkpt>
      <trkpt lat="48.88435" lon="7.38918">
        <ele>207.319458</ele>
        <time>2010-08-28T11:58:39Z</time>
      </trkpt>
      <trkpt lat="48.88439" lon="7.38923">
        <ele>207.053833</ele>
        <time>2010-08-28T11:58:42Z</time>
      </trkpt>
      <trkpt lat="48.88443" lon="7.38928">
        <ele>207.713989</ele>
        <time>2010-08-28T11:58:45Z</time>
      </trkpt>
      <trkpt lat="48.88449" lon="7.3893">
        <ele>207.624146</ele>
        <time>2010-08-28T11:58:47Z</time>
      </trkpt>
      <trkpt lat="48.88455" lon="7.38932">
        <ele>208.280396</ele>
        <time>2010-08-28T11:58:50Z</time>
      </trkpt>
      <trkpt lat="48.88459" lon="7.38934">
        <ele>207.944458</ele>
        <time>2010-08-28T11:58:52Z</time>
      </trkpt>
      <trkpt lat="48.88464" lon="7.38935">
        <ele>208.850708</ele>
        <time>2010-08-28T11:58:54Z</time>
      </trkpt>
      <trkpt lat="48.88469" lon="7.38935">
        <ele>209.202271</ele>
        <time>2010-08-28T11:58:56Z</time>
      </trkpt>
      <trkpt lat="48.88469" lon="7.38936">
        <ele>214.448364</ele>
        <time>2010-08-28T11:58:59Z</time>
      </trkpt>
      <trkpt lat="48.88472" lon="7.38934">
        <ele>217.835083</ele>
        <time>2010-08-28T11:59:02Z</time>
      </trkpt>
      <trkpt lat="48.88477" lon="7.38933">
        <ele>219.799927</ele>
        <time>2010-08-28T11:59:06Z</time>
      </trkpt>
      <trkpt lat="48.88483" lon="7.38931">
        <ele>220.737427</ele>
        <time>2010-08-28T11:59:08Z</time>
      </trkpt>
      <trkpt lat="48.88487" lon="7.38929">
        <ele>222.651489</ele>
        <time>2010-08-28T11:59:11Z</time>
      </trkpt>
      <trkpt lat="48.88493" lon="7.38927">
        <ele>224.737427</ele>
        <time>2010-08-28T11:59:14Z</time>
      </trkpt>
      <trkpt lat="48.88498" lon="7.38925">
        <ele>225.245239</ele>
        <time>2010-08-28T11:59:16Z</time>
      </trkpt>
      <trkpt lat="48.88503" lon="7.38922">
        <ele>225.503052</ele>
        <time>2010-08-28T11:59:18Z</time>
      </trkpt>
      <trkpt lat="48.88509" lon="7.3892">
        <ele>225.131958</ele>
        <time>2010-08-28T11:59:19Z</time>
      </trkpt>
      <trkpt lat="48.88515" lon="7.38918">
        <ele>224.999146</ele>
        <time>2010-08-28T11:59:20Z</time>
      </trkpt>
      <trkpt lat="48.88522" lon="7.38916">
        <ele>225.483521</ele>
        <time>2010-08-28T11:59:21Z</time>
      </trkpt>
      <trkpt lat="48.88527" lon="7.38915">
        <ele>225.792114</ele>
        <time>2010-08-28T11:59:22Z</time>
      </trkpt>
      <trkpt lat="48.88533" lon="7.38913">
        <ele>225.710083</ele>
        <time>2010-08-28T11:59:24Z</time>
      </trkpt>
      <trkpt lat="48.88538" lon="7.38911">
        <ele>225.417114</ele>
        <time>2010-08-28T11:59:25Z</time>
      </trkpt>
      <trkpt lat="48.88546" lon="7.38908">
        <ele>224.186646</ele>
        <time>2010-08-28T11:59:27Z</time>
      </trkpt>
      <trkpt lat="48.88553" lon="7.38906">
        <ele>224.131958</ele>
        <time>2010-08-28T11:59:29Z</time>
      </trkpt>
      <trkpt lat="48.88562" lon="7.38904">
        <ele>224.694458</ele>
        <time>2010-08-28T11:59:31Z</time>
      </trkpt>
      <trkpt lat="48.88567" lon="7.38902">
        <ele>225.249146</ele>
        <time>2010-08-28T11:59:32Z</time>
      </trkpt>
      <trkpt lat="48.88574" lon="7.38899">
        <ele>225.276489</ele>
        <time>2010-08-28T11:59:33Z</time>
      </trkpt>
      <trkpt lat="48.88578" lon="7.38897">
        <ele>225.846802</ele>
        <time>2010-08-28T11:59:34Z</time>
      </trkpt>
      <trkpt lat="48.88589" lon="7.38894">
        <ele>224.397583</ele>
        <time>2010-08-28T11:59:36Z</time>
      </trkpt>
      <trkpt lat="48.88596" lon="7.38891">
        <ele>224.374146</ele>
        <time>2010-08-28T11:59:38Z</time>
      </trkpt>
      <trkpt lat="48.88602" lon="7.3889">
        <ele>224.788208</ele>
        <time>2010-08-28T11:59:40Z</time>
      </trkpt>
      <trkpt lat="48.88609" lon="7.38888">
        <ele>223.495239</ele>
        <time>2010-08-28T11:59:41Z</time>
      </trkpt>
      <trkpt lat="48.88615" lon="7.38886">
        <ele>224.151489</ele>
        <time>2010-08-28T11:59:43Z</time>
      </trkpt>
      <trkpt lat="48.8862" lon="7.38883">
        <ele>224.448364</ele>
        <time>2010-08-28T11:59:45Z</time>
      </trkpt>
      <trkpt lat="48.88626" lon="7.38882">
        <ele>225.694458</ele>
        <time>2010-08-28T11:59:47Z</time>
      </trkpt>
      <trkpt lat="48.88631" lon="7.3888">
        <ele>224.819458</ele>
        <time>2010-08-28T11:59:48Z</time>
      </trkpt>
      <trkpt lat="48.88636" lon="7.38879">
        <ele>226.799927</ele>
        <time>2010-08-28T11:59:50Z</time>
      </trkpt>
      <trkpt lat="48.88641" lon="7.38881">
        <ele>226.003052</ele>
        <time>2010-08-28T11:59:51Z</time>
      </trkpt>
      <trkpt lat="48.88647" lon="7.38882">
        <ele>225.124146</ele>
        <time>2010-08-28T11:59:53Z</time>
      </trkpt>
      <trkpt lat="48.88653" lon="7.38881">
        <ele>223.858521</ele>
        <time>2010-08-28T11:59:54Z</time>
      </trkpt>
      <trkpt lat="48.88658" lon="7.38881">
        <ele>223.553833</ele>
        <time>2010-08-28T11:59:55Z</time>
      </trkpt>
      <trkpt lat="48.88664" lon="7.3888">
        <ele>222.792114</ele>
        <time>2010-08-28T11:59:57Z</time>
      </trkpt>
      <trkpt lat="48.88668" lon="7.38879">
        <ele>223.866333</ele>
        <time>2010-08-28T11:59:58Z</time>
      </trkpt>
      <trkpt lat="48.88676" lon="7.38876">
        <ele>223.620239</ele>
        <time>2010-08-28T12:00:01Z</time>
      </trkpt>
      <trkpt lat="48.88681" lon="7.38874">
        <ele>223.917114</ele>
        <time>2010-08-28T12:00:03Z</time>
      </trkpt>
      <trkpt lat="48.88688" lon="7.38872">
        <ele>224.042114</ele>
        <time>2010-08-28T12:00:06Z</time>
      </trkpt>
      <trkpt lat="48.88694" lon="7.38871">
        <ele>223.948364</ele>
        <time>2010-08-28T12:00:08Z</time>
      </trkpt>
      <trkpt lat="48.887" lon="7.38871">
        <ele>223.702271</ele>
        <time>2010-08-28T12:00:10Z</time>
      </trkpt>
      <trkpt lat="48.88706" lon="7.38872">
        <ele>223.753052</ele>
        <time>2010-08-28T12:00:12Z</time>
      </trkpt>
      <trkpt lat="48.88711" lon="7.38872">
        <ele>223.921021</ele>
        <time>2010-08-28T12:00:14Z</time>
      </trkpt>
      <trkpt lat="48.88717" lon="7.38873">
        <ele>224.081177</ele>
        <time>2010-08-28T12:00:16Z</time>
      </trkpt>
      <trkpt lat="48.88722" lon="7.38874">
        <ele>224.096802</ele>
        <time>2010-08-28T12:00:18Z</time>
      </trkpt>
      <trkpt lat="48.88728" lon="7.38875">
        <ele>224.213989</ele>
        <time>2010-08-28T12:00:20Z</time>
      </trkpt>
      <trkpt lat="48.88734" lon="7.38877">
        <ele>224.499146</ele>
        <time>2010-08-28T12:00:22Z</time>
      </trkpt>
      <trkpt lat="48.88739" lon="7.38879">
        <ele>225.088989</ele>
        <time>2010-08-28T12:00:24Z</time>
      </trkpt>
      <trkpt lat="48.88744" lon="7.38883">
        <ele>225.874146</ele>
        <time>2010-08-28T12:00:27Z</time>
      </trkpt>
      <trkpt lat="48.8875" lon="7.38885">
        <ele>226.799927</ele>
        <time>2010-08-28T12:00:29Z</time>
      </trkpt>
      <trkpt lat="48.88755" lon="7.38888">
        <ele>227.381958</ele>
        <time>2010-08-28T12:00:31Z</time>
      </trkpt>
      <trkpt lat="48.8876" lon="7.38891">
        <ele>227.917114</ele>
        <time>2010-08-28T12:00:33Z</time>
      </trkpt>
      <trkpt lat="48.88764" lon="7.38895">
        <ele>228.229614</ele>
        <time>2010-08-28T12:00:35Z</time>
      </trkpt>
      <trkpt lat="48.88768" lon="7.38898">
        <ele>228.581177</ele>
        <time>2010-08-28T12:00:37Z</time>
      </trkpt>
      <trkpt lat="48.88775" lon="7.38903">
        <ele>228.452271</ele>
        <time>2010-08-28T12:00:39Z</time>
      </trkpt>
      <trkpt lat="48.88782" lon="7.38906">
        <ele>227.983521</ele>
        <time>2010-08-28T12:00:41Z</time>
      </trkpt>
      <trkpt lat="48.88787" lon="7.3891">
        <ele>227.713989</ele>
        <time>2010-08-28T12:00:43Z</time>
      </trkpt>
      <trkpt lat="48.88794" lon="7.38914">
        <ele>227.698364</ele>
        <time>2010-08-28T12:00:45Z</time>
      </trkpt>
      <trkpt lat="48.88799" lon="7.38915">
        <ele>228.221802</ele>
        <time>2010-08-28T12:00:46Z</time>
      </trkpt>
      <trkpt lat="48.88805" lon="7.38919">
        <ele>228.346802</ele>
        <time>2010-08-28T12:00:48Z</time>
      </trkpt>
      <trkpt lat="48.88811" lon="7.38922">
        <ele>228.713989</ele>
        <time>2010-08-28T12:00:50Z</time>
      </trkpt>
      <trkpt lat="48.8882" lon="7.38924">
        <ele>229.542114</ele>
        <time>2010-08-28T12:00:52Z</time>
      </trkpt>
      <trkpt lat="48.88827" lon="7.38926">
        <ele>230.296021</ele>
        <time>2010-08-28T12:00:54Z</time>
      </trkpt>
      <trkpt lat="48.88838" lon="7.38927">
        <ele>227.835083</ele>
        <time>2010-08-28T12:00:56Z</time>
      </trkpt>
      <trkpt lat="48.88844" lon="7.38928">
        <ele>227.796021</ele>
        <time>2010-08-28T12:00:57Z</time>
      </trkpt>
      <trkpt lat="48.88848" lon="7.38928">
        <ele>227.639771</ele>
        <time>2010-08-28T12:00:58Z</time>
      </trkpt>
      <trkpt lat="48.88855" lon="7.38929">
        <ele>227.163208</ele>
        <time>2010-08-28T12:01:00Z</time>
      </trkpt>
      <trkpt lat="48.8886" lon="7.38928">
        <ele>226.522583</ele>
        <time>2010-08-28T12:01:02Z</time>
      </trkpt>
      <trkpt lat="48.88866" lon="7.38925">
        <ele>226.198364</ele>
        <time>2010-08-28T12:01:04Z</time>
      </trkpt>
      <trkpt lat="48.88871" lon="7.3892">
        <ele>226.073364</ele>
        <time>2010-08-28T12:01:06Z</time>
      </trkpt>
      <trkpt lat="48.88876" lon="7.38911">
        <ele>227.456177</ele>
        <time>2010-08-28T12:01:08Z</time>
      </trkpt>
      <trkpt lat="48.88876" lon="7.38901">
        <ele>228.288208</ele>
        <time>2010-08-28T12:01:10Z</time>
      </trkpt>
      <trkpt lat="48.88876" lon="7.38891">
        <ele>228.585083</ele>
        <time>2010-08-28T12:01:12Z</time>
      </trkpt>
      <trkpt lat="48.88877" lon="7.38882">
        <ele>228.546021</ele>
        <time>2010-08-28T12:01:14Z</time>
      </trkpt>
      <trkpt lat="48.88879" lon="7.38873">
        <ele>228.311646</ele>
        <time>2010-08-28T12:01:16Z</time>
      </trkpt>
      <trkpt lat="48.88882" lon="7.38864">
        <ele>228.542114</ele>
        <time>2010-08-28T12:01:18Z</time>
      </trkpt>
      <trkpt lat="48.88886" lon="7.38853">
        <ele>226.549927</ele>
        <time>2010-08-28T12:01:20Z</time>
      </trkpt>
      <trkpt lat="48.88888" lon="7.38844">
        <ele>227.264771</ele>
        <time>2010-08-28T12:01:22Z</time>
      </trkpt>
      <trkpt lat="48.88889" lon="7.38836">
        <ele>228.260864</ele>
        <time>2010-08-28T12:01:24Z</time>
      </trkpt>
      <trkpt lat="48.88891" lon="7.38828">
        <ele>229.085083</ele>
        <time>2010-08-28T12:01:26Z</time>
      </trkpt>
      <trkpt lat="48.88893" lon="7.3882">
        <ele>229.838989</ele>
        <time>2010-08-28T12:01:28Z</time>
      </trkpt>
      <trkpt lat="48.88897" lon="7.38815">
        <ele>230.487427</ele>
        <time>2010-08-28T12:01:29Z</time>
      </trkpt>
      <trkpt lat="48.88899" lon="7.38807">
        <ele>231.331177</ele>
        <time>2010-08-28T12:01:31Z</time>
      </trkpt>
      <trkpt lat="48.88902" lon="7.38799">
        <ele>232.444458</ele>
        <time>2010-08-28T12:01:33Z</time>
      </trkpt>
      <trkpt lat="48.88904" lon="7.38793">
        <ele>233.370239</ele>
        <time>2010-08-28T12:01:35Z</time>
      </trkpt>
      <trkpt lat="48.88908" lon="7.38787">
        <ele>235.577271</ele>
        <time>2010-08-28T12:01:38Z</time>
      </trkpt>
      <trkpt lat="48.88912" lon="7.38784">
        <ele>237.577271</ele>
        <time>2010-08-28T12:01:41Z</time>
      </trkpt>
      <trkpt lat="48.88918" lon="7.38784">
        <ele>239.245239</ele>
        <time>2010-08-28T12:01:44Z</time>
      </trkpt>
      <trkpt lat="48.88925" lon="7.38786">
        <ele>240.881958</ele>
        <time>2010-08-28T12:01:47Z</time>
      </trkpt>
      <trkpt lat="48.88931" lon="7.38787">
        <ele>242.229614</ele>
        <time>2010-08-28T12:01:49Z</time>
      </trkpt>
      <trkpt lat="48.88934" lon="7.38787">
        <ele>245.018677</ele>
        <time>2010-08-28T12:02:07Z</time>
      </trkpt>
      <trkpt lat="48.88939" lon="7.38788">
        <ele>243.073364</ele>
        <time>2010-08-28T12:02:46Z</time>
      </trkpt>
      <trkpt lat="48.88943" lon="7.38788">
        <ele>243.315552</ele>
        <time>2010-08-28T12:04:15Z</time>
      </trkpt>
      <trkpt lat="48.88948" lon="7.38788">
        <ele>242.053833</ele>
        <time>2010-08-28T12:04:54Z</time>
      </trkpt>
      <trkpt lat="48.88953" lon="7.38788">
        <ele>241.190552</ele>
        <time>2010-08-28T12:04:56Z</time>
      </trkpt>
      <trkpt lat="48.88959" lon="7.38791">
        <ele>240.202271</ele>
        <time>2010-08-28T12:04:59Z</time>
      </trkpt>
      <trkpt lat="48.88965" lon="7.38795">
        <ele>238.678833</ele>
        <time>2010-08-28T12:05:01Z</time>
      </trkpt>
      <trkpt lat="48.88968" lon="7.38799">
        <ele>236.026489</ele>
        <time>2010-08-28T12:05:09Z</time>
      </trkpt>
      <trkpt lat="48.88971" lon="7.38801">
        <ele>232.944458</ele>
        <time>2010-08-28T12:06:16Z</time>
      </trkpt>
      <trkpt lat="48.88977" lon="7.38804">
        <ele>231.655396</ele>
        <time>2010-08-28T12:06:20Z</time>
      </trkpt>
      <trkpt lat="48.88982" lon="7.38809">
        <ele>231.717896</ele>
        <time>2010-08-28T12:06:23Z</time>
      </trkpt>
      <trkpt lat="48.88987" lon="7.38816">
        <ele>231.409302</ele>
        <time>2010-08-28T12:06:26Z</time>
      </trkpt>
      <trkpt lat="48.88991" lon="7.3882">
        <ele>231.346802</ele>
        <time>2010-08-28T12:06:28Z</time>
      </trkpt>
      <trkpt lat="48.88996" lon="7.38825">
        <ele>230.796021</ele>
        <time>2010-08-28T12:06:30Z</time>
      </trkpt>
      <trkpt lat="48.89" lon="7.38832">
        <ele>230.674927</ele>
        <time>2010-08-28T12:06:33Z</time>
      </trkpt>
      <trkpt lat="48.89004" lon="7.38834">
        <ele>230.893677</ele>
        <time>2010-08-28T12:06:35Z</time>
      </trkpt>
      <trkpt lat="48.89008" lon="7.38838">
        <ele>231.706177</ele>
        <time>2010-08-28T12:06:37Z</time>
      </trkpt>
      <trkpt lat="48.89014" lon="7.38843">
        <ele>232.956177</ele>
        <time>2010-08-28T12:06:39Z</time>
      </trkpt>
      <trkpt lat="48.89019" lon="7.38848">
        <ele>232.026489</ele>
        <time>2010-08-28T12:06:41Z</time>
      </trkpt>
      <trkpt lat="48.89025" lon="7.38852">
        <ele>231.663208</ele>
        <time>2010-08-28T12:06:43Z</time>
      </trkpt>
      <trkpt lat="48.8903" lon="7.38859">
        <ele>232.112427</ele>
        <time>2010-08-28T12:06:46Z</time>
      </trkpt>
      <trkpt lat="48.89033" lon="7.38864">
        <ele>232.112427</ele>
        <time>2010-08-28T12:06:48Z</time>
      </trkpt>
      <trkpt lat="48.89036" lon="7.38869">
        <ele>232.776489</ele>
        <time>2010-08-28T12:06:50Z</time>
      </trkpt>
      <trkpt lat="48.89041" lon="7.38875">
        <ele>233.612427</ele>
        <time>2010-08-28T12:06:53Z</time>
      </trkpt>
      <trkpt lat="48.89044" lon="7.3888">
        <ele>233.823364</ele>
        <time>2010-08-28T12:06:55Z</time>
      </trkpt>
      <trkpt lat="48.89049" lon="7.38884">
        <ele>234.413208</ele>
        <time>2010-08-28T12:06:58Z</time>
      </trkpt>
      <trkpt lat="48.89053" lon="7.38889">
        <ele>235.135864</ele>
        <time>2010-08-28T12:07:01Z</time>
      </trkpt>
      <trkpt lat="48.89057" lon="7.38892">
        <ele>234.241333</ele>
        <time>2010-08-28T12:07:04Z</time>
      </trkpt>
      <trkpt lat="48.89063" lon="7.38893">
        <ele>234.592896</ele>
        <time>2010-08-28T12:07:08Z</time>
      </trkpt>
      <trkpt lat="48.89067" lon="7.38895">
        <ele>235.612427</ele>
        <time>2010-08-28T12:07:14Z</time>
      </trkpt>
      <trkpt lat="48.89068" lon="7.38903">
        <ele>237.237427</ele>
        <time>2010-08-28T12:07:23Z</time>
      </trkpt>
      <trkpt lat="48.89071" lon="7.3891">
        <ele>238.546021</ele>
        <time>2010-08-28T12:07:28Z</time>
      </trkpt>
      <trkpt lat="48.89073" lon="7.38917">
        <ele>239.147583</ele>
        <time>2010-08-28T12:07:31Z</time>
      </trkpt>
      <trkpt lat="48.89074" lon="7.38923">
        <ele>240.280396</ele>
        <time>2010-08-28T12:07:34Z</time>
      </trkpt>
      <trkpt lat="48.89077" lon="7.38931">
        <ele>239.725708</ele>
        <time>2010-08-28T12:07:37Z</time>
      </trkpt>
      <trkpt lat="48.89079" lon="7.38938">
        <ele>239.881958</ele>
        <time>2010-08-28T12:07:40Z</time>
      </trkpt>
      <trkpt lat="48.89081" lon="7.38945">
        <ele>240.760864</ele>
        <time>2010-08-28T12:07:43Z</time>
      </trkpt>
      <trkpt lat="48.89082" lon="7.38953">
        <ele>241.081177</ele>
        <time>2010-08-28T12:07:46Z</time>
      </trkpt>
      <trkpt lat="48.89084" lon="7.38962">
        <ele>243.436646</ele>
        <time>2010-08-28T12:07:49Z</time>
      </trkpt>
      <trkpt lat="48.89086" lon="7.38971">
        <ele>245.335083</ele>
        <time>2010-08-28T12:07:52Z</time>
      </trkpt>
      <trkpt lat="48.89086" lon="7.38979">
        <ele>245.936646</ele>
        <time>2010-08-28T12:07:56Z</time>
      </trkpt>
      <trkpt lat="48.89087" lon="7.38988">
        <ele>246.456177</ele>
        <time>2010-08-28T12:08:00Z</time>
      </trkpt>
      <trkpt lat="48.89089" lon="7.38995">
        <ele>246.780396</ele>
        <time>2010-08-28T12:08:03Z</time>
      </trkpt>
      <trkpt lat="48.8909" lon="7.39003">
        <ele>247.003052</ele>
        <time>2010-08-28T12:08:06Z</time>
      </trkpt>
      <trkpt lat="48.89089" lon="7.3901">
        <ele>248.917114</ele>
        <time>2010-08-28T12:08:09Z</time>
      </trkpt>
      <trkpt lat="48.89088" lon="7.39017">
        <ele>250.100708</ele>
        <time>2010-08-28T12:08:12Z</time>
      </trkpt>
      <trkpt lat="48.89088" lon="7.39024">
        <ele>251.081177</ele>
        <time>2010-08-28T12:08:20Z</time>
      </trkpt>
      <trkpt lat="48.8909" lon="7.3903">
        <ele>251.655396</ele>
        <time>2010-08-28T12:08:23Z</time>
      </trkpt>
      <trkpt lat="48.89092" lon="7.39038">
        <ele>251.624146</ele>
        <time>2010-08-28T12:08:27Z</time>
      </trkpt>
      <trkpt lat="48.89095" lon="7.39044">
        <ele>250.421021</ele>
        <time>2010-08-28T12:08:30Z</time>
      </trkpt>
      <trkpt lat="48.89097" lon="7.39052">
        <ele>250.006958</ele>
        <time>2010-08-28T12:08:33Z</time>
      </trkpt>
      <trkpt lat="48.89098" lon="7.39058">
        <ele>251.354614</ele>
        <time>2010-08-28T12:08:36Z</time>
      </trkpt>
      <trkpt lat="48.89098" lon="7.39067">
        <ele>253.421021</ele>
        <time>2010-08-28T12:08:39Z</time>
      </trkpt>
      <trkpt lat="48.89101" lon="7.39073">
        <ele>253.897583</ele>
        <time>2010-08-28T12:08:42Z</time>
      </trkpt>
      <trkpt lat="48.89104" lon="7.39082">
        <ele>253.612427</ele>
        <time>2010-08-28T12:08:45Z</time>
      </trkpt>
      <trkpt lat="48.89105" lon="7.39091">
        <ele>252.753052</ele>
        <time>2010-08-28T12:08:49Z</time>
      </trkpt>
      <trkpt lat="48.89106" lon="7.39097">
        <ele>252.741333</ele>
        <time>2010-08-28T12:08:53Z</time>
      </trkpt>
      <trkpt lat="48.89109" lon="7.39104">
        <ele>251.030396</ele>
        <time>2010-08-28T12:08:56Z</time>
      </trkpt>
      <trkpt lat="48.89113" lon="7.39112">
        <ele>252.178833</ele>
        <time>2010-08-28T12:08:59Z</time>
      </trkpt>
      <trkpt lat="48.89116" lon="7.39119">
        <ele>252.276489</ele>
        <time>2010-08-28T12:09:01Z</time>
      </trkpt>
      <trkpt lat="48.89119" lon="7.39125">
        <ele>252.108521</ele>
        <time>2010-08-28T12:09:04Z</time>
      </trkpt>
      <trkpt lat="48.89124" lon="7.39132">
        <ele>252.471802</ele>
        <time>2010-08-28T12:09:07Z</time>
      </trkpt>
      <trkpt lat="48.89126" lon="7.39139">
        <ele>252.897583</ele>
        <time>2010-08-28T12:09:10Z</time>
      </trkpt>
      <trkpt lat="48.89129" lon="7.39145">
        <ele>254.210083</ele>
        <time>2010-08-28T12:09:13Z</time>
      </trkpt>
      <trkpt lat="48.89134" lon="7.39151">
        <ele>253.983521</ele>
        <time>2010-08-28T12:09:16Z</time>
      </trkpt>
      <trkpt lat="48.89135" lon="7.39159">
        <ele>254.909302</ele>
        <time>2010-08-28T12:09:19Z</time>
      </trkpt>
      <trkpt lat="48.89136" lon="7.39166">
        <ele>255.932739</ele>
        <time>2010-08-28T12:09:22Z</time>
      </trkpt>
      <trkpt lat="48.89139" lon="7.39173">
        <ele>256.724854</ele>
        <time>2010-08-28T12:09:26Z</time>
      </trkpt>
      <trkpt lat="48.89143" lon="7.39178">
        <ele>256.654541</ele>
        <time>2010-08-28T12:09:29Z</time>
      </trkpt>
      <trkpt lat="48.89149" lon="7.39183">
        <ele>255.635864</ele>
        <time>2010-08-28T12:09:32Z</time>
      </trkpt>
      <trkpt lat="48.89154" lon="7.39186">
        <ele>254.471802</ele>
        <time>2010-08-28T12:09:35Z</time>
      </trkpt>
      <trkpt lat="48.89159" lon="7.39191">
        <ele>254.546021</ele>
        <time>2010-08-28T12:09:38Z</time>
      </trkpt>
      <trkpt lat="48.89164" lon="7.39193">
        <ele>254.772583</ele>
        <time>2010-08-28T12:09:40Z</time>
      </trkpt>
      <trkpt lat="48.89169" lon="7.392">
        <ele>254.624146</ele>
        <time>2010-08-28T12:09:44Z</time>
      </trkpt>
      <trkpt lat="48.89168" lon="7.39208">
        <ele>254.010864</ele>
        <time>2010-08-28T12:09:48Z</time>
      </trkpt>
      <trkpt lat="48.89172" lon="7.39211">
        <ele>254.413208</ele>
        <time>2010-08-28T12:09:50Z</time>
      </trkpt>
      <trkpt lat="48.89177" lon="7.39215">
        <ele>253.194458</ele>
        <time>2010-08-28T12:09:53Z</time>
      </trkpt>
      <trkpt lat="48.89183" lon="7.39219">
        <ele>254.538208</ele>
        <time>2010-08-28T12:09:56Z</time>
      </trkpt>
      <trkpt lat="48.89187" lon="7.39224">
        <ele>255.284302</ele>
        <time>2010-08-28T12:09:59Z</time>
      </trkpt>
      <trkpt lat="48.89189" lon="7.39231">
        <ele>255.756958</ele>
        <time>2010-08-28T12:10:03Z</time>
      </trkpt>
      <trkpt lat="48.89192" lon="7.39238">
        <ele>256.404541</ele>
        <time>2010-08-28T12:10:06Z</time>
      </trkpt>
      <trkpt lat="48.89195" lon="7.39244">
        <ele>256.990479</ele>
        <time>2010-08-28T12:10:09Z</time>
      </trkpt>
      <trkpt lat="48.89197" lon="7.3925">
        <ele>257.584229</ele>
        <time>2010-08-28T12:10:13Z</time>
      </trkpt>
      <trkpt lat="48.892" lon="7.39256">
        <ele>258.654541</ele>
        <time>2010-08-28T12:10:17Z</time>
      </trkpt>
      <trkpt lat="48.89203" lon="7.39263">
        <ele>259.959229</ele>
        <time>2010-08-28T12:10:22Z</time>
      </trkpt>
      <trkpt lat="48.89206" lon="7.39267">
        <ele>262.201416</ele>
        <time>2010-08-28T12:10:26Z</time>
      </trkpt>
      <trkpt lat="48.89211" lon="7.39274">
        <ele>263.162354</ele>
        <time>2010-08-28T12:10:30Z</time>
      </trkpt>
      <trkpt lat="48.89214" lon="7.39279">
        <ele>264.209229</ele>
        <time>2010-08-28T12:10:34Z</time>
      </trkpt>
      <trkpt lat="48.89219" lon="7.39283">
        <ele>264.709229</ele>
        <time>2010-08-28T12:10:38Z</time>
      </trkpt>
      <trkpt lat="48.89223" lon="7.39288">
        <ele>266.193604</ele>
        <time>2010-08-28T12:10:41Z</time>
      </trkpt>
      <trkpt lat="48.89227" lon="7.39291">
        <ele>266.912354</ele>
        <time>2010-08-28T12:10:44Z</time>
      </trkpt>
      <trkpt lat="48.89233" lon="7.39296">
        <ele>267.904541</ele>
        <time>2010-08-28T12:10:47Z</time>
      </trkpt>
      <trkpt lat="48.89237" lon="7.393">
        <ele>267.381104</ele>
        <time>2010-08-28T12:10:49Z</time>
      </trkpt>
      <trkpt lat="48.89241" lon="7.39307">
        <ele>266.732666</ele>
        <time>2010-08-28T12:10:52Z</time>
      </trkpt>
      <trkpt lat="48.89246" lon="7.39312">
        <ele>267.295166</ele>
        <time>2010-08-28T12:10:56Z</time>
      </trkpt>
      <trkpt lat="48.89249" lon="7.39318">
        <ele>264.310791</ele>
        <time>2010-08-28T12:10:59Z</time>
      </trkpt>
      <trkpt lat="48.89253" lon="7.39323">
        <ele>264.373291</ele>
        <time>2010-08-28T12:11:02Z</time>
      </trkpt>
      <trkpt lat="48.89258" lon="7.39326">
        <ele>264.732666</ele>
        <time>2010-08-28T12:11:05Z</time>
      </trkpt>
      <trkpt lat="48.89261" lon="7.39332">
        <ele>265.740479</ele>
        <time>2010-08-28T12:11:09Z</time>
      </trkpt>
      <trkpt lat="48.89264" lon="7.39336">
        <ele>267.396729</ele>
        <time>2010-08-28T12:11:11Z</time>
      </trkpt>
      <trkpt lat="48.89269" lon="7.39342">
        <ele>268.123291</ele>
        <time>2010-08-28T12:11:14Z</time>
      </trkpt>
      <trkpt lat="48.89275" lon="7.39347">
        <ele>268.131104</ele>
        <time>2010-08-28T12:11:17Z</time>
      </trkpt>
      <trkpt lat="48.89278" lon="7.39352">
        <ele>269.060791</ele>
        <time>2010-08-28T12:11:20Z</time>
      </trkpt>
      <trkpt lat="48.89282" lon="7.39358">
        <ele>268.576416</ele>
        <time>2010-08-28T12:11:23Z</time>
      </trkpt>
      <trkpt lat="48.89285" lon="7.39363">
        <ele>268.849854</ele>
        <time>2010-08-28T12:11:26Z</time>
      </trkpt>
      <trkpt lat="48.89289" lon="7.3937">
        <ele>268.763916</ele>
        <time>2010-08-28T12:11:29Z</time>
      </trkpt>
      <trkpt lat="48.89294" lon="7.39376">
        <ele>269.342041</ele>
        <time>2010-08-28T12:11:33Z</time>
      </trkpt>
      <trkpt lat="48.89298" lon="7.39381">
        <ele>269.912354</ele>
        <time>2010-08-28T12:11:36Z</time>
      </trkpt>
      <trkpt lat="48.89302" lon="7.39385">
        <ele>269.795166</ele>
        <time>2010-08-28T12:11:39Z</time>
      </trkpt>
      <trkpt lat="48.89307" lon="7.39387">
        <ele>270.740479</ele>
        <time>2010-08-28T12:11:45Z</time>
      </trkpt>
      <trkpt lat="48.89312" lon="7.39389">
        <ele>272.131104</ele>
        <time>2010-08-28T12:11:53Z</time>
      </trkpt>
      <trkpt lat="48.89319" lon="7.39389">
        <ele>272.748291</ele>
        <time>2010-08-28T12:11:57Z</time>
      </trkpt>
      <trkpt lat="48.89323" lon="7.39391">
        <ele>273.154541</ele>
        <time>2010-08-28T12:13:47Z</time>
      </trkpt>
      <trkpt lat="48.89319" lon="7.39392">
        <ele>276.248291</ele>
        <time>2010-08-28T12:15:00Z</time>
      </trkpt>
      <trkpt lat="48.89322" lon="7.39397">
        <ele>274.599854</ele>
        <time>2010-08-28T12:15:32Z</time>
      </trkpt>
      <trkpt lat="48.89328" lon="7.39401">
        <ele>275.537354</ele>
        <time>2010-08-28T12:15:36Z</time>
      </trkpt>
      <trkpt lat="48.89332" lon="7.39407">
        <ele>276.842041</ele>
        <time>2010-08-28T12:15:40Z</time>
      </trkpt>
      <trkpt lat="48.89338" lon="7.39408">
        <ele>277.545166</ele>
        <time>2010-08-28T12:15:48Z</time>
      </trkpt>
      <trkpt lat="48.89341" lon="7.39413">
        <ele>279.068604</ele>
        <time>2010-08-28T12:16:01Z</time>
      </trkpt>
      <trkpt lat="48.89348" lon="7.39415">
        <ele>279.263916</ele>
        <time>2010-08-28T12:16:05Z</time>
      </trkpt>
      <trkpt lat="48.89353" lon="7.39415">
        <ele>279.568604</ele>
        <time>2010-08-28T12:16:09Z</time>
      </trkpt>
      <trkpt lat="48.89359" lon="7.39411">
        <ele>280.263916</ele>
        <time>2010-08-28T12:16:15Z</time>
      </trkpt>
      <trkpt lat="48.89365" lon="7.39409">
        <ele>280.459229</ele>
        <time>2010-08-28T12:16:18Z</time>
      </trkpt>
      <trkpt lat="48.8937" lon="7.39407">
        <ele>280.896729</ele>
        <time>2010-08-28T12:16:22Z</time>
      </trkpt>
      <trkpt lat="48.89375" lon="7.39406">
        <ele>281.068604</ele>
        <time>2010-08-28T12:16:24Z</time>
      </trkpt>
      <trkpt lat="48.8938" lon="7.39404">
        <ele>281.404541</ele>
        <time>2010-08-28T12:16:27Z</time>
      </trkpt>
      <trkpt lat="48.89384" lon="7.39402">
        <ele>281.693604</ele>
        <time>2010-08-28T12:16:30Z</time>
      </trkpt>
      <trkpt lat="48.89389" lon="7.39401">
        <ele>282.224854</ele>
        <time>2010-08-28T12:16:33Z</time>
      </trkpt>
      <trkpt lat="48.89394" lon="7.394">
        <ele>282.482666</ele>
        <time>2010-08-28T12:16:37Z</time>
      </trkpt>
      <trkpt lat="48.894" lon="7.39399">
        <ele>282.607666</ele>
        <time>2010-08-28T12:16:40Z</time>
      </trkpt>
      <trkpt lat="48.89406" lon="7.39395">
        <ele>282.818604</ele>
        <time>2010-08-28T12:16:43Z</time>
      </trkpt>
      <trkpt lat="48.89412" lon="7.39392">
        <ele>282.779541</ele>
        <time>2010-08-28T12:16:46Z</time>
      </trkpt>
      <trkpt lat="48.89418" lon="7.39388">
        <ele>282.732666</ele>
        <time>2010-08-28T12:16:49Z</time>
      </trkpt>
      <trkpt lat="48.89423" lon="7.39384">
        <ele>282.935791</ele>
        <time>2010-08-28T12:16:52Z</time>
      </trkpt>
      <trkpt lat="48.89428" lon="7.39379">
        <ele>283.138916</ele>
        <time>2010-08-28T12:16:55Z</time>
      </trkpt>
      <trkpt lat="48.89431" lon="7.39373">
        <ele>283.170166</ele>
        <time>2010-08-28T12:16:58Z</time>
      </trkpt>
      <trkpt lat="48.89436" lon="7.3937">
        <ele>283.357666</ele>
        <time>2010-08-28T12:17:03Z</time>
      </trkpt>
      <trkpt lat="48.89439" lon="7.39366">
        <ele>283.482666</ele>
        <time>2010-08-28T12:17:07Z</time>
      </trkpt>
      <trkpt lat="48.89444" lon="7.39362">
        <ele>283.513916</ele>
        <time>2010-08-28T12:17:11Z</time>
      </trkpt>
      <trkpt lat="48.89449" lon="7.3936">
        <ele>283.474854</ele>
        <time>2010-08-28T12:17:15Z</time>
      </trkpt>
      <trkpt lat="48.89455" lon="7.39358">
        <ele>284.224854</ele>
        <time>2010-08-28T12:17:19Z</time>
      </trkpt>
      <trkpt lat="48.8946" lon="7.39358">
        <ele>284.467041</ele>
        <time>2010-08-28T12:17:22Z</time>
      </trkpt>
      <trkpt lat="48.89465" lon="7.39356">
        <ele>284.935791</ele>
        <time>2010-08-28T12:17:28Z</time>
      </trkpt>
      <trkpt lat="48.89468" lon="7.3935">
        <ele>283.818604</ele>
        <time>2010-08-28T12:17:38Z</time>
      </trkpt>
      <trkpt lat="48.89474" lon="7.39351">
        <ele>282.607666</ele>
        <time>2010-08-28T12:17:40Z</time>
      </trkpt>
      <trkpt lat="48.89478" lon="7.3935">
        <ele>282.287354</ele>
        <time>2010-08-28T12:17:43Z</time>
      </trkpt>
      <trkpt lat="48.89481" lon="7.39343">
        <ele>281.287354</ele>
        <time>2010-08-28T12:17:46Z</time>
      </trkpt>
      <trkpt lat="48.89485" lon="7.39341">
        <ele>279.521729</ele>
        <time>2010-08-28T12:17:50Z</time>
      </trkpt>
      <trkpt lat="48.89491" lon="7.39339">
        <ele>278.709229</ele>
        <time>2010-08-28T12:17:53Z</time>
      </trkpt>
      <trkpt lat="48.89495" lon="7.39342">
        <ele>277.904541</ele>
        <time>2010-08-28T12:17:55Z</time>
      </trkpt>
      <trkpt lat="48.89504" lon="7.39347">
        <ele>275.810791</ele>
        <time>2010-08-28T12:17:56Z</time>
      </trkpt>
      <trkpt lat="48.89511" lon="7.39349">
        <ele>274.146729</ele>
        <time>2010-08-28T12:17:58Z</time>
      </trkpt>
      <trkpt lat="48.89515" lon="7.39352">
        <ele>273.935791</ele>
        <time>2010-08-28T12:18:02Z</time>
      </trkpt>
      <trkpt lat="48.89521" lon="7.3935">
        <ele>274.357666</ele>
        <time>2010-08-28T12:18:06Z</time>
      </trkpt>
      <trkpt lat="48.89526" lon="7.39347">
        <ele>272.013916</ele>
        <time>2010-08-28T12:18:14Z</time>
      </trkpt>
      <trkpt lat="48.89528" lon="7.39343">
        <ele>275.232666</ele>
        <time>2010-08-28T12:18:47Z</time>
      </trkpt>
      <trkpt lat="48.89532" lon="7.39346">
        <ele>275.748291</ele>
        <time>2010-08-28T12:18:53Z</time>
      </trkpt>
      <trkpt lat="48.89536" lon="7.39351">
        <ele>277.420166</ele>
        <time>2010-08-28T12:19:12Z</time>
      </trkpt>
      <trkpt lat="48.89538" lon="7.39357">
        <ele>278.552979</ele>
        <time>2010-08-28T12:19:15Z</time>
      </trkpt>
      <trkpt lat="48.89537" lon="7.39364">
        <ele>280.224854</ele>
        <time>2010-08-28T12:19:21Z</time>
      </trkpt>
      <trkpt lat="48.89533" lon="7.39369">
        <ele>281.756104</ele>
        <time>2010-08-28T12:19:43Z</time>
      </trkpt>
      <trkpt lat="48.89529" lon="7.39373">
        <ele>280.912354</ele>
        <time>2010-08-28T12:19:59Z</time>
      </trkpt>
      <trkpt lat="48.89525" lon="7.39373">
        <ele>280.677979</ele>
        <time>2010-08-28T12:20:05Z</time>
      </trkpt>
      <trkpt lat="48.8952" lon="7.39377">
        <ele>280.482666</ele>
        <time>2010-08-28T12:20:10Z</time>
      </trkpt>
      <trkpt lat="48.89514" lon="7.39381">
        <ele>280.006104</ele>
        <time>2010-08-28T12:20:14Z</time>
      </trkpt>
      <trkpt lat="48.89513" lon="7.39388">
        <ele>278.920166</ele>
        <time>2010-08-28T12:20:17Z</time>
      </trkpt>
      <trkpt lat="48.8951" lon="7.39394">
        <ele>279.342041</ele>
        <time>2010-08-28T12:20:21Z</time>
      </trkpt>
      <trkpt lat="48.89506" lon="7.394">
        <ele>278.302979</ele>
        <time>2010-08-28T12:20:25Z</time>
      </trkpt>
      <trkpt lat="48.89504" lon="7.39407">
        <ele>277.256104</ele>
        <time>2010-08-28T12:20:30Z</time>
      </trkpt>
      <trkpt lat="48.895" lon="7.39413">
        <ele>276.943604</ele>
        <time>2010-08-28T12:20:34Z</time>
      </trkpt>
      <trkpt lat="48.89499" lon="7.3942">
        <ele>275.404541</ele>
        <time>2010-08-28T12:20:41Z</time>
      </trkpt>
      <trkpt lat="48.895" lon="7.39427">
        <ele>277.060791</ele>
        <time>2010-08-28T12:20:46Z</time>
      </trkpt>
      <trkpt lat="48.89501" lon="7.39434">
        <ele>278.279541</ele>
        <time>2010-08-28T12:20:52Z</time>
      </trkpt>
      <trkpt lat="48.89498" lon="7.3944">
        <ele>279.513916</ele>
        <time>2010-08-28T12:20:55Z</time>
      </trkpt>
      <trkpt lat="48.89496" lon="7.39446">
        <ele>280.982666</ele>
        <time>2010-08-28T12:20:59Z</time>
      </trkpt>
      <trkpt lat="48.89492" lon="7.39451">
        <ele>281.912354</ele>
        <time>2010-08-28T12:21:02Z</time>
      </trkpt>
      <trkpt lat="48.89493" lon="7.39458">
        <ele>283.474854</ele>
        <time>2010-08-28T12:21:07Z</time>
      </trkpt>
      <trkpt lat="48.8949" lon="7.39464">
        <ele>283.959229</ele>
        <time>2010-08-28T12:21:11Z</time>
      </trkpt>
      <trkpt lat="48.89491" lon="7.39471">
        <ele>285.217041</ele>
        <time>2010-08-28T12:21:17Z</time>
      </trkpt>
      <trkpt lat="48.89492" lon="7.39478">
        <ele>285.646729</ele>
        <time>2010-08-28T12:21:22Z</time>
      </trkpt>
      <trkpt lat="48.89492" lon="7.39485">
        <ele>286.295166</ele>
        <time>2010-08-28T12:21:28Z</time>
      </trkpt>
      <trkpt lat="48.89493" lon="7.39493">
        <ele>286.654541</ele>
        <time>2010-08-28T12:21:33Z</time>
      </trkpt>
      <trkpt lat="48.89496" lon="7.39498">
        <ele>285.193604</ele>
        <time>2010-08-28T12:21:39Z</time>
      </trkpt>
      <trkpt lat="48.89499" lon="7.39503">
        <ele>284.607666</ele>
        <time>2010-08-28T12:21:47Z</time>
      </trkpt>
      <trkpt lat="48.89499" lon="7.3951">
        <ele>285.326416</ele>
        <time>2010-08-28T12:21:54Z</time>
      </trkpt>
      <trkpt lat="48.89498" lon="7.39516">
        <ele>285.592041</ele>
        <time>2010-08-28T12:22:00Z</time>
      </trkpt>
      <trkpt lat="48.89499" lon="7.39524">
        <ele>286.068604</ele>
        <time>2010-08-28T12:22:06Z</time>
      </trkpt>
      <trkpt lat="48.89497" lon="7.39532">
        <ele>285.584229</ele>
        <time>2010-08-28T12:22:11Z</time>
      </trkpt>
      <trkpt lat="48.89494" lon="7.39538">
        <ele>288.138916</ele>
        <time>2010-08-28T12:22:19Z</time>
      </trkpt>
      <trkpt lat="48.89495" lon="7.39545">
        <ele>288.349854</ele>
        <time>2010-08-28T12:22:26Z</time>
      </trkpt>
      <trkpt lat="48.89497" lon="7.39551">
        <ele>289.420166</ele>
        <time>2010-08-28T12:22:32Z</time>
      </trkpt>
      <trkpt lat="48.89493" lon="7.39554">
        <ele>292.701416</ele>
        <time>2010-08-28T12:22:38Z</time>
      </trkpt>
      <trkpt lat="48.89493" lon="7.39561">
        <ele>292.576416</ele>
        <time>2010-08-28T12:22:40Z</time>
      </trkpt>
      <trkpt lat="48.89493" lon="7.3957">
        <ele>293.420166</ele>
        <time>2010-08-28T12:22:43Z</time>
      </trkpt>
      <trkpt lat="48.89495" lon="7.39578">
        <ele>294.263916</ele>
        <time>2010-08-28T12:22:46Z</time>
      </trkpt>
      <trkpt lat="48.89491" lon="7.39583">
        <ele>295.826416</ele>
        <time>2010-08-28T12:22:49Z</time>
      </trkpt>
      <trkpt lat="48.89488" lon="7.3959">
        <ele>296.638916</ele>
        <time>2010-08-28T12:22:53Z</time>
      </trkpt>
      <trkpt lat="48.89489" lon="7.39597">
        <ele>295.959229</ele>
        <time>2010-08-28T12:22:57Z</time>
      </trkpt>
      <trkpt lat="48.89491" lon="7.39605">
        <ele>294.896729</ele>
        <time>2010-08-28T12:23:01Z</time>
      </trkpt>
      <trkpt lat="48.89492" lon="7.39612">
        <ele>295.615479</ele>
        <time>2010-08-28T12:23:05Z</time>
      </trkpt>
      <trkpt lat="48.89494" lon="7.39619">
        <ele>294.521729</ele>
        <time>2010-08-28T12:23:09Z</time>
      </trkpt>
      <trkpt lat="48.89499" lon="7.39621">
        <ele>292.896729</ele>
        <time>2010-08-28T12:23:11Z</time>
      </trkpt>
      <trkpt lat="48.89502" lon="7.39628">
        <ele>292.881104</ele>
        <time>2010-08-28T12:23:17Z</time>
      </trkpt>
      <trkpt lat="48.895" lon="7.39636">
        <ele>291.849854</ele>
        <time>2010-08-28T12:23:22Z</time>
      </trkpt>
      <trkpt lat="48.89504" lon="7.39641">
        <ele>291.467041</ele>
        <time>2010-08-28T12:23:27Z</time>
      </trkpt>
      <trkpt lat="48.89508" lon="7.39647">
        <ele>291.912354</ele>
        <time>2010-08-28T12:23:30Z</time>
      </trkpt>
      <trkpt lat="48.8951" lon="7.39654">
        <ele>292.810791</ele>
        <time>2010-08-28T12:23:33Z</time>
      </trkpt>
      <trkpt lat="48.89515" lon="7.39659">
        <ele>293.529541</ele>
        <time>2010-08-28T12:23:36Z</time>
      </trkpt>
      <trkpt lat="48.8952" lon="7.39665">
        <ele>294.232666</ele>
        <time>2010-08-28T12:23:40Z</time>
      </trkpt>
      <trkpt lat="48.89523" lon="7.39673">
        <ele>295.138916</ele>
        <time>2010-08-28T12:23:44Z</time>
      </trkpt>
      <trkpt lat="48.89526" lon="7.39679">
        <ele>295.506104</ele>
        <time>2010-08-28T12:23:47Z</time>
      </trkpt>
      <trkpt lat="48.89529" lon="7.39685">
        <ele>295.685791</ele>
        <time>2010-08-28T12:23:51Z</time>
      </trkpt>
      <trkpt lat="48.89531" lon="7.39692">
        <ele>296.076416</ele>
        <time>2010-08-28T12:23:55Z</time>
      </trkpt>
      <trkpt lat="48.89534" lon="7.39701">
        <ele>297.834229</ele>
        <time>2010-08-28T12:24:00Z</time>
      </trkpt>
      <trkpt lat="48.89536" lon="7.39708">
        <ele>298.826416</ele>
        <time>2010-08-28T12:24:04Z</time>
      </trkpt>
      <trkpt lat="48.89537" lon="7.39715">
        <ele>299.381104</ele>
        <time>2010-08-28T12:24:08Z</time>
      </trkpt>
      <trkpt lat="48.89539" lon="7.39721">
        <ele>302.248291</ele>
        <time>2010-08-28T12:24:12Z</time>
      </trkpt>
      <trkpt lat="48.89542" lon="7.39726">
        <ele>302.842041</ele>
        <time>2010-08-28T12:24:17Z</time>
      </trkpt>
      <trkpt lat="48.8954" lon="7.39732">
        <ele>303.185791</ele>
        <time>2010-08-28T12:24:23Z</time>
      </trkpt>
      <trkpt lat="48.89543" lon="7.39737">
        <ele>303.873291</ele>
        <time>2010-08-28T12:24:27Z</time>
      </trkpt>
      <trkpt lat="48.89544" lon="7.39745">
        <ele>304.701416</ele>
        <time>2010-08-28T12:24:30Z</time>
      </trkpt>
      <trkpt lat="48.89548" lon="7.39751">
        <ele>302.552979</ele>
        <time>2010-08-28T12:24:33Z</time>
      </trkpt>
      <trkpt lat="48.89549" lon="7.3976">
        <ele>302.138916</ele>
        <time>2010-08-28T12:24:36Z</time>
      </trkpt>
      <trkpt lat="48.89551" lon="7.39768">
        <ele>301.865479</ele>
        <time>2010-08-28T12:24:39Z</time>
      </trkpt>
      <trkpt lat="48.89553" lon="7.39776">
        <ele>302.029541</ele>
        <time>2010-08-28T12:24:42Z</time>
      </trkpt>
      <trkpt lat="48.89558" lon="7.39782">
        <ele>303.052979</ele>
        <time>2010-08-28T12:24:47Z</time>
      </trkpt>
      <trkpt lat="48.89564" lon="7.39782">
        <ele>300.756104</ele>
        <time>2010-08-28T12:24:50Z</time>
      </trkpt>
      <trkpt lat="48.89568" lon="7.39788">
        <ele>300.045166</ele>
        <time>2010-08-28T12:24:53Z</time>
      </trkpt>
      <trkpt lat="48.89573" lon="7.39792">
        <ele>298.435791</ele>
        <time>2010-08-28T12:24:56Z</time>
      </trkpt>
      <trkpt lat="48.89576" lon="7.39798">
        <ele>298.927979</ele>
        <time>2010-08-28T12:24:59Z</time>
      </trkpt>
      <trkpt lat="48.89579" lon="7.39805">
        <ele>298.334229</ele>
        <time>2010-08-28T12:25:02Z</time>
      </trkpt>
      <trkpt lat="48.89582" lon="7.3981">
        <ele>297.959229</ele>
        <time>2010-08-28T12:25:04Z</time>
      </trkpt>
      <trkpt lat="48.89586" lon="7.39815">
        <ele>297.162354</ele>
        <time>2010-08-28T12:25:06Z</time>
      </trkpt>
      <trkpt lat="48.89591" lon="7.39817">
        <ele>295.357666</ele>
        <time>2010-08-28T12:25:09Z</time>
      </trkpt>
      <trkpt lat="48.89595" lon="7.39818">
        <ele>295.209229</ele>
        <time>2010-08-28T12:25:16Z</time>
      </trkpt>
      <trkpt lat="48.89594" lon="7.39825">
        <ele>296.693604</ele>
        <time>2010-08-28T12:25:42Z</time>
      </trkpt>
      <trkpt lat="48.89591" lon="7.3982">
        <ele>296.748291</ele>
        <time>2010-08-28T12:27:17Z</time>
      </trkpt>
      <trkpt lat="48.89585" lon="7.39817">
        <ele>297.271729</ele>
        <time>2010-08-28T12:27:29Z</time>
      </trkpt>
      <trkpt lat="48.89581" lon="7.39813">
        <ele>297.662354</ele>
        <time>2010-08-28T12:27:31Z</time>
      </trkpt>
      <trkpt lat="48.89576" lon="7.39806">
        <ele>298.326416</ele>
        <time>2010-08-28T12:27:35Z</time>
      </trkpt>
      <trkpt lat="48.89571" lon="7.39799">
        <ele>298.459229</ele>
        <time>2010-08-28T12:27:38Z</time>
      </trkpt>
      <trkpt lat="48.89566" lon="7.39795">
        <ele>298.404541</ele>
        <time>2010-08-28T12:27:40Z</time>
      </trkpt>
      <trkpt lat="48.89565" lon="7.39789">
        <ele>296.881104</ele>
        <time>2010-08-28T12:27:42Z</time>
      </trkpt>
      <trkpt lat="48.89562" lon="7.39782">
        <ele>296.037354</ele>
        <time>2010-08-28T12:27:44Z</time>
      </trkpt>
      <trkpt lat="48.89558" lon="7.39777">
        <ele>296.084229</ele>
        <time>2010-08-28T12:27:46Z</time>
      </trkpt>
      <trkpt lat="48.89554" lon="7.39774">
        <ele>295.693604</ele>
        <time>2010-08-28T12:27:48Z</time>
      </trkpt>
      <trkpt lat="48.8955" lon="7.39768">
        <ele>295.232666</ele>
        <time>2010-08-28T12:27:50Z</time>
      </trkpt>
      <trkpt lat="48.89548" lon="7.39758">
        <ele>294.084229</ele>
        <time>2010-08-28T12:27:52Z</time>
      </trkpt>
      <trkpt lat="48.89545" lon="7.39749">
        <ele>293.279541</ele>
        <time>2010-08-28T12:27:54Z</time>
      </trkpt>
      <trkpt lat="48.89544" lon="7.39737">
        <ele>292.763916</ele>
        <time>2010-08-28T12:27:56Z</time>
      </trkpt>
      <trkpt lat="48.89541" lon="7.3973">
        <ele>292.552979</ele>
        <time>2010-08-28T12:27:58Z</time>
      </trkpt>
      <trkpt lat="48.89539" lon="7.39723">
        <ele>291.576416</ele>
        <time>2010-08-28T12:28:00Z</time>
      </trkpt>
      <trkpt lat="48.89536" lon="7.39713">
        <ele>290.740479</ele>
        <time>2010-08-28T12:28:02Z</time>
      </trkpt>
      <trkpt lat="48.89534" lon="7.39705">
        <ele>290.451416</ele>
        <time>2010-08-28T12:28:04Z</time>
      </trkpt>
      <trkpt lat="48.8953" lon="7.39696">
        <ele>289.381104</ele>
        <time>2010-08-28T12:28:06Z</time>
      </trkpt>
      <trkpt lat="48.89526" lon="7.39685">
        <ele>288.513916</ele>
        <time>2010-08-28T12:28:08Z</time>
      </trkpt>
      <trkpt lat="48.89522" lon="7.39676">
        <ele>287.045166</ele>
        <time>2010-08-28T12:28:10Z</time>
      </trkpt>
      <trkpt lat="48.89519" lon="7.39669">
        <ele>287.435791</ele>
        <time>2010-08-28T12:28:12Z</time>
      </trkpt>
      <trkpt lat="48.89516" lon="7.39662">
        <ele>286.756104</ele>
        <time>2010-08-28T12:28:14Z</time>
      </trkpt>
      <trkpt lat="48.89511" lon="7.39655">
        <ele>285.904541</ele>
        <time>2010-08-28T12:28:16Z</time>
      </trkpt>
      <trkpt lat="48.89508" lon="7.39649">
        <ele>287.029541</ele>
        <time>2010-08-28T12:28:18Z</time>
      </trkpt>
      <trkpt lat="48.89505" lon="7.39641">
        <ele>286.443604</ele>
        <time>2010-08-28T12:28:20Z</time>
      </trkpt>
      <trkpt lat="48.89504" lon="7.39634">
        <ele>286.834229</ele>
        <time>2010-08-28T12:28:23Z</time>
      </trkpt>
      <trkpt lat="48.89502" lon="7.39627">
        <ele>287.740479</ele>
        <time>2010-08-28T12:28:25Z</time>
      </trkpt>
      <trkpt lat="48.89499" lon="7.39617">
        <ele>287.763916</ele>
        <time>2010-08-28T12:28:27Z</time>
      </trkpt>
      <trkpt lat="48.89494" lon="7.39611">
        <ele>286.927979</ele>
        <time>2010-08-28T12:28:29Z</time>
      </trkpt>
      <trkpt lat="48.89494" lon="7.396">
        <ele>285.396729</ele>
        <time>2010-08-28T12:28:32Z</time>
      </trkpt>
      <trkpt lat="48.89493" lon="7.39592">
        <ele>284.217041</ele>
        <time>2010-08-28T12:28:34Z</time>
      </trkpt>
      <trkpt lat="48.89492" lon="7.39583">
        <ele>283.326416</ele>
        <time>2010-08-28T12:28:37Z</time>
      </trkpt>
      <trkpt lat="48.89492" lon="7.39575">
        <ele>281.873291</ele>
        <time>2010-08-28T12:28:39Z</time>
      </trkpt>
      <trkpt lat="48.89492" lon="7.39566">
        <ele>280.482666</ele>
        <time>2010-08-28T12:28:41Z</time>
      </trkpt>
      <trkpt lat="48.89491" lon="7.39555">
        <ele>279.373291</ele>
        <time>2010-08-28T12:28:43Z</time>
      </trkpt>
      <trkpt lat="48.89492" lon="7.39545">
        <ele>279.787354</ele>
        <time>2010-08-28T12:28:45Z</time>
      </trkpt>
      <trkpt lat="48.89493" lon="7.39538">
        <ele>280.232666</ele>
        <time>2010-08-28T12:28:47Z</time>
      </trkpt>
      <trkpt lat="48.89493" lon="7.39529">
        <ele>280.959229</ele>
        <time>2010-08-28T12:28:50Z</time>
      </trkpt>
      <trkpt lat="48.89493" lon="7.39521">
        <ele>280.967041</ele>
        <time>2010-08-28T12:28:53Z</time>
      </trkpt>
      <trkpt lat="48.89494" lon="7.39513">
        <ele>280.521729</ele>
        <time>2010-08-28T12:28:55Z</time>
      </trkpt>
      <trkpt lat="48.89495" lon="7.39505">
        <ele>280.123291</ele>
        <time>2010-08-28T12:28:57Z</time>
      </trkpt>
      <trkpt lat="48.89493" lon="7.39498">
        <ele>280.592041</ele>
        <time>2010-08-28T12:28:59Z</time>
      </trkpt>
      <trkpt lat="48.89492" lon="7.39488">
        <ele>280.482666</ele>
        <time>2010-08-28T12:29:01Z</time>
      </trkpt>
      <trkpt lat="48.89493" lon="7.3948">
        <ele>279.529541</ele>
        <time>2010-08-28T12:29:03Z</time>
      </trkpt>
      <trkpt lat="48.89492" lon="7.39473">
        <ele>278.631104</ele>
        <time>2010-08-28T12:29:05Z</time>
      </trkpt>
      <trkpt lat="48.89494" lon="7.39466">
        <ele>276.006104</ele>
        <time>2010-08-28T12:29:07Z</time>
      </trkpt>
      <trkpt lat="48.89496" lon="7.39454">
        <ele>273.552979</ele>
        <time>2010-08-28T12:29:09Z</time>
      </trkpt>
      <trkpt lat="48.89497" lon="7.39447">
        <ele>272.427979</ele>
        <time>2010-08-28T12:29:11Z</time>
      </trkpt>
      <trkpt lat="48.89497" lon="7.39436">
        <ele>272.521729</ele>
        <time>2010-08-28T12:29:13Z</time>
      </trkpt>
      <trkpt lat="48.89497" lon="7.39429">
        <ele>272.045166</ele>
        <time>2010-08-28T12:29:16Z</time>
      </trkpt>
      <trkpt lat="48.89497" lon="7.39422">
        <ele>270.787354</ele>
        <time>2010-08-28T12:29:18Z</time>
      </trkpt>
      <trkpt lat="48.89498" lon="7.39412">
        <ele>271.006104</ele>
        <time>2010-08-28T12:29:21Z</time>
      </trkpt>
      <trkpt lat="48.89498" lon="7.39402">
        <ele>271.084229</ele>
        <time>2010-08-28T12:29:24Z</time>
      </trkpt>
      <trkpt lat="48.89498" lon="7.39394">
        <ele>270.795166</ele>
        <time>2010-08-28T12:29:26Z</time>
      </trkpt>
      <trkpt lat="48.895" lon="7.39387">
        <ele>271.287354</ele>
        <time>2010-08-28T12:29:29Z</time>
      </trkpt>
      <trkpt lat="48.89501" lon="7.39381">
        <ele>272.717041</ele>
        <time>2010-08-28T12:29:31Z</time>
      </trkpt>
      <trkpt lat="48.89505" lon="7.39374">
        <ele>271.849854</ele>
        <time>2010-08-28T12:29:34Z</time>
      </trkpt>
      <trkpt lat="48.8951" lon="7.3937">
        <ele>272.209229</ele>
        <time>2010-08-28T12:29:36Z</time>
      </trkpt>
      <trkpt lat="48.89514" lon="7.39366">
        <ele>271.717041</ele>
        <time>2010-08-28T12:29:38Z</time>
      </trkpt>
      <trkpt lat="48.89523" lon="7.39363">
        <ele>270.615479</ele>
        <time>2010-08-28T12:29:41Z</time>
      </trkpt>
      <trkpt lat="48.89525" lon="7.39356">
        <ele>269.295166</ele>
        <time>2010-08-28T12:29:43Z</time>
      </trkpt>
      <trkpt lat="48.89528" lon="7.3935">
        <ele>268.756104</ele>
        <time>2010-08-28T12:29:48Z</time>
      </trkpt>
      <trkpt lat="48.89532" lon="7.39348">
        <ele>270.123291</ele>
        <time>2010-08-28T12:30:00Z</time>
      </trkpt>
      <trkpt lat="48.89533" lon="7.39341">
        <ele>270.927979</ele>
        <time>2010-08-28T12:30:14Z</time>
      </trkpt>
      <trkpt lat="48.8953" lon="7.39333">
        <ele>271.388916</ele>
        <time>2010-08-28T12:30:25Z</time>
      </trkpt>
      <trkpt lat="48.89529" lon="7.39326">
        <ele>271.287354</ele>
        <time>2010-08-28T12:30:27Z</time>
      </trkpt>
      <trkpt lat="48.89527" lon="7.39318">
        <ele>271.396729</ele>
        <time>2010-08-28T12:30:29Z</time>
      </trkpt>
      <trkpt lat="48.89523" lon="7.3932">
        <ele>269.912354</ele>
        <time>2010-08-28T12:30:32Z</time>
      </trkpt>
      <trkpt lat="48.89518" lon="7.39324">
        <ele>268.498291</ele>
        <time>2010-08-28T12:30:35Z</time>
      </trkpt>
      <trkpt lat="48.89514" lon="7.39326">
        <ele>268.287354</ele>
        <time>2010-08-28T12:31:06Z</time>
      </trkpt>
      <trkpt lat="48.89508" lon="7.39327">
        <ele>265.654541</ele>
        <time>2010-08-28T12:31:09Z</time>
      </trkpt>
      <trkpt lat="48.89505" lon="7.3933">
        <ele>261.951416</ele>
        <time>2010-08-28T12:31:12Z</time>
      </trkpt>
      <trkpt lat="48.89501" lon="7.39333">
        <ele>262.677979</ele>
        <time>2010-08-28T12:31:19Z</time>
      </trkpt>
      <trkpt lat="48.89496" lon="7.39333">
        <ele>260.052979</ele>
        <time>2010-08-28T12:31:50Z</time>
      </trkpt>
      <trkpt lat="48.89492" lon="7.39336">
        <ele>262.263916</ele>
        <time>2010-08-28T12:31:56Z</time>
      </trkpt>
      <trkpt lat="48.89487" lon="7.39338">
        <ele>263.334229</ele>
        <time>2010-08-28T12:32:03Z</time>
      </trkpt>
      <trkpt lat="48.89492" lon="7.39339">
        <ele>263.701416</ele>
        <time>2010-08-28T12:32:07Z</time>
      </trkpt>
      <trkpt lat="48.89489" lon="7.39342">
        <ele>261.037354</ele>
        <time>2010-08-28T12:32:25Z</time>
      </trkpt>
      <trkpt lat="48.89483" lon="7.39343">
        <ele>259.818604</ele>
        <time>2010-08-28T12:32:29Z</time>
      </trkpt>
      <trkpt lat="48.89479" lon="7.39346">
        <ele>259.388916</ele>
        <time>2010-08-28T12:32:32Z</time>
      </trkpt>
      <trkpt lat="48.89475" lon="7.3935">
        <ele>258.529541</ele>
        <time>2010-08-28T12:32:35Z</time>
      </trkpt>
      <trkpt lat="48.8947" lon="7.39354">
        <ele>258.271729</ele>
        <time>2010-08-28T12:32:38Z</time>
      </trkpt>
      <trkpt lat="48.89464" lon="7.39355">
        <ele>257.771729</ele>
        <time>2010-08-28T12:32:40Z</time>
      </trkpt>
      <trkpt lat="48.89459" lon="7.39358">
        <ele>257.131104</ele>
        <time>2010-08-28T12:32:43Z</time>
      </trkpt>
      <trkpt lat="48.89454" lon="7.3936">
        <ele>256.787354</ele>
        <time>2010-08-28T12:32:45Z</time>
      </trkpt>
      <trkpt lat="48.89448" lon="7.3936">
        <ele>256.802979</ele>
        <time>2010-08-28T12:32:47Z</time>
      </trkpt>
      <trkpt lat="48.89443" lon="7.39365">
        <ele>256.568604</ele>
        <time>2010-08-28T12:32:49Z</time>
      </trkpt>
      <trkpt lat="48.89441" lon="7.39372">
        <ele>256.240479</ele>
        <time>2010-08-28T12:32:51Z</time>
      </trkpt>
      <trkpt lat="48.89437" lon="7.39377">
        <ele>255.608521</ele>
        <time>2010-08-28T12:32:54Z</time>
      </trkpt>
      <trkpt lat="48.89432" lon="7.39381">
        <ele>255.667114</ele>
        <time>2010-08-28T12:32:57Z</time>
      </trkpt>
      <trkpt lat="48.89427" lon="7.39384">
        <ele>255.260864</ele>
        <time>2010-08-28T12:32:59Z</time>
      </trkpt>
      <trkpt lat="48.89422" lon="7.39384">
        <ele>255.323364</ele>
        <time>2010-08-28T12:33:02Z</time>
      </trkpt>
      <trkpt lat="48.89417" lon="7.39388">
        <ele>256.076416</ele>
        <time>2010-08-28T12:33:06Z</time>
      </trkpt>
      <trkpt lat="48.89412" lon="7.3939">
        <ele>257.279541</ele>
        <time>2010-08-28T12:33:12Z</time>
      </trkpt>
      <trkpt lat="48.89407" lon="7.39393">
        <ele>258.193604</ele>
        <time>2010-08-28T12:33:15Z</time>
      </trkpt>
      <trkpt lat="48.89402" lon="7.39397">
        <ele>258.482666</ele>
        <time>2010-08-28T12:33:17Z</time>
      </trkpt>
      <trkpt lat="48.89398" lon="7.39402">
        <ele>259.334229</ele>
        <time>2010-08-28T12:33:19Z</time>
      </trkpt>
      <trkpt lat="48.89393" lon="7.39402">
        <ele>259.873291</ele>
        <time>2010-08-28T12:33:21Z</time>
      </trkpt>
      <trkpt lat="48.89388" lon="7.39406">
        <ele>261.021729</ele>
        <time>2010-08-28T12:33:25Z</time>
      </trkpt>
      <trkpt lat="48.89381" lon="7.39407">
        <ele>261.435791</ele>
        <time>2010-08-28T12:33:28Z</time>
      </trkpt>
      <trkpt lat="48.89376" lon="7.39407">
        <ele>261.529541</ele>
        <time>2010-08-28T12:33:29Z</time>
      </trkpt>
      <trkpt lat="48.8937" lon="7.39408">
        <ele>262.318604</ele>
        <time>2010-08-28T12:33:32Z</time>
      </trkpt>
      <trkpt lat="48.89364" lon="7.39408">
        <ele>263.263916</ele>
        <time>2010-08-28T12:33:35Z</time>
      </trkpt>
      <trkpt lat="48.89359" lon="7.39403">
        <ele>263.232666</ele>
        <time>2010-08-28T12:33:37Z</time>
      </trkpt>
      <trkpt lat="48.89354" lon="7.39402">
        <ele>263.404541</ele>
        <time>2010-08-28T12:33:40Z</time>
      </trkpt>
      <trkpt lat="48.89348" lon="7.39403">
        <ele>264.818604</ele>
        <time>2010-08-28T12:33:42Z</time>
      </trkpt>
      <trkpt lat="48.89343" lon="7.39402">
        <ele>264.771729</ele>
        <time>2010-08-28T12:33:44Z</time>
      </trkpt>
      <trkpt lat="48.89338" lon="7.39401">
        <ele>263.779541</ele>
        <time>2010-08-28T12:33:46Z</time>
      </trkpt>
      <trkpt lat="48.89332" lon="7.39397">
        <ele>261.834229</ele>
        <time>2010-08-28T12:33:49Z</time>
      </trkpt>
      <trkpt lat="48.89327" lon="7.39393">
        <ele>261.240479</ele>
        <time>2010-08-28T12:33:52Z</time>
      </trkpt>
      <trkpt lat="48.89323" lon="7.39388">
        <ele>260.857666</ele>
        <time>2010-08-28T12:33:54Z</time>
      </trkpt>
      <trkpt lat="48.89319" lon="7.39385">
        <ele>262.256104</ele>
        <time>2010-08-28T12:33:56Z</time>
      </trkpt>
      <trkpt lat="48.8932" lon="7.39379">
        <ele>265.318604</ele>
        <time>2010-08-28T12:34:05Z</time>
      </trkpt>
      <trkpt lat="48.89315" lon="7.39381">
        <ele>264.474854</ele>
        <time>2010-08-28T12:34:09Z</time>
      </trkpt>
      <trkpt lat="48.8931" lon="7.3938">
        <ele>263.990479</ele>
        <time>2010-08-28T12:34:12Z</time>
      </trkpt>
      <trkpt lat="48.89304" lon="7.39377">
        <ele>263.763916</ele>
        <time>2010-08-28T12:34:14Z</time>
      </trkpt>
      <trkpt lat="48.89298" lon="7.39375">
        <ele>263.388916</ele>
        <time>2010-08-28T12:34:16Z</time>
      </trkpt>
      <trkpt lat="48.89294" lon="7.39371">
        <ele>262.763916</ele>
        <time>2010-08-28T12:34:18Z</time>
      </trkpt>
      <trkpt lat="48.89289" lon="7.39369">
        <ele>262.162354</ele>
        <time>2010-08-28T12:34:20Z</time>
      </trkpt>
      <trkpt lat="48.89286" lon="7.39363">
        <ele>260.888916</ele>
        <time>2010-08-28T12:34:22Z</time>
      </trkpt>
      <trkpt lat="48.89282" lon="7.39358">
        <ele>260.201416</ele>
        <time>2010-08-28T12:34:24Z</time>
      </trkpt>
      <trkpt lat="48.89279" lon="7.39353">
        <ele>259.607666</ele>
        <time>2010-08-28T12:34:26Z</time>
      </trkpt>
      <trkpt lat="48.89274" lon="7.39346">
        <ele>258.802979</ele>
        <time>2010-08-28T12:34:28Z</time>
      </trkpt>
      <trkpt lat="48.8927" lon="7.39339">
        <ele>258.435791</ele>
        <time>2010-08-28T12:34:30Z</time>
      </trkpt>
      <trkpt lat="48.89265" lon="7.39333">
        <ele>258.552979</ele>
        <time>2010-08-28T12:34:32Z</time>
      </trkpt>
      <trkpt lat="48.8926" lon="7.39326">
        <ele>257.513916</ele>
        <time>2010-08-28T12:34:34Z</time>
      </trkpt>
      <trkpt lat="48.89257" lon="7.3932">
        <ele>255.737427</ele>
        <time>2010-08-28T12:34:35Z</time>
      </trkpt>
      <trkpt lat="48.8925" lon="7.39312">
        <ele>254.233521</ele>
        <time>2010-08-28T12:34:37Z</time>
      </trkpt>
      <trkpt lat="48.89247" lon="7.39303">
        <ele>252.928833</ele>
        <time>2010-08-28T12:34:39Z</time>
      </trkpt>
      <trkpt lat="48.89245" lon="7.39295">
        <ele>251.952271</ele>
        <time>2010-08-28T12:34:41Z</time>
      </trkpt>
      <trkpt lat="48.89243" lon="7.39288">
        <ele>251.874146</ele>
        <time>2010-08-28T12:34:43Z</time>
      </trkpt>
      <trkpt lat="48.89238" lon="7.39283">
        <ele>251.221802</ele>
        <time>2010-08-28T12:34:45Z</time>
      </trkpt>
      <trkpt lat="48.89234" lon="7.39278">
        <ele>250.600708</ele>
        <time>2010-08-28T12:34:47Z</time>
      </trkpt>
      <trkpt lat="48.89229" lon="7.39275">
        <ele>250.385864</ele>
        <time>2010-08-28T12:34:49Z</time>
      </trkpt>
      <trkpt lat="48.89224" lon="7.39273">
        <ele>249.592896</ele>
        <time>2010-08-28T12:34:51Z</time>
      </trkpt>
      <trkpt lat="48.89219" lon="7.39269">
        <ele>249.616333</ele>
        <time>2010-08-28T12:34:53Z</time>
      </trkpt>
      <trkpt lat="48.89215" lon="7.39263">
        <ele>251.393677</ele>
        <time>2010-08-28T12:34:55Z</time>
      </trkpt>
      <trkpt lat="48.8921" lon="7.3926">
        <ele>250.249146</ele>
        <time>2010-08-28T12:34:57Z</time>
      </trkpt>
      <trkpt lat="48.89205" lon="7.39255">
        <ele>250.139771</ele>
        <time>2010-08-28T12:34:59Z</time>
      </trkpt>
      <trkpt lat="48.89201" lon="7.3925">
        <ele>250.112427</ele>
        <time>2010-08-28T12:35:01Z</time>
      </trkpt>
      <trkpt lat="48.89197" lon="7.39245">
        <ele>249.393677</ele>
        <time>2010-08-28T12:35:03Z</time>
      </trkpt>
      <trkpt lat="48.89193" lon="7.3924">
        <ele>249.311646</ele>
        <time>2010-08-28T12:35:05Z</time>
      </trkpt>
      <trkpt lat="48.8919" lon="7.39234">
        <ele>248.749146</ele>
        <time>2010-08-28T12:35:07Z</time>
      </trkpt>
      <trkpt lat="48.89187" lon="7.39226">
        <ele>247.690552</ele>
        <time>2010-08-28T12:35:09Z</time>
      </trkpt>
      <trkpt lat="48.89183" lon="7.3922">
        <ele>247.174927</ele>
        <time>2010-08-28T12:35:11Z</time>
      </trkpt>
      <trkpt lat="48.8918" lon="7.39213">
        <ele>248.014771</ele>
        <time>2010-08-28T12:35:13Z</time>
      </trkpt>
      <trkpt lat="48.89176" lon="7.39207">
        <ele>247.655396</ele>
        <time>2010-08-28T12:35:15Z</time>
      </trkpt>
      <trkpt lat="48.89171" lon="7.39202">
        <ele>247.366333</ele>
        <time>2010-08-28T12:35:17Z</time>
      </trkpt>
      <trkpt lat="48.89166" lon="7.39196">
        <ele>246.604614</ele>
        <time>2010-08-28T12:35:20Z</time>
      </trkpt>
      <trkpt lat="48.89162" lon="7.39193">
        <ele>245.327271</ele>
        <time>2010-08-28T12:35:22Z</time>
      </trkpt>
      <trkpt lat="48.89159" lon="7.39186">
        <ele>244.530396</ele>
        <time>2010-08-28T12:35:24Z</time>
      </trkpt>
      <trkpt lat="48.89156" lon="7.3918">
        <ele>243.096802</ele>
        <time>2010-08-28T12:35:26Z</time>
      </trkpt>
      <trkpt lat="48.89152" lon="7.39176">
        <ele>241.296021</ele>
        <time>2010-08-28T12:35:28Z</time>
      </trkpt>
      <trkpt lat="48.89148" lon="7.3917">
        <ele>241.671021</ele>
        <time>2010-08-28T12:35:30Z</time>
      </trkpt>
      <trkpt lat="48.89143" lon="7.39165">
        <ele>241.053833</ele>
        <time>2010-08-28T12:35:32Z</time>
      </trkpt>
      <trkpt lat="48.89139" lon="7.39159">
        <ele>240.831177</ele>
        <time>2010-08-28T12:35:34Z</time>
      </trkpt>
      <trkpt lat="48.89136" lon="7.39155">
        <ele>241.096802</ele>
        <time>2010-08-28T12:35:36Z</time>
      </trkpt>
      <trkpt lat="48.89131" lon="7.39149">
        <ele>241.120239</ele>
        <time>2010-08-28T12:35:38Z</time>
      </trkpt>
      <trkpt lat="48.89127" lon="7.39142">
        <ele>240.921021</ele>
        <time>2010-08-28T12:35:40Z</time>
      </trkpt>
      <trkpt lat="48.89125" lon="7.39135">
        <ele>238.499146</ele>
        <time>2010-08-28T12:35:42Z</time>
      </trkpt>
      <trkpt lat="48.89121" lon="7.39129">
        <ele>238.026489</ele>
        <time>2010-08-28T12:35:44Z</time>
      </trkpt>
      <trkpt lat="48.89118" lon="7.39122">
        <ele>236.549927</ele>
        <time>2010-08-28T12:35:46Z</time>
      </trkpt>
      <trkpt lat="48.89116" lon="7.39114">
        <ele>235.315552</ele>
        <time>2010-08-28T12:35:48Z</time>
      </trkpt>
      <trkpt lat="48.89112" lon="7.39105">
        <ele>237.213989</ele>
        <time>2010-08-28T12:35:50Z</time>
      </trkpt>
      <trkpt lat="48.89109" lon="7.39094">
        <ele>236.753052</ele>
        <time>2010-08-28T12:35:52Z</time>
      </trkpt>
      <trkpt lat="48.89107" lon="7.39086">
        <ele>235.495239</ele>
        <time>2010-08-28T12:35:54Z</time>
      </trkpt>
      <trkpt lat="48.89105" lon="7.39079">
        <ele>234.217896</ele>
        <time>2010-08-28T12:35:56Z</time>
      </trkpt>
      <trkpt lat="48.89103" lon="7.39072">
        <ele>233.542114</ele>
        <time>2010-08-28T12:35:58Z</time>
      </trkpt>
      <trkpt lat="48.89101" lon="7.39064">
        <ele>232.405396</ele>
        <time>2010-08-28T12:36:00Z</time>
      </trkpt>
      <trkpt lat="48.89099" lon="7.39056">
        <ele>233.182739</ele>
        <time>2010-08-28T12:36:02Z</time>
      </trkpt>
      <trkpt lat="48.89098" lon="7.39049">
        <ele>232.612427</ele>
        <time>2010-08-28T12:36:04Z</time>
      </trkpt>
      <trkpt lat="48.89097" lon="7.39041">
        <ele>232.956177</ele>
        <time>2010-08-28T12:36:06Z</time>
      </trkpt>
      <trkpt lat="48.89096" lon="7.39034">
        <ele>233.588989</ele>
        <time>2010-08-28T12:36:08Z</time>
      </trkpt>
      <trkpt lat="48.89093" lon="7.39025">
        <ele>233.659302</ele>
        <time>2010-08-28T12:36:11Z</time>
      </trkpt>
      <trkpt lat="48.89092" lon="7.39016">
        <ele>232.979614</ele>
        <time>2010-08-28T12:36:13Z</time>
      </trkpt>
      <trkpt lat="48.89092" lon="7.39007">
        <ele>231.948364</ele>
        <time>2010-08-28T12:36:15Z</time>
      </trkpt>
      <trkpt lat="48.89091" lon="7.38998">
        <ele>230.010864</ele>
        <time>2010-08-28T12:36:17Z</time>
      </trkpt>
      <trkpt lat="48.89089" lon="7.38988">
        <ele>229.073364</ele>
        <time>2010-08-28T12:36:19Z</time>
      </trkpt>
      <trkpt lat="48.89087" lon="7.38978">
        <ele>229.296021</ele>
        <time>2010-08-28T12:36:21Z</time>
      </trkpt>
      <trkpt lat="48.89085" lon="7.38968">
        <ele>228.456177</ele>
        <time>2010-08-28T12:36:23Z</time>
      </trkpt>
      <trkpt lat="48.89084" lon="7.38957">
        <ele>227.940552</ele>
        <time>2010-08-28T12:36:25Z</time>
      </trkpt>
      <trkpt lat="48.89082" lon="7.38946">
        <ele>227.581177</ele>
        <time>2010-08-28T12:36:27Z</time>
      </trkpt>
      <trkpt lat="48.8908" lon="7.38939">
        <ele>225.706177</ele>
        <time>2010-08-28T12:36:29Z</time>
      </trkpt>
      <trkpt lat="48.89079" lon="7.3893">
        <ele>225.401489</ele>
        <time>2010-08-28T12:36:31Z</time>
      </trkpt>
      <trkpt lat="48.89076" lon="7.38921">
        <ele>225.905396</ele>
        <time>2010-08-28T12:36:33Z</time>
      </trkpt>
      <trkpt lat="48.89074" lon="7.38912">
        <ele>226.432739</ele>
        <time>2010-08-28T12:36:35Z</time>
      </trkpt>
      <trkpt lat="48.89072" lon="7.38905">
        <ele>226.354614</ele>
        <time>2010-08-28T12:36:37Z</time>
      </trkpt>
      <trkpt lat="48.8907" lon="7.38898">
        <ele>227.174927</ele>
        <time>2010-08-28T12:36:39Z</time>
      </trkpt>
      <trkpt lat="48.89068" lon="7.38892">
        <ele>228.319458</ele>
        <time>2010-08-28T12:36:40Z</time>
      </trkpt>
      <trkpt lat="48.89063" lon="7.38884">
        <ele>230.194458</ele>
        <time>2010-08-28T12:36:42Z</time>
      </trkpt>
      <trkpt lat="48.89057" lon="7.38877">
        <ele>228.299927</ele>
        <time>2010-08-28T12:36:44Z</time>
      </trkpt>
      <trkpt lat="48.89053" lon="7.38872">
        <ele>226.674927</ele>
        <time>2010-08-28T12:36:45Z</time>
      </trkpt>
      <trkpt lat="48.8905" lon="7.38869">
        <ele>227.991333</ele>
        <time>2010-08-28T12:36:47Z</time>
      </trkpt>
      <trkpt lat="48.89045" lon="7.38865">
        <ele>228.362427</ele>
        <time>2010-08-28T12:36:49Z</time>
      </trkpt>
      <trkpt lat="48.89041" lon="7.3886">
        <ele>227.307739</ele>
        <time>2010-08-28T12:36:51Z</time>
      </trkpt>
      <trkpt lat="48.89034" lon="7.38852">
        <ele>226.092896</ele>
        <time>2010-08-28T12:36:53Z</time>
      </trkpt>
      <trkpt lat="48.89028" lon="7.38847">
        <ele>225.788208</ele>
        <time>2010-08-28T12:36:55Z</time>
      </trkpt>
      <trkpt lat="48.89022" lon="7.38843">
        <ele>226.530396</ele>
        <time>2010-08-28T12:36:57Z</time>
      </trkpt>
      <trkpt lat="48.89018" lon="7.3884">
        <ele>225.588989</ele>
        <time>2010-08-28T12:36:59Z</time>
      </trkpt>
      <trkpt lat="48.89013" lon="7.38834">
        <ele>225.167114</ele>
        <time>2010-08-28T12:37:02Z</time>
      </trkpt>
      <trkpt lat="48.89008" lon="7.38829">
        <ele>224.342896</ele>
        <time>2010-08-28T12:37:04Z</time>
      </trkpt>
      <trkpt lat="48.89004" lon="7.38825">
        <ele>224.424927</ele>
        <time>2010-08-28T12:37:06Z</time>
      </trkpt>
      <trkpt lat="48.89" lon="7.38822">
        <ele>223.717896</ele>
        <time>2010-08-28T12:37:08Z</time>
      </trkpt>
      <trkpt lat="48.88995" lon="7.38816">
        <ele>221.792114</ele>
        <time>2010-08-28T12:37:11Z</time>
      </trkpt>
      <trkpt lat="48.8899" lon="7.38812">
        <ele>223.549927</ele>
        <time>2010-08-28T12:37:14Z</time>
      </trkpt>
      <trkpt lat="48.88985" lon="7.3881">
        <ele>223.756958</ele>
        <time>2010-08-28T12:37:17Z</time>
      </trkpt>
      <trkpt lat="48.88978" lon="7.38806">
        <ele>223.608521</ele>
        <time>2010-08-28T12:37:20Z</time>
      </trkpt>
      <trkpt lat="48.88973" lon="7.38801">
        <ele>222.917114</ele>
        <time>2010-08-28T12:37:22Z</time>
      </trkpt>
      <trkpt lat="48.88966" lon="7.38796">
        <ele>222.971802</ele>
        <time>2010-08-28T12:37:24Z</time>
      </trkpt>
      <trkpt lat="48.88961" lon="7.38792">
        <ele>222.073364</ele>
        <time>2010-08-28T12:37:26Z</time>
      </trkpt>
      <trkpt lat="48.88955" lon="7.38789">
        <ele>221.460083</ele>
        <time>2010-08-28T12:37:28Z</time>
      </trkpt>
      <trkpt lat="48.88951" lon="7.38783">
        <ele>222.112427</ele>
        <time>2010-08-28T12:37:30Z</time>
      </trkpt>
      <trkpt lat="48.88946" lon="7.38779">
        <ele>221.881958</ele>
        <time>2010-08-28T12:37:32Z</time>
      </trkpt>
      <trkpt lat="48.88941" lon="7.38777">
        <ele>222.003052</ele>
        <time>2010-08-28T12:37:34Z</time>
      </trkpt>
      <trkpt lat="48.88935" lon="7.38777">
        <ele>221.717896</ele>
        <time>2010-08-28T12:37:36Z</time>
      </trkpt>
      <trkpt lat="48.88928" lon="7.38776">
        <ele>221.803833</ele>
        <time>2010-08-28T12:37:38Z</time>
      </trkpt>
      <trkpt lat="48.88921" lon="7.38777">
        <ele>221.370239</ele>
        <time>2010-08-28T12:37:40Z</time>
      </trkpt>
      <trkpt lat="48.88914" lon="7.3878">
        <ele>222.311646</ele>
        <time>2010-08-28T12:37:42Z</time>
      </trkpt>
      <trkpt lat="48.88906" lon="7.38786">
        <ele>222.350708</ele>
        <time>2010-08-28T12:37:44Z</time>
      </trkpt>
      <trkpt lat="48.88901" lon="7.38788">
        <ele>222.319458</ele>
        <time>2010-08-28T12:37:45Z</time>
      </trkpt>
      <trkpt lat="48.88897" lon="7.38791">
        <ele>222.674927</ele>
        <time>2010-08-28T12:37:46Z</time>
      </trkpt>
      <trkpt lat="48.88887" lon="7.38792">
        <ele>223.092896</ele>
        <time>2010-08-28T12:37:48Z</time>
      </trkpt>
      <trkpt lat="48.8888" lon="7.38792">
        <ele>224.260864</ele>
        <time>2010-08-28T12:37:50Z</time>
      </trkpt>
      <trkpt lat="48.88874" lon="7.38792">
        <ele>225.413208</ele>
        <time>2010-08-28T12:37:52Z</time>
      </trkpt>
      <trkpt lat="48.8887" lon="7.38794">
        <ele>226.022583</ele>
        <time>2010-08-28T12:37:54Z</time>
      </trkpt>
      <trkpt lat="48.88863" lon="7.38795">
        <ele>225.963989</ele>
        <time>2010-08-28T12:37:57Z</time>
      </trkpt>
      <trkpt lat="48.88858" lon="7.38798">
        <ele>228.053833</ele>
        <time>2010-08-28T12:38:00Z</time>
      </trkpt>
      <trkpt lat="48.88854" lon="7.388">
        <ele>228.546021</ele>
        <time>2010-08-28T12:38:03Z</time>
      </trkpt>
      <trkpt lat="48.88849" lon="7.38801">
        <ele>229.534302</ele>
        <time>2010-08-28T12:38:08Z</time>
      </trkpt>
      <trkpt lat="48.88844" lon="7.38801">
        <ele>228.893677</ele>
        <time>2010-08-28T12:38:14Z</time>
      </trkpt>
      <trkpt lat="48.88839" lon="7.38801">
        <ele>228.104614</ele>
        <time>2010-08-28T12:38:20Z</time>
      </trkpt>
      <trkpt lat="48.88834" lon="7.38803">
        <ele>228.741333</ele>
        <time>2010-08-28T12:38:23Z</time>
      </trkpt>
      <trkpt lat="48.88829" lon="7.388">
        <ele>229.276489</ele>
        <time>2010-08-28T12:38:27Z</time>
      </trkpt>
      <trkpt lat="48.88824" lon="7.388">
        <ele>228.885864</ele>
        <time>2010-08-28T12:38:31Z</time>
      </trkpt>
      <trkpt lat="48.88819" lon="7.38796">
        <ele>228.624146</ele>
        <time>2010-08-28T12:38:36Z</time>
      </trkpt>
      <trkpt lat="48.88815" lon="7.38793">
        <ele>227.639771</ele>
        <time>2010-08-28T12:38:39Z</time>
      </trkpt>
      <trkpt lat="48.88811" lon="7.3879">
        <ele>227.850708</ele>
        <time>2010-08-28T12:38:43Z</time>
      </trkpt>
      <trkpt lat="48.88806" lon="7.3879">
        <ele>229.573364</ele>
        <time>2010-08-28T12:38:47Z</time>
      </trkpt>
      <trkpt lat="48.88802" lon="7.38788">
        <ele>231.760864</ele>
        <time>2010-08-28T12:39:03Z</time>
      </trkpt>
      <trkpt lat="48.88799" lon="7.38783">
        <ele>232.487427</ele>
        <time>2010-08-28T12:39:47Z</time>
      </trkpt>
      <trkpt lat="48.88796" lon="7.38778">
        <ele>233.128052</ele>
        <time>2010-08-28T12:39:51Z</time>
      </trkpt>
      <trkpt lat="48.88792" lon="7.38772">
        <ele>233.561646</ele>
        <time>2010-08-28T12:39:55Z</time>
      </trkpt>
      <trkpt lat="48.88788" lon="7.38769">
        <ele>234.667114</ele>
        <time>2010-08-28T12:39:59Z</time>
      </trkpt>
      <trkpt lat="48.88783" lon="7.38764">
        <ele>234.639771</ele>
        <time>2010-08-28T12:40:03Z</time>
      </trkpt>
      <trkpt lat="48.8878" lon="7.38757">
        <ele>233.307739</ele>
        <time>2010-08-28T12:40:05Z</time>
      </trkpt>
      <trkpt lat="48.88775" lon="7.38752">
        <ele>232.975708</ele>
        <time>2010-08-28T12:40:08Z</time>
      </trkpt>
      <trkpt lat="48.8877" lon="7.38746">
        <ele>232.128052</ele>
        <time>2010-08-28T12:40:11Z</time>
      </trkpt>
      <trkpt lat="48.88765" lon="7.38739">
        <ele>231.745239</ele>
        <time>2010-08-28T12:40:14Z</time>
      </trkpt>
      <trkpt lat="48.88761" lon="7.38735">
        <ele>232.854614</ele>
        <time>2010-08-28T12:40:17Z</time>
      </trkpt>
      <trkpt lat="48.88757" lon="7.38731">
        <ele>232.858521</ele>
        <time>2010-08-28T12:40:20Z</time>
      </trkpt>
      <trkpt lat="48.88754" lon="7.38725">
        <ele>233.163208</ele>
        <time>2010-08-28T12:40:22Z</time>
      </trkpt>
      <trkpt lat="48.8875" lon="7.3872">
        <ele>233.049927</ele>
        <time>2010-08-28T12:40:24Z</time>
      </trkpt>
      <trkpt lat="48.88746" lon="7.38715">
        <ele>233.010864</ele>
        <time>2010-08-28T12:40:26Z</time>
      </trkpt>
      <trkpt lat="48.88742" lon="7.38711">
        <ele>233.428833</ele>
        <time>2010-08-28T12:40:28Z</time>
      </trkpt>
      <trkpt lat="48.88738" lon="7.38705">
        <ele>232.948364</ele>
        <time>2010-08-28T12:40:30Z</time>
      </trkpt>
      <trkpt lat="48.88733" lon="7.387">
        <ele>232.014771</ele>
        <time>2010-08-28T12:40:32Z</time>
      </trkpt>
      <trkpt lat="48.88728" lon="7.38695">
        <ele>231.538208</ele>
        <time>2010-08-28T12:40:34Z</time>
      </trkpt>
      <trkpt lat="48.88722" lon="7.38689">
        <ele>231.874146</ele>
        <time>2010-08-28T12:40:36Z</time>
      </trkpt>
      <trkpt lat="48.88716" lon="7.38686">
        <ele>231.596802</ele>
        <time>2010-08-28T12:40:38Z</time>
      </trkpt>
      <trkpt lat="48.88711" lon="7.38684">
        <ele>231.444458</ele>
        <time>2010-08-28T12:40:40Z</time>
      </trkpt>
      <trkpt lat="48.88706" lon="7.3868">
        <ele>231.065552</ele>
        <time>2010-08-28T12:40:42Z</time>
      </trkpt>
      <trkpt lat="48.88702" lon="7.38674">
        <ele>231.549927</ele>
        <time>2010-08-28T12:40:44Z</time>
      </trkpt>
      <trkpt lat="48.88697" lon="7.3867">
        <ele>231.717896</ele>
        <time>2010-08-28T12:40:46Z</time>
      </trkpt>
      <trkpt lat="48.88693" lon="7.38665">
        <ele>231.698364</ele>
        <time>2010-08-28T12:40:48Z</time>
      </trkpt>
      <trkpt lat="48.88688" lon="7.3866">
        <ele>231.444458</ele>
        <time>2010-08-28T12:40:50Z</time>
      </trkpt>
      <trkpt lat="48.88685" lon="7.38654">
        <ele>229.999146</ele>
        <time>2010-08-28T12:40:52Z</time>
      </trkpt>
      <trkpt lat="48.88681" lon="7.38652">
        <ele>227.702271</ele>
        <time>2010-08-28T12:40:54Z</time>
      </trkpt>
      <trkpt lat="48.88677" lon="7.38645">
        <ele>225.807739</ele>
        <time>2010-08-28T12:40:56Z</time>
      </trkpt>
      <trkpt lat="48.88674" lon="7.38639">
        <ele>223.249146</ele>
        <time>2010-08-28T12:40:58Z</time>
      </trkpt>
      <trkpt lat="48.8867" lon="7.38634">
        <ele>222.862427</ele>
        <time>2010-08-28T12:41:00Z</time>
      </trkpt>
      <trkpt lat="48.88665" lon="7.38631">
        <ele>223.518677</ele>
        <time>2010-08-28T12:41:02Z</time>
      </trkpt>
      <trkpt lat="48.88659" lon="7.38625">
        <ele>223.143677</ele>
        <time>2010-08-28T12:41:05Z</time>
      </trkpt>
      <trkpt lat="48.88656" lon="7.38622">
        <ele>223.253052</ele>
        <time>2010-08-28T12:41:07Z</time>
      </trkpt>
      <trkpt lat="48.88651" lon="7.38618">
        <ele>222.206177</ele>
        <time>2010-08-28T12:41:09Z</time>
      </trkpt>
      <trkpt lat="48.88647" lon="7.38613">
        <ele>222.053833</ele>
        <time>2010-08-28T12:41:11Z</time>
      </trkpt>
      <trkpt lat="48.88642" lon="7.3861">
        <ele>221.549927</ele>
        <time>2010-08-28T12:41:13Z</time>
      </trkpt>
      <trkpt lat="48.88638" lon="7.38602">
        <ele>221.756958</ele>
        <time>2010-08-28T12:41:15Z</time>
      </trkpt>
      <trkpt lat="48.88632" lon="7.38599">
        <ele>221.596802</ele>
        <time>2010-08-28T12:41:17Z</time>
      </trkpt>
      <trkpt lat="48.88627" lon="7.38596">
        <ele>222.440552</ele>
        <time>2010-08-28T12:41:19Z</time>
      </trkpt>
      <trkpt lat="48.8862" lon="7.38591">
        <ele>222.421021</ele>
        <time>2010-08-28T12:41:21Z</time>
      </trkpt>
      <trkpt lat="48.88615" lon="7.38589">
        <ele>222.760864</ele>
        <time>2010-08-28T12:41:23Z</time>
      </trkpt>
      <trkpt lat="48.88611" lon="7.38585">
        <ele>222.538208</ele>
        <time>2010-08-28T12:41:25Z</time>
      </trkpt>
      <trkpt lat="48.88606" lon="7.3858">
        <ele>221.674927</ele>
        <time>2010-08-28T12:41:27Z</time>
      </trkpt>
      <trkpt lat="48.88601" lon="7.38576">
        <ele>220.526489</ele>
        <time>2010-08-28T12:41:29Z</time>
      </trkpt>
      <trkpt lat="48.88596" lon="7.3857">
        <ele>220.549927</ele>
        <time>2010-08-28T12:41:31Z</time>
      </trkpt>
      <trkpt lat="48.8859" lon="7.38566">
        <ele>225.006958</ele>
        <time>2010-08-28T12:41:33Z</time>
      </trkpt>
      <trkpt lat="48.88585" lon="7.38562">
        <ele>224.366333</ele>
        <time>2010-08-28T12:41:35Z</time>
      </trkpt>
      <trkpt lat="48.88581" lon="7.38559">
        <ele>224.428833</ele>
        <time>2010-08-28T12:41:37Z</time>
      </trkpt>
      <trkpt lat="48.88576" lon="7.38555">
        <ele>226.053833</ele>
        <time>2010-08-28T12:41:39Z</time>
      </trkpt>
      <trkpt lat="48.8857" lon="7.3855">
        <ele>225.913208</ele>
        <time>2010-08-28T12:41:42Z</time>
      </trkpt>
      <trkpt lat="48.88566" lon="7.38546">
        <ele>226.155396</ele>
        <time>2010-08-28T12:41:44Z</time>
      </trkpt>
      <trkpt lat="48.88562" lon="7.38541">
        <ele>226.667114</ele>
        <time>2010-08-28T12:41:46Z</time>
      </trkpt>
      <trkpt lat="48.88557" lon="7.38537">
        <ele>226.245239</ele>
        <time>2010-08-28T12:41:48Z</time>
      </trkpt>
      <trkpt lat="48.88554" lon="7.38531">
        <ele>224.928833</ele>
        <time>2010-08-28T12:41:50Z</time>
      </trkpt>
      <trkpt lat="48.88549" lon="7.38528">
        <ele>225.858521</ele>
        <time>2010-08-28T12:41:52Z</time>
      </trkpt>
      <trkpt lat="48.88545" lon="7.38525">
        <ele>222.397583</ele>
        <time>2010-08-28T12:41:55Z</time>
      </trkpt>
      <trkpt lat="48.88539" lon="7.38523">
        <ele>223.487427</ele>
        <time>2010-08-28T12:41:57Z</time>
      </trkpt>
      <trkpt lat="48.88534" lon="7.3852">
        <ele>224.354614</ele>
        <time>2010-08-28T12:41:59Z</time>
      </trkpt>
      <trkpt lat="48.8853" lon="7.38515">
        <ele>224.112427</ele>
        <time>2010-08-28T12:42:01Z</time>
      </trkpt>
      <trkpt lat="48.88524" lon="7.3851">
        <ele>225.233521</ele>
        <time>2010-08-28T12:42:03Z</time>
      </trkpt>
      <trkpt lat="48.8852" lon="7.38505">
        <ele>225.428833</ele>
        <time>2010-08-28T12:42:05Z</time>
      </trkpt>
      <trkpt lat="48.88516" lon="7.38501">
        <ele>225.327271</ele>
        <time>2010-08-28T12:42:07Z</time>
      </trkpt>
      <trkpt lat="48.88513" lon="7.38492">
        <ele>224.702271</ele>
        <time>2010-08-28T12:42:09Z</time>
      </trkpt>
      <trkpt lat="48.8851" lon="7.38485">
        <ele>224.018677</ele>
        <time>2010-08-28T12:42:11Z</time>
      </trkpt>
      <trkpt lat="48.88506" lon="7.3848">
        <ele>224.178833</ele>
        <time>2010-08-28T12:42:13Z</time>
      </trkpt>
      <trkpt lat="48.88501" lon="7.38476">
        <ele>224.811646</ele>
        <time>2010-08-28T12:42:15Z</time>
      </trkpt>
      <trkpt lat="48.88497" lon="7.38468">
        <ele>224.143677</ele>
        <time>2010-08-28T12:42:18Z</time>
      </trkpt>
      <trkpt lat="48.88491" lon="7.38467">
        <ele>225.256958</ele>
        <time>2010-08-28T12:42:20Z</time>
      </trkpt>
      <trkpt lat="48.88486" lon="7.38462">
        <ele>224.260864</ele>
        <time>2010-08-28T12:42:22Z</time>
      </trkpt>
      <trkpt lat="48.88481" lon="7.38455">
        <ele>224.651489</ele>
        <time>2010-08-28T12:42:24Z</time>
      </trkpt>
      <trkpt lat="48.88476" lon="7.38446">
        <ele>224.151489</ele>
        <time>2010-08-28T12:42:26Z</time>
      </trkpt>
      <trkpt lat="48.88471" lon="7.38441">
        <ele>223.792114</ele>
        <time>2010-08-28T12:42:28Z</time>
      </trkpt>
      <trkpt lat="48.88464" lon="7.38435">
        <ele>224.303833</ele>
        <time>2010-08-28T12:42:30Z</time>
      </trkpt>
      <trkpt lat="48.88459" lon="7.3843">
        <ele>224.096802</ele>
        <time>2010-08-28T12:42:32Z</time>
      </trkpt>
      <trkpt lat="48.88454" lon="7.38421">
        <ele>221.905396</ele>
        <time>2010-08-28T12:42:34Z</time>
      </trkpt>
      <trkpt lat="48.8845" lon="7.38413">
        <ele>222.460083</ele>
        <time>2010-08-28T12:42:36Z</time>
      </trkpt>
      <trkpt lat="48.88445" lon="7.38407">
        <ele>222.893677</ele>
        <time>2010-08-28T12:42:38Z</time>
      </trkpt>
      <trkpt lat="48.88441" lon="7.38401">
        <ele>222.671021</ele>
        <time>2010-08-28T12:42:40Z</time>
      </trkpt>
      <trkpt lat="48.88438" lon="7.38392">
        <ele>220.897583</ele>
        <time>2010-08-28T12:42:42Z</time>
      </trkpt>
      <trkpt lat="48.88434" lon="7.38384">
        <ele>221.100708</ele>
        <time>2010-08-28T12:42:44Z</time>
      </trkpt>
      <trkpt lat="48.8843" lon="7.38376">
        <ele>221.249146</ele>
        <time>2010-08-28T12:42:46Z</time>
      </trkpt>
      <trkpt lat="48.88426" lon="7.38369">
        <ele>220.713989</ele>
        <time>2010-08-28T12:42:48Z</time>
      </trkpt>
      <trkpt lat="48.88424" lon="7.38363">
        <ele>220.241333</ele>
        <time>2010-08-28T12:42:49Z</time>
      </trkpt>
      <trkpt lat="48.88421" lon="7.38351">
        <ele>219.885864</ele>
        <time>2010-08-28T12:42:51Z</time>
      </trkpt>
      <trkpt lat="48.88416" lon="7.38342">
        <ele>219.764771</ele>
        <time>2010-08-28T12:42:53Z</time>
      </trkpt>
      <trkpt lat="48.88412" lon="7.38334">
        <ele>219.206177</ele>
        <time>2010-08-28T12:42:55Z</time>
      </trkpt>
      <trkpt lat="48.88409" lon="7.38326">
        <ele>222.338989</ele>
        <time>2010-08-28T12:42:57Z</time>
      </trkpt>
      <trkpt lat="48.88406" lon="7.38321">
        <ele>221.713989</ele>
        <time>2010-08-28T12:42:59Z</time>
      </trkpt>
      <trkpt lat="48.88402" lon="7.38314">
        <ele>221.823364</ele>
        <time>2010-08-28T12:43:01Z</time>
      </trkpt>
      <trkpt lat="48.88397" lon="7.38308">
        <ele>220.999146</ele>
        <time>2010-08-28T12:43:03Z</time>
      </trkpt>
      <trkpt lat="48.88392" lon="7.38305">
        <ele>220.221802</ele>
        <time>2010-08-28T12:43:05Z</time>
      </trkpt>
      <trkpt lat="48.88387" lon="7.38299">
        <ele>218.893677</ele>
        <time>2010-08-28T12:43:07Z</time>
      </trkpt>
      <trkpt lat="48.88382" lon="7.38292">
        <ele>218.030396</ele>
        <time>2010-08-28T12:43:09Z</time>
      </trkpt>
      <trkpt lat="48.8838" lon="7.38284">
        <ele>216.643677</ele>
        <time>2010-08-28T12:43:11Z</time>
      </trkpt>
      <trkpt lat="48.88376" lon="7.38275">
        <ele>215.905396</ele>
        <time>2010-08-28T12:43:13Z</time>
      </trkpt>
      <trkpt lat="48.88372" lon="7.38269">
        <ele>216.202271</ele>
        <time>2010-08-28T12:43:15Z</time>
      </trkpt>
      <trkpt lat="48.88368" lon="7.38262">
        <ele>215.850708</ele>
        <time>2010-08-28T12:43:18Z</time>
      </trkpt>
      <trkpt lat="48.88363" lon="7.38255">
        <ele>214.952271</ele>
        <time>2010-08-28T12:43:21Z</time>
      </trkpt>
      <trkpt lat="48.88358" lon="7.3825">
        <ele>215.553833</ele>
        <time>2010-08-28T12:43:24Z</time>
      </trkpt>
      <trkpt lat="48.88353" lon="7.38244">
        <ele>215.612427</ele>
        <time>2010-08-28T12:43:27Z</time>
      </trkpt>
      <trkpt lat="48.88349" lon="7.38238">
        <ele>215.284302</ele>
        <time>2010-08-28T12:43:30Z</time>
      </trkpt>
      <trkpt lat="48.88345" lon="7.38235">
        <ele>216.620239</ele>
        <time>2010-08-28T12:43:33Z</time>
      </trkpt>
      <trkpt lat="48.88342" lon="7.38229">
        <ele>217.401489</ele>
        <time>2010-08-28T12:43:37Z</time>
      </trkpt>
      <trkpt lat="48.88338" lon="7.38225">
        <ele>218.635864</ele>
        <time>2010-08-28T12:43:59Z</time>
      </trkpt>
      <trkpt lat="48.88334" lon="7.3822">
        <ele>220.760864</ele>
        <time>2010-08-28T12:44:04Z</time>
      </trkpt>
      <trkpt lat="48.8833" lon="7.38219">
        <ele>220.139771</ele>
        <time>2010-08-28T12:44:09Z</time>
      </trkpt>
      <trkpt lat="48.88327" lon="7.38212">
        <ele>221.506958</ele>
        <time>2010-08-28T12:44:17Z</time>
      </trkpt>
      <trkpt lat="48.88323" lon="7.38207">
        <ele>222.881958</ele>
        <time>2010-08-28T12:44:22Z</time>
      </trkpt>
      <trkpt lat="48.8832" lon="7.38202">
        <ele>223.034302</ele>
        <time>2010-08-28T12:44:28Z</time>
      </trkpt>
      <trkpt lat="48.88315" lon="7.38199">
        <ele>225.038208</ele>
        <time>2010-08-28T12:44:36Z</time>
      </trkpt>
      <trkpt lat="48.88311" lon="7.38195">
        <ele>225.288208</ele>
        <time>2010-08-28T12:44:41Z</time>
      </trkpt>
      <trkpt lat="48.88307" lon="7.3819">
        <ele>225.729614</ele>
        <time>2010-08-28T12:44:43Z</time>
      </trkpt>
      <trkpt lat="48.88304" lon="7.38185">
        <ele>224.803833</ele>
        <time>2010-08-28T12:44:45Z</time>
      </trkpt>
      <trkpt lat="48.883" lon="7.38181">
        <ele>225.647583</ele>
        <time>2010-08-28T12:44:47Z</time>
      </trkpt>
      <trkpt lat="48.88296" lon="7.38175">
        <ele>225.245239</ele>
        <time>2010-08-28T12:44:49Z</time>
      </trkpt>
      <trkpt lat="48.88291" lon="7.3817">
        <ele>225.010864</ele>
        <time>2010-08-28T12:44:51Z</time>
      </trkpt>
      <trkpt lat="48.88287" lon="7.38165">
        <ele>224.319458</ele>
        <time>2010-08-28T12:44:53Z</time>
      </trkpt>
      <trkpt lat="48.88283" lon="7.38162">
        <ele>223.858521</ele>
        <time>2010-08-28T12:44:55Z</time>
      </trkpt>
      <trkpt lat="48.88279" lon="7.38157">
        <ele>223.651489</ele>
        <time>2010-08-28T12:44:57Z</time>
      </trkpt>
      <trkpt lat="48.88276" lon="7.38152">
        <ele>224.803833</ele>
        <time>2010-08-28T12:44:59Z</time>
      </trkpt>
      <trkpt lat="48.88271" lon="7.38145">
        <ele>225.807739</ele>
        <time>2010-08-28T12:45:02Z</time>
      </trkpt>
      <trkpt lat="48.88268" lon="7.38139">
        <ele>226.569458</ele>
        <time>2010-08-28T12:45:04Z</time>
      </trkpt>
      <trkpt lat="48.88264" lon="7.38134">
        <ele>226.620239</ele>
        <time>2010-08-28T12:45:06Z</time>
      </trkpt>
      <trkpt lat="48.8826" lon="7.38128">
        <ele>226.503052</ele>
        <time>2010-08-28T12:45:08Z</time>
      </trkpt>
      <trkpt lat="48.88254" lon="7.38123">
        <ele>225.143677</ele>
        <time>2010-08-28T12:45:10Z</time>
      </trkpt>
      <trkpt lat="48.8825" lon="7.38118">
        <ele>224.405396</ele>
        <time>2010-08-28T12:45:13Z</time>
      </trkpt>
      <trkpt lat="48.88248" lon="7.38112">
        <ele>227.620239</ele>
        <time>2010-08-28T12:45:17Z</time>
      </trkpt>
      <trkpt lat="48.88246" lon="7.38105">
        <ele>232.143677</ele>
        <time>2010-08-28T12:45:20Z</time>
      </trkpt>
      <trkpt lat="48.88243" lon="7.38105">
        <ele>236.296021</ele>
        <time>2010-08-28T12:46:08Z</time>
      </trkpt>
      <trkpt lat="48.88239" lon="7.38101">
        <ele>236.120239</ele>
        <time>2010-08-28T12:46:16Z</time>
      </trkpt>
      <trkpt lat="48.88237" lon="7.38094">
        <ele>236.104614</ele>
        <time>2010-08-28T12:46:18Z</time>
      </trkpt>
      <trkpt lat="48.88234" lon="7.38087">
        <ele>236.663208</ele>
        <time>2010-08-28T12:46:20Z</time>
      </trkpt>
      <trkpt lat="48.8823" lon="7.38082">
        <ele>237.753052</ele>
        <time>2010-08-28T12:46:22Z</time>
      </trkpt>
      <trkpt lat="48.88226" lon="7.38074">
        <ele>238.417114</ele>
        <time>2010-08-28T12:46:24Z</time>
      </trkpt>
      <trkpt lat="48.88224" lon="7.38067">
        <ele>238.760864</ele>
        <time>2010-08-28T12:46:26Z</time>
      </trkpt>
      <trkpt lat="48.88221" lon="7.3806">
        <ele>239.331177</ele>
        <time>2010-08-28T12:46:28Z</time>
      </trkpt>
      <trkpt lat="48.88218" lon="7.38053">
        <ele>240.546021</ele>
        <time>2010-08-28T12:46:30Z</time>
      </trkpt>
      <trkpt lat="48.88214" lon="7.38048">
        <ele>241.389771</ele>
        <time>2010-08-28T12:46:32Z</time>
      </trkpt>
      <trkpt lat="48.88211" lon="7.38042">
        <ele>241.917114</ele>
        <time>2010-08-28T12:46:35Z</time>
      </trkpt>
      <trkpt lat="48.88208" lon="7.38036">
        <ele>243.460083</ele>
        <time>2010-08-28T12:46:38Z</time>
      </trkpt>
      <trkpt lat="48.88205" lon="7.38028">
        <ele>245.510864</ele>
        <time>2010-08-28T12:46:41Z</time>
      </trkpt>
      <trkpt lat="48.882" lon="7.38025">
        <ele>246.690552</ele>
        <time>2010-08-28T12:46:44Z</time>
      </trkpt>
      <trkpt lat="48.88197" lon="7.38019">
        <ele>247.694458</ele>
        <time>2010-08-28T12:46:47Z</time>
      </trkpt>
      <trkpt lat="48.88195" lon="7.3801">
        <ele>248.225708</ele>
        <time>2010-08-28T12:46:50Z</time>
      </trkpt>
      <trkpt lat="48.88194" lon="7.38002">
        <ele>247.960083</ele>
        <time>2010-08-28T12:46:53Z</time>
      </trkpt>
      <trkpt lat="48.88191" lon="7.37997">
        <ele>247.225708</ele>
        <time>2010-08-28T12:46:56Z</time>
      </trkpt>
      <trkpt lat="48.88187" lon="7.3799">
        <ele>247.085083</ele>
        <time>2010-08-28T12:46:59Z</time>
      </trkpt>
      <trkpt lat="48.88185" lon="7.37982">
        <ele>247.659302</ele>
        <time>2010-08-28T12:47:02Z</time>
      </trkpt>
      <trkpt lat="48.8818" lon="7.3798">
        <ele>249.131958</ele>
        <time>2010-08-28T12:47:05Z</time>
      </trkpt>
      <trkpt lat="48.88177" lon="7.37973">
        <ele>249.049927</ele>
        <time>2010-08-28T12:47:08Z</time>
      </trkpt>
      <trkpt lat="48.88173" lon="7.37967">
        <ele>249.116333</ele>
        <time>2010-08-28T12:47:11Z</time>
      </trkpt>
      <trkpt lat="48.8817" lon="7.37961">
        <ele>250.003052</ele>
        <time>2010-08-28T12:47:14Z</time>
      </trkpt>
      <trkpt lat="48.88167" lon="7.37954">
        <ele>250.897583</ele>
        <time>2010-08-28T12:47:17Z</time>
      </trkpt>
      <trkpt lat="48.88163" lon="7.37946">
        <ele>250.698364</ele>
        <time>2010-08-28T12:47:21Z</time>
      </trkpt>
      <trkpt lat="48.8816" lon="7.37939">
        <ele>250.499146</ele>
        <time>2010-08-28T12:47:24Z</time>
      </trkpt>
      <trkpt lat="48.88157" lon="7.37933">
        <ele>250.772583</ele>
        <time>2010-08-28T12:47:27Z</time>
      </trkpt>
      <trkpt lat="48.88154" lon="7.37927">
        <ele>249.460083</ele>
        <time>2010-08-28T12:47:30Z</time>
      </trkpt>
      <trkpt lat="48.8815" lon="7.37921">
        <ele>247.921021</ele>
        <time>2010-08-28T12:47:33Z</time>
      </trkpt>
      <trkpt lat="48.88146" lon="7.37915">
        <ele>248.713989</ele>
        <time>2010-08-28T12:47:36Z</time>
      </trkpt>
      <trkpt lat="48.88142" lon="7.3791">
        <ele>248.557739</ele>
        <time>2010-08-28T12:47:39Z</time>
      </trkpt>
      <trkpt lat="48.88138" lon="7.37906">
        <ele>247.221802</ele>
        <time>2010-08-28T12:47:42Z</time>
      </trkpt>
      <trkpt lat="48.88134" lon="7.37899">
        <ele>246.768677</ele>
        <time>2010-08-28T12:47:45Z</time>
      </trkpt>
      <trkpt lat="48.88131" lon="7.37891">
        <ele>247.342896</ele>
        <time>2010-08-28T12:47:48Z</time>
      </trkpt>
      <trkpt lat="48.88126" lon="7.37883">
        <ele>247.792114</ele>
        <time>2010-08-28T12:47:51Z</time>
      </trkpt>
      <trkpt lat="48.88123" lon="7.37879">
        <ele>248.975708</ele>
        <time>2010-08-28T12:47:53Z</time>
      </trkpt>
      <trkpt lat="48.88118" lon="7.37874">
        <ele>250.038208</ele>
        <time>2010-08-28T12:47:55Z</time>
      </trkpt>
      <trkpt lat="48.88114" lon="7.3787">
        <ele>249.018677</ele>
        <time>2010-08-28T12:47:57Z</time>
      </trkpt>
      <trkpt lat="48.8811" lon="7.37866">
        <ele>250.116333</ele>
        <time>2010-08-28T12:48:00Z</time>
      </trkpt>
      <trkpt lat="48.88107" lon="7.37861">
        <ele>250.768677</ele>
        <time>2010-08-28T12:48:03Z</time>
      </trkpt>
      <trkpt lat="48.88104" lon="7.37855">
        <ele>251.881958</ele>
        <time>2010-08-28T12:48:06Z</time>
      </trkpt>
      <trkpt lat="48.881" lon="7.37848">
        <ele>253.139771</ele>
        <time>2010-08-28T12:48:09Z</time>
      </trkpt>
      <trkpt lat="48.88096" lon="7.37845">
        <ele>254.253052</ele>
        <time>2010-08-28T12:48:12Z</time>
      </trkpt>
      <trkpt lat="48.88091" lon="7.3784">
        <ele>254.487427</ele>
        <time>2010-08-28T12:48:15Z</time>
      </trkpt>
      <trkpt lat="48.88088" lon="7.37834">
        <ele>255.358521</ele>
        <time>2010-08-28T12:48:17Z</time>
      </trkpt>
      <trkpt lat="48.88084" lon="7.3783">
        <ele>256.474854</ele>
        <time>2010-08-28T12:48:20Z</time>
      </trkpt>
      <trkpt lat="48.8808" lon="7.37827">
        <ele>256.084229</ele>
        <time>2010-08-28T12:48:23Z</time>
      </trkpt>
      <trkpt lat="48.88076" lon="7.37821">
        <ele>256.451416</ele>
        <time>2010-08-28T12:48:26Z</time>
      </trkpt>
      <trkpt lat="48.88074" lon="7.37815">
        <ele>257.240479</ele>
        <time>2010-08-28T12:48:29Z</time>
      </trkpt>
      <trkpt lat="48.88071" lon="7.37809">
        <ele>258.701416</ele>
        <time>2010-08-28T12:48:32Z</time>
      </trkpt>
      <trkpt lat="48.88068" lon="7.37803">
        <ele>260.677979</ele>
        <time>2010-08-28T12:48:36Z</time>
      </trkpt>
      <trkpt lat="48.88063" lon="7.37798">
        <ele>259.959229</ele>
        <time>2010-08-28T12:48:41Z</time>
      </trkpt>
      <trkpt lat="48.88059" lon="7.37794">
        <ele>259.912354</ele>
        <time>2010-08-28T12:48:45Z</time>
      </trkpt>
      <trkpt lat="48.88057" lon="7.37789">
        <ele>258.717041</ele>
        <time>2010-08-28T12:48:50Z</time>
      </trkpt>
      <trkpt lat="48.88052" lon="7.37788">
        <ele>259.381104</ele>
        <time>2010-08-28T12:49:28Z</time>
      </trkpt>
      <trkpt lat="48.88049" lon="7.37783">
        <ele>259.123291</ele>
        <time>2010-08-28T12:49:32Z</time>
      </trkpt>
      <trkpt lat="48.88045" lon="7.37775">
        <ele>258.779541</ele>
        <time>2010-08-28T12:49:35Z</time>
      </trkpt>
      <trkpt lat="48.88041" lon="7.3777">
        <ele>258.795166</ele>
        <time>2010-08-28T12:49:37Z</time>
      </trkpt>
      <trkpt lat="48.88036" lon="7.37765">
        <ele>258.092041</ele>
        <time>2010-08-28T12:49:40Z</time>
      </trkpt>
      <trkpt lat="48.88032" lon="7.37758">
        <ele>256.709229</ele>
        <time>2010-08-28T12:49:42Z</time>
      </trkpt>
      <trkpt lat="48.88027" lon="7.37753">
        <ele>256.943604</ele>
        <time>2010-08-28T12:49:44Z</time>
      </trkpt>
      <trkpt lat="48.88022" lon="7.37748">
        <ele>257.099854</ele>
        <time>2010-08-28T12:49:46Z</time>
      </trkpt>
      <trkpt lat="48.88017" lon="7.37743">
        <ele>257.295166</ele>
        <time>2010-08-28T12:49:48Z</time>
      </trkpt>
      <trkpt lat="48.88011" lon="7.37739">
        <ele>256.521729</ele>
        <time>2010-08-28T12:49:50Z</time>
      </trkpt>
      <trkpt lat="48.88004" lon="7.37734">
        <ele>255.612427</ele>
        <time>2010-08-28T12:49:52Z</time>
      </trkpt>
      <trkpt lat="48.87999" lon="7.3773">
        <ele>254.155396</ele>
        <time>2010-08-28T12:49:54Z</time>
      </trkpt>
      <trkpt lat="48.87993" lon="7.37725">
        <ele>253.940552</ele>
        <time>2010-08-28T12:49:56Z</time>
      </trkpt>
      <trkpt lat="48.87988" lon="7.37721">
        <ele>253.975708</ele>
        <time>2010-08-28T12:49:58Z</time>
      </trkpt>
      <trkpt lat="48.87983" lon="7.37717">
        <ele>253.288208</ele>
        <time>2010-08-28T12:50:00Z</time>
      </trkpt>
      <trkpt lat="48.87976" lon="7.37714">
        <ele>252.260864</ele>
        <time>2010-08-28T12:50:02Z</time>
      </trkpt>
      <trkpt lat="48.87968" lon="7.37709">
        <ele>251.335083</ele>
        <time>2010-08-28T12:50:04Z</time>
      </trkpt>
      <trkpt lat="48.87962" lon="7.37706">
        <ele>250.135864</ele>
        <time>2010-08-28T12:50:06Z</time>
      </trkpt>
      <trkpt lat="48.87956" lon="7.37702">
        <ele>249.393677</ele>
        <time>2010-08-28T12:50:08Z</time>
      </trkpt>
      <trkpt lat="48.8795" lon="7.37697">
        <ele>248.346802</ele>
        <time>2010-08-28T12:50:10Z</time>
      </trkpt>
      <trkpt lat="48.87943" lon="7.37692">
        <ele>247.917114</ele>
        <time>2010-08-28T12:50:12Z</time>
      </trkpt>
      <trkpt lat="48.87938" lon="7.37686">
        <ele>245.542114</ele>
        <time>2010-08-28T12:50:14Z</time>
      </trkpt>
      <trkpt lat="48.87932" lon="7.37679">
        <ele>244.292114</ele>
        <time>2010-08-28T12:50:16Z</time>
      </trkpt>
      <trkpt lat="48.87926" lon="7.37672">
        <ele>243.139771</ele>
        <time>2010-08-28T12:50:18Z</time>
      </trkpt>
      <trkpt lat="48.87919" lon="7.37666">
        <ele>242.163208</ele>
        <time>2010-08-28T12:50:20Z</time>
      </trkpt>
      <trkpt lat="48.87911" lon="7.37663">
        <ele>243.710083</ele>
        <time>2010-08-28T12:50:22Z</time>
      </trkpt>
      <trkpt lat="48.87904" lon="7.37657">
        <ele>243.913208</ele>
        <time>2010-08-28T12:50:24Z</time>
      </trkpt>
      <trkpt lat="48.87898" lon="7.37652">
        <ele>244.100708</ele>
        <time>2010-08-28T12:50:26Z</time>
      </trkpt>
      <trkpt lat="48.87891" lon="7.37643">
        <ele>244.151489</ele>
        <time>2010-08-28T12:50:28Z</time>
      </trkpt>
      <trkpt lat="48.87884" lon="7.37637">
        <ele>242.702271</ele>
        <time>2010-08-28T12:50:30Z</time>
      </trkpt>
      <trkpt lat="48.87877" lon="7.3763">
        <ele>242.421021</ele>
        <time>2010-08-28T12:50:32Z</time>
      </trkpt>
      <trkpt lat="48.87874" lon="7.37624">
        <ele>242.647583</ele>
        <time>2010-08-28T12:50:33Z</time>
      </trkpt>
      <trkpt lat="48.8787" lon="7.3762">
        <ele>242.854614</ele>
        <time>2010-08-28T12:50:34Z</time>
      </trkpt>
      <trkpt lat="48.87863" lon="7.37611">
        <ele>242.206177</ele>
        <time>2010-08-28T12:50:36Z</time>
      </trkpt>
      <trkpt lat="48.87859" lon="7.37609">
        <ele>242.846802</ele>
        <time>2010-08-28T12:50:37Z</time>
      </trkpt>
      <trkpt lat="48.87854" lon="7.37608">
        <ele>244.522583</ele>
        <time>2010-08-28T12:50:38Z</time>
      </trkpt>
      <trkpt lat="48.87846" lon="7.37602">
        <ele>244.053833</ele>
        <time>2010-08-28T12:50:40Z</time>
      </trkpt>
      <trkpt lat="48.87842" lon="7.376">
        <ele>245.104614</ele>
        <time>2010-08-28T12:50:41Z</time>
      </trkpt>
      <trkpt lat="48.87838" lon="7.37596">
        <ele>247.292114</ele>
        <time>2010-08-28T12:50:42Z</time>
      </trkpt>
      <trkpt lat="48.87832" lon="7.37591">
        <ele>248.534302</ele>
        <time>2010-08-28T12:50:44Z</time>
      </trkpt>
      <trkpt lat="48.87824" lon="7.37587">
        <ele>247.682739</ele>
        <time>2010-08-28T12:50:46Z</time>
      </trkpt>
      <trkpt lat="48.87816" lon="7.37583">
        <ele>247.788208</ele>
        <time>2010-08-28T12:50:48Z</time>
      </trkpt>
      <trkpt lat="48.8781" lon="7.37582">
        <ele>245.780396</ele>
        <time>2010-08-28T12:50:50Z</time>
      </trkpt>
      <trkpt lat="48.87804" lon="7.37578">
        <ele>249.588989</ele>
        <time>2010-08-28T12:50:52Z</time>
      </trkpt>
      <trkpt lat="48.87799" lon="7.37576">
        <ele>250.518677</ele>
        <time>2010-08-28T12:50:54Z</time>
      </trkpt>
      <trkpt lat="48.87792" lon="7.37574">
        <ele>250.760864</ele>
        <time>2010-08-28T12:50:56Z</time>
      </trkpt>
      <trkpt lat="48.87786" lon="7.37571">
        <ele>248.917114</ele>
        <time>2010-08-28T12:50:58Z</time>
      </trkpt>
      <trkpt lat="48.8778" lon="7.37567">
        <ele>247.100708</ele>
        <time>2010-08-28T12:51:00Z</time>
      </trkpt>
      <trkpt lat="48.87775" lon="7.37563">
        <ele>247.585083</ele>
        <time>2010-08-28T12:51:03Z</time>
      </trkpt>
      <trkpt lat="48.87771" lon="7.37564">
        <ele>248.350708</ele>
        <time>2010-08-28T12:51:08Z</time>
      </trkpt>
      <trkpt lat="48.87766" lon="7.37564">
        <ele>249.463989</ele>
        <time>2010-08-28T12:52:09Z</time>
      </trkpt>
      <trkpt lat="48.87761" lon="7.37557">
        <ele>249.401489</ele>
        <time>2010-08-28T12:52:12Z</time>
      </trkpt>
      <trkpt lat="48.87758" lon="7.37551">
        <ele>248.987427</ele>
        <time>2010-08-28T12:52:14Z</time>
      </trkpt>
      <trkpt lat="48.87753" lon="7.37545">
        <ele>247.995239</ele>
        <time>2010-08-28T12:52:16Z</time>
      </trkpt>
      <trkpt lat="48.87749" lon="7.37537">
        <ele>247.604614</ele>
        <time>2010-08-28T12:52:18Z</time>
      </trkpt>
      <trkpt lat="48.87745" lon="7.37529">
        <ele>247.264771</ele>
        <time>2010-08-28T12:52:20Z</time>
      </trkpt>
      <trkpt lat="48.87742" lon="7.37522">
        <ele>247.065552</ele>
        <time>2010-08-28T12:52:22Z</time>
      </trkpt>
      <trkpt lat="48.87739" lon="7.37513">
        <ele>246.870239</ele>
        <time>2010-08-28T12:52:24Z</time>
      </trkpt>
      <trkpt lat="48.87736" lon="7.37502">
        <ele>246.526489</ele>
        <time>2010-08-28T12:52:26Z</time>
      </trkpt>
      <trkpt lat="48.87733" lon="7.37493">
        <ele>246.698364</ele>
        <time>2010-08-28T12:52:28Z</time>
      </trkpt>
      <trkpt lat="48.8773" lon="7.37484">
        <ele>246.811646</ele>
        <time>2010-08-28T12:52:30Z</time>
      </trkpt>
      <trkpt lat="48.87727" lon="7.37474">
        <ele>246.245239</ele>
        <time>2010-08-28T12:52:32Z</time>
      </trkpt>
      <trkpt lat="48.87724" lon="7.37463">
        <ele>246.268677</ele>
        <time>2010-08-28T12:52:34Z</time>
      </trkpt>
      <trkpt lat="48.87721" lon="7.37453">
        <ele>244.835083</ele>
        <time>2010-08-28T12:52:36Z</time>
      </trkpt>
      <trkpt lat="48.87718" lon="7.37443">
        <ele>244.303833</ele>
        <time>2010-08-28T12:52:38Z</time>
      </trkpt>
      <trkpt lat="48.87715" lon="7.37434">
        <ele>243.667114</ele>
        <time>2010-08-28T12:52:40Z</time>
      </trkpt>
      <trkpt lat="48.87713" lon="7.37424">
        <ele>242.401489</ele>
        <time>2010-08-28T12:52:42Z</time>
      </trkpt>
      <trkpt lat="48.87709" lon="7.37413">
        <ele>241.710083</ele>
        <time>2010-08-28T12:52:44Z</time>
      </trkpt>
      <trkpt lat="48.87707" lon="7.37401">
        <ele>241.780396</ele>
        <time>2010-08-28T12:52:46Z</time>
      </trkpt>
      <trkpt lat="48.87705" lon="7.37389">
        <ele>241.862427</ele>
        <time>2010-08-28T12:52:48Z</time>
      </trkpt>
      <trkpt lat="48.87703" lon="7.37377">
        <ele>241.620239</ele>
        <time>2010-08-28T12:52:50Z</time>
      </trkpt>
      <trkpt lat="48.877" lon="7.37365">
        <ele>241.385864</ele>
        <time>2010-08-28T12:52:52Z</time>
      </trkpt>
      <trkpt lat="48.87698" lon="7.37353">
        <ele>240.940552</ele>
        <time>2010-08-28T12:52:54Z</time>
      </trkpt>
      <trkpt lat="48.87697" lon="7.37341">
        <ele>240.588989</ele>
        <time>2010-08-28T12:52:56Z</time>
      </trkpt>
      <trkpt lat="48.87695" lon="7.37328">
        <ele>240.003052</ele>
        <time>2010-08-28T12:52:58Z</time>
      </trkpt>
      <trkpt lat="48.87694" lon="7.37321">
        <ele>239.628052</ele>
        <time>2010-08-28T12:52:59Z</time>
      </trkpt>
      <trkpt lat="48.87693" lon="7.37314">
        <ele>239.819458</ele>
        <time>2010-08-28T12:53:00Z</time>
      </trkpt>
      <trkpt lat="48.87692" lon="7.37307">
        <ele>239.499146</ele>
        <time>2010-08-28T12:53:01Z</time>
      </trkpt>
      <trkpt lat="48.8769" lon="7.37299">
        <ele>239.323364</ele>
        <time>2010-08-28T12:53:02Z</time>
      </trkpt>
      <trkpt lat="48.8769" lon="7.37292">
        <ele>239.319458</ele>
        <time>2010-08-28T12:53:03Z</time>
      </trkpt>
      <trkpt lat="48.87688" lon="7.37283">
        <ele>239.237427</ele>
        <time>2010-08-28T12:53:04Z</time>
      </trkpt>
      <trkpt lat="48.87687" lon="7.37276">
        <ele>239.331177</ele>
        <time>2010-08-28T12:53:05Z</time>
      </trkpt>
      <trkpt lat="48.87686" lon="7.37269">
        <ele>238.944458</ele>
        <time>2010-08-28T12:53:06Z</time>
      </trkpt>
      <trkpt lat="48.87685" lon="7.37262">
        <ele>238.620239</ele>
        <time>2010-08-28T12:53:07Z</time>
      </trkpt>
      <trkpt lat="48.87684" lon="7.37254">
        <ele>238.288208</ele>
        <time>2010-08-28T12:53:08Z</time>
      </trkpt>
      <trkpt lat="48.87684" lon="7.37246">
        <ele>238.319458</ele>
        <time>2010-08-28T12:53:09Z</time>
      </trkpt>
      <trkpt lat="48.87683" lon="7.37239">
        <ele>238.190552</ele>
        <time>2010-08-28T12:53:10Z</time>
      </trkpt>
      <trkpt lat="48.87682" lon="7.37231">
        <ele>238.069458</ele>
        <time>2010-08-28T12:53:11Z</time>
      </trkpt>
      <trkpt lat="48.87682" lon="7.37224">
        <ele>238.288208</ele>
        <time>2010-08-28T12:53:12Z</time>
      </trkpt>
      <trkpt lat="48.87682" lon="7.37217">
        <ele>238.331177</ele>
        <time>2010-08-28T12:53:13Z</time>
      </trkpt>
      <trkpt lat="48.87681" lon="7.37209">
        <ele>238.233521</ele>
        <time>2010-08-28T12:53:14Z</time>
      </trkpt>
      <trkpt lat="48.87681" lon="7.372">
        <ele>238.335083</ele>
        <time>2010-08-28T12:53:15Z</time>
      </trkpt>
      <trkpt lat="48.87681" lon="7.37192">
        <ele>237.975708</ele>
        <time>2010-08-28T12:53:16Z</time>
      </trkpt>
      <trkpt lat="48.8768" lon="7.37185">
        <ele>237.842896</ele>
        <time>2010-08-28T12:53:17Z</time>
      </trkpt>
      <trkpt lat="48.8768" lon="7.37177">
        <ele>238.202271</ele>
        <time>2010-08-28T12:53:18Z</time>
      </trkpt>
      <trkpt lat="48.8768" lon="7.37168">
        <ele>238.167114</ele>
        <time>2010-08-28T12:53:19Z</time>
      </trkpt>
      <trkpt lat="48.8768" lon="7.37161">
        <ele>237.284302</ele>
        <time>2010-08-28T12:53:20Z</time>
      </trkpt>
      <trkpt lat="48.8768" lon="7.37152">
        <ele>237.006958</ele>
        <time>2010-08-28T12:53:21Z</time>
      </trkpt>
      <trkpt lat="48.8768" lon="7.37144">
        <ele>237.260864</ele>
        <time>2010-08-28T12:53:22Z</time>
      </trkpt>
      <trkpt lat="48.87679" lon="7.37135">
        <ele>237.260864</ele>
        <time>2010-08-28T12:53:23Z</time>
      </trkpt>
      <trkpt lat="48.87679" lon="7.37126">
        <ele>236.756958</ele>
        <time>2010-08-28T12:53:24Z</time>
      </trkpt>
      <trkpt lat="48.87679" lon="7.37118">
        <ele>236.510864</ele>
        <time>2010-08-28T12:53:25Z</time>
      </trkpt>
      <trkpt lat="48.87678" lon="7.3711">
        <ele>236.026489</ele>
        <time>2010-08-28T12:53:26Z</time>
      </trkpt>
      <trkpt lat="48.87677" lon="7.37101">
        <ele>235.463989</ele>
        <time>2010-08-28T12:53:27Z</time>
      </trkpt>
      <trkpt lat="48.87677" lon="7.37092">
        <ele>235.210083</ele>
        <time>2010-08-28T12:53:28Z</time>
      </trkpt>
      <trkpt lat="48.87676" lon="7.37083">
        <ele>234.885864</ele>
        <time>2010-08-28T12:53:29Z</time>
      </trkpt>
      <trkpt lat="48.87674" lon="7.37074">
        <ele>234.460083</ele>
        <time>2010-08-28T12:53:30Z</time>
      </trkpt>
      <trkpt lat="48.87674" lon="7.37064">
        <ele>234.436646</ele>
        <time>2010-08-28T12:53:31Z</time>
      </trkpt>
      <trkpt lat="48.87672" lon="7.37054">
        <ele>235.147583</ele>
        <time>2010-08-28T12:53:32Z</time>
      </trkpt>
      <trkpt lat="48.87671" lon="7.37044">
        <ele>235.018677</ele>
        <time>2010-08-28T12:53:33Z</time>
      </trkpt>
      <trkpt lat="48.8767" lon="7.37035">
        <ele>234.452271</ele>
        <time>2010-08-28T12:53:34Z</time>
      </trkpt>
      <trkpt lat="48.87669" lon="7.37026">
        <ele>234.139771</ele>
        <time>2010-08-28T12:53:35Z</time>
      </trkpt>
      <trkpt lat="48.87668" lon="7.37018">
        <ele>233.819458</ele>
        <time>2010-08-28T12:53:36Z</time>
      </trkpt>
      <trkpt lat="48.87668" lon="7.37009">
        <ele>234.155396</ele>
        <time>2010-08-28T12:53:37Z</time>
      </trkpt>
      <trkpt lat="48.87669" lon="7.37001">
        <ele>234.471802</ele>
        <time>2010-08-28T12:53:38Z</time>
      </trkpt>
      <trkpt lat="48.87669" lon="7.36993">
        <ele>234.874146</ele>
        <time>2010-08-28T12:53:39Z</time>
      </trkpt>
      <trkpt lat="48.87669" lon="7.36986">
        <ele>234.854614</ele>
        <time>2010-08-28T12:53:40Z</time>
      </trkpt>
      <trkpt lat="48.87669" lon="7.36979">
        <ele>234.811646</ele>
        <time>2010-08-28T12:53:41Z</time>
      </trkpt>
      <trkpt lat="48.8767" lon="7.36971">
        <ele>234.995239</ele>
        <time>2010-08-28T12:53:42Z</time>
      </trkpt>
      <trkpt lat="48.87669" lon="7.3696">
        <ele>234.745239</ele>
        <time>2010-08-28T12:53:44Z</time>
      </trkpt>
      <trkpt lat="48.87669" lon="7.36952">
        <ele>235.081177</ele>
        <time>2010-08-28T12:53:46Z</time>
      </trkpt>
      <trkpt lat="48.87667" lon="7.36945">
        <ele>234.749146</ele>
        <time>2010-08-28T12:53:48Z</time>
      </trkpt>
      <trkpt lat="48.87665" lon="7.36936">
        <ele>234.354614</ele>
        <time>2010-08-28T12:53:50Z</time>
      </trkpt>
      <trkpt lat="48.87661" lon="7.36927">
        <ele>234.128052</ele>
        <time>2010-08-28T12:53:52Z</time>
      </trkpt>
      <trkpt lat="48.87658" lon="7.36916">
        <ele>234.194458</ele>
        <time>2010-08-28T12:53:54Z</time>
      </trkpt>
      <trkpt lat="48.87656" lon="7.36905">
        <ele>234.327271</ele>
        <time>2010-08-28T12:53:56Z</time>
      </trkpt>
      <trkpt lat="48.87653" lon="7.36893">
        <ele>234.296021</ele>
        <time>2010-08-28T12:53:58Z</time>
      </trkpt>
      <trkpt lat="48.8765" lon="7.36883">
        <ele>234.003052</ele>
        <time>2010-08-28T12:54:00Z</time>
      </trkpt>
      <trkpt lat="48.87645" lon="7.36873">
        <ele>233.452271</ele>
        <time>2010-08-28T12:54:02Z</time>
      </trkpt>
      <trkpt lat="48.87642" lon="7.36868">
        <ele>233.194458</ele>
        <time>2010-08-28T12:54:03Z</time>
      </trkpt>
      <trkpt lat="48.87638" lon="7.36862">
        <ele>233.553833</ele>
        <time>2010-08-28T12:54:04Z</time>
      </trkpt>
      <trkpt lat="48.87635" lon="7.36857">
        <ele>233.249146</ele>
        <time>2010-08-28T12:54:05Z</time>
      </trkpt>
      <trkpt lat="48.87631" lon="7.36852">
        <ele>233.124146</ele>
        <time>2010-08-28T12:54:06Z</time>
      </trkpt>
      <trkpt lat="48.87627" lon="7.36846">
        <ele>232.858521</ele>
        <time>2010-08-28T12:54:07Z</time>
      </trkpt>
      <trkpt lat="48.87624" lon="7.36841">
        <ele>232.588989</ele>
        <time>2010-08-28T12:54:08Z</time>
      </trkpt>
      <trkpt lat="48.8762" lon="7.36835">
        <ele>232.174927</ele>
        <time>2010-08-28T12:54:09Z</time>
      </trkpt>
      <trkpt lat="48.87617" lon="7.3683">
        <ele>231.975708</ele>
        <time>2010-08-28T12:54:10Z</time>
      </trkpt>
      <trkpt lat="48.87613" lon="7.36825">
        <ele>231.385864</ele>
        <time>2010-08-28T12:54:11Z</time>
      </trkpt>
      <trkpt lat="48.87609" lon="7.36819">
        <ele>230.995239</ele>
        <time>2010-08-28T12:54:12Z</time>
      </trkpt>
      <trkpt lat="48.87605" lon="7.36813">
        <ele>230.335083</ele>
        <time>2010-08-28T12:54:13Z</time>
      </trkpt>
      <trkpt lat="48.87602" lon="7.36806">
        <ele>229.706177</ele>
        <time>2010-08-28T12:54:14Z</time>
      </trkpt>
      <trkpt lat="48.87598" lon="7.36798">
        <ele>228.745239</ele>
        <time>2010-08-28T12:54:15Z</time>
      </trkpt>
      <trkpt lat="48.87596" lon="7.36789">
        <ele>228.092896</ele>
        <time>2010-08-28T12:54:16Z</time>
      </trkpt>
      <trkpt lat="48.87593" lon="7.36779">
        <ele>227.503052</ele>
        <time>2010-08-28T12:54:17Z</time>
      </trkpt>
      <trkpt lat="48.87592" lon="7.36769">
        <ele>227.065552</ele>
        <time>2010-08-28T12:54:18Z</time>
      </trkpt>
      <trkpt lat="48.8759" lon="7.36758">
        <ele>227.104614</ele>
        <time>2010-08-28T12:54:19Z</time>
      </trkpt>
      <trkpt lat="48.87589" lon="7.36748">
        <ele>226.979614</ele>
        <time>2010-08-28T12:54:20Z</time>
      </trkpt>
      <trkpt lat="48.87588" lon="7.36739">
        <ele>226.796021</ele>
        <time>2010-08-28T12:54:21Z</time>
      </trkpt>
      <trkpt lat="48.87587" lon="7.36729">
        <ele>226.491333</ele>
        <time>2010-08-28T12:54:22Z</time>
      </trkpt>
      <trkpt lat="48.87587" lon="7.36719">
        <ele>226.495239</ele>
        <time>2010-08-28T12:54:23Z</time>
      </trkpt>
      <trkpt lat="48.87586" lon="7.3671">
        <ele>226.432739</ele>
        <time>2010-08-28T12:54:24Z</time>
      </trkpt>
      <trkpt lat="48.87585" lon="7.36702">
        <ele>226.272583</ele>
        <time>2010-08-28T12:54:25Z</time>
      </trkpt>
      <trkpt lat="48.87584" lon="7.36693">
        <ele>226.225708</ele>
        <time>2010-08-28T12:54:26Z</time>
      </trkpt>
      <trkpt lat="48.87584" lon="7.36685">
        <ele>226.065552</ele>
        <time>2010-08-28T12:54:27Z</time>
      </trkpt>
      <trkpt lat="48.87584" lon="7.36676">
        <ele>226.096802</ele>
        <time>2010-08-28T12:54:28Z</time>
      </trkpt>
      <trkpt lat="48.87583" lon="7.36668">
        <ele>226.190552</ele>
        <time>2010-08-28T12:54:29Z</time>
      </trkpt>
      <trkpt lat="48.87582" lon="7.36659">
        <ele>225.823364</ele>
        <time>2010-08-28T12:54:30Z</time>
      </trkpt>
      <trkpt lat="48.87582" lon="7.36652">
        <ele>225.772583</ele>
        <time>2010-08-28T12:54:31Z</time>
      </trkpt>
      <trkpt lat="48.87582" lon="7.36643">
        <ele>225.413208</ele>
        <time>2010-08-28T12:54:32Z</time>
      </trkpt>
      <trkpt lat="48.87581" lon="7.36635">
        <ele>225.003052</ele>
        <time>2010-08-28T12:54:33Z</time>
      </trkpt>
      <trkpt lat="48.87581" lon="7.36627">
        <ele>224.710083</ele>
        <time>2010-08-28T12:54:34Z</time>
      </trkpt>
      <trkpt lat="48.87582" lon="7.36619">
        <ele>224.256958</ele>
        <time>2010-08-28T12:54:35Z</time>
      </trkpt>
      <trkpt lat="48.87583" lon="7.3661">
        <ele>224.194458</ele>
        <time>2010-08-28T12:54:36Z</time>
      </trkpt>
      <trkpt lat="48.87583" lon="7.36602">
        <ele>223.905396</ele>
        <time>2010-08-28T12:54:37Z</time>
      </trkpt>
      <trkpt lat="48.87583" lon="7.36594">
        <ele>223.585083</ele>
        <time>2010-08-28T12:54:38Z</time>
      </trkpt>
      <trkpt lat="48.87582" lon="7.36586">
        <ele>223.299927</ele>
        <time>2010-08-28T12:54:39Z</time>
      </trkpt>
      <trkpt lat="48.87581" lon="7.36578">
        <ele>223.608521</ele>
        <time>2010-08-28T12:54:40Z</time>
      </trkpt>
      <trkpt lat="48.87581" lon="7.3657">
        <ele>223.749146</ele>
        <time>2010-08-28T12:54:41Z</time>
      </trkpt>
      <trkpt lat="48.87581" lon="7.36562">
        <ele>223.909302</ele>
        <time>2010-08-28T12:54:42Z</time>
      </trkpt>
      <trkpt lat="48.8758" lon="7.36555">
        <ele>223.741333</ele>
        <time>2010-08-28T12:54:43Z</time>
      </trkpt>
      <trkpt lat="48.87579" lon="7.36548">
        <ele>223.874146</ele>
        <time>2010-08-28T12:54:44Z</time>
      </trkpt>
      <trkpt lat="48.87579" lon="7.36541">
        <ele>223.651489</ele>
        <time>2010-08-28T12:54:45Z</time>
      </trkpt>
      <trkpt lat="48.87578" lon="7.36533">
        <ele>223.913208</ele>
        <time>2010-08-28T12:54:46Z</time>
      </trkpt>
      <trkpt lat="48.87577" lon="7.36526">
        <ele>224.116333</ele>
        <time>2010-08-28T12:54:47Z</time>
      </trkpt>
      <trkpt lat="48.87577" lon="7.3652">
        <ele>224.116333</ele>
        <time>2010-08-28T12:54:48Z</time>
      </trkpt>
      <trkpt lat="48.87576" lon="7.36507">
        <ele>224.042114</ele>
        <time>2010-08-28T12:54:50Z</time>
      </trkpt>
      <trkpt lat="48.87574" lon="7.365">
        <ele>223.963989</ele>
        <time>2010-08-28T12:54:51Z</time>
      </trkpt>
      <trkpt lat="48.87572" lon="7.36493">
        <ele>223.499146</ele>
        <time>2010-08-28T12:54:52Z</time>
      </trkpt>
      <trkpt lat="48.8757" lon="7.36486">
        <ele>223.081177</ele>
        <time>2010-08-28T12:54:53Z</time>
      </trkpt>
      <trkpt lat="48.87568" lon="7.36479">
        <ele>222.858521</ele>
        <time>2010-08-28T12:54:54Z</time>
      </trkpt>
      <trkpt lat="48.87566" lon="7.36472">
        <ele>222.694458</ele>
        <time>2010-08-28T12:54:55Z</time>
      </trkpt>
      <trkpt lat="48.87564" lon="7.36464">
        <ele>222.499146</ele>
        <time>2010-08-28T12:54:56Z</time>
      </trkpt>
      <trkpt lat="48.87562" lon="7.36456">
        <ele>222.139771</ele>
        <time>2010-08-28T12:54:57Z</time>
      </trkpt>
      <trkpt lat="48.8756" lon="7.36449">
        <ele>222.194458</ele>
        <time>2010-08-28T12:54:58Z</time>
      </trkpt>
      <trkpt lat="48.87558" lon="7.3644">
        <ele>221.612427</ele>
        <time>2010-08-28T12:54:59Z</time>
      </trkpt>
      <trkpt lat="48.87557" lon="7.36432">
        <ele>221.471802</ele>
        <time>2010-08-28T12:55:00Z</time>
      </trkpt>
      <trkpt lat="48.87555" lon="7.36423">
        <ele>221.378052</ele>
        <time>2010-08-28T12:55:01Z</time>
      </trkpt>
      <trkpt lat="48.87553" lon="7.36415">
        <ele>221.124146</ele>
        <time>2010-08-28T12:55:02Z</time>
      </trkpt>
      <trkpt lat="48.87552" lon="7.36406">
        <ele>220.967896</ele>
        <time>2010-08-28T12:55:03Z</time>
      </trkpt>
      <trkpt lat="48.87551" lon="7.36398">
        <ele>220.014771</ele>
        <time>2010-08-28T12:55:04Z</time>
      </trkpt>
      <trkpt lat="48.8755" lon="7.3639">
        <ele>219.303833</ele>
        <time>2010-08-28T12:55:05Z</time>
      </trkpt>
      <trkpt lat="48.8755" lon="7.3638">
        <ele>218.889771</ele>
        <time>2010-08-28T12:55:06Z</time>
      </trkpt>
      <trkpt lat="48.8755" lon="7.36372">
        <ele>218.444458</ele>
        <time>2010-08-28T12:55:07Z</time>
      </trkpt>
      <trkpt lat="48.8755" lon="7.36363">
        <ele>218.159302</ele>
        <time>2010-08-28T12:55:08Z</time>
      </trkpt>
      <trkpt lat="48.8755" lon="7.36354">
        <ele>217.338989</ele>
        <time>2010-08-28T12:55:09Z</time>
      </trkpt>
      <trkpt lat="48.8755" lon="7.36346">
        <ele>217.292114</ele>
        <time>2010-08-28T12:55:10Z</time>
      </trkpt>
      <trkpt lat="48.8755" lon="7.36339">
        <ele>217.159302</ele>
        <time>2010-08-28T12:55:11Z</time>
      </trkpt>
      <trkpt lat="48.8755" lon="7.36331">
        <ele>216.796021</ele>
        <time>2010-08-28T12:55:12Z</time>
      </trkpt>
      <trkpt lat="48.8755" lon="7.36323">
        <ele>216.643677</ele>
        <time>2010-08-28T12:55:13Z</time>
      </trkpt>
      <trkpt lat="48.87551" lon="7.36315">
        <ele>217.260864</ele>
        <time>2010-08-28T12:55:14Z</time>
      </trkpt>
      <trkpt lat="48.87551" lon="7.36306">
        <ele>218.553833</ele>
        <time>2010-08-28T12:55:15Z</time>
      </trkpt>
      <trkpt lat="48.87552" lon="7.36298">
        <ele>218.940552</ele>
        <time>2010-08-28T12:55:16Z</time>
      </trkpt>
      <trkpt lat="48.87552" lon="7.36289">
        <ele>219.893677</ele>
        <time>2010-08-28T12:55:17Z</time>
      </trkpt>
      <trkpt lat="48.87553" lon="7.3628">
        <ele>220.381958</ele>
        <time>2010-08-28T12:55:18Z</time>
      </trkpt>
      <trkpt lat="48.87553" lon="7.36273">
        <ele>220.362427</ele>
        <time>2010-08-28T12:55:19Z</time>
      </trkpt>
      <trkpt lat="48.87554" lon="7.36265">
        <ele>220.366333</ele>
        <time>2010-08-28T12:55:20Z</time>
      </trkpt>
      <trkpt lat="48.87555" lon="7.36257">
        <ele>220.663208</ele>
        <time>2010-08-28T12:55:21Z</time>
      </trkpt>
      <trkpt lat="48.87556" lon="7.36249">
        <ele>220.682739</ele>
        <time>2010-08-28T12:55:22Z</time>
      </trkpt>
      <trkpt lat="48.87557" lon="7.36241">
        <ele>221.471802</ele>
        <time>2010-08-28T12:55:23Z</time>
      </trkpt>
      <trkpt lat="48.87558" lon="7.36233">
        <ele>222.053833</ele>
        <time>2010-08-28T12:55:24Z</time>
      </trkpt>
      <trkpt lat="48.87559" lon="7.36226">
        <ele>222.569458</ele>
        <time>2010-08-28T12:55:25Z</time>
      </trkpt>
      <trkpt lat="48.8756" lon="7.36219">
        <ele>222.608521</ele>
        <time>2010-08-28T12:55:26Z</time>
      </trkpt>
      <trkpt lat="48.8756" lon="7.36211">
        <ele>222.764771</ele>
        <time>2010-08-28T12:55:27Z</time>
      </trkpt>
      <trkpt lat="48.87561" lon="7.36204">
        <ele>222.846802</ele>
        <time>2010-08-28T12:55:28Z</time>
      </trkpt>
      <trkpt lat="48.87561" lon="7.36197">
        <ele>222.983521</ele>
        <time>2010-08-28T12:55:29Z</time>
      </trkpt>
      <trkpt lat="48.87562" lon="7.3619">
        <ele>223.350708</ele>
        <time>2010-08-28T12:55:30Z</time>
      </trkpt>
      <trkpt lat="48.87562" lon="7.36184">
        <ele>223.448364</ele>
        <time>2010-08-28T12:55:31Z</time>
      </trkpt>
      <trkpt lat="48.87562" lon="7.36171">
        <ele>222.854614</ele>
        <time>2010-08-28T12:55:33Z</time>
      </trkpt>
      <trkpt lat="48.87563" lon="7.36158">
        <ele>222.694458</ele>
        <time>2010-08-28T12:55:35Z</time>
      </trkpt>
      <trkpt lat="48.87563" lon="7.36147">
        <ele>222.655396</ele>
        <time>2010-08-28T12:55:37Z</time>
      </trkpt>
      <trkpt lat="48.87563" lon="7.36135">
        <ele>222.663208</ele>
        <time>2010-08-28T12:55:39Z</time>
      </trkpt>
      <trkpt lat="48.87563" lon="7.36123">
        <ele>222.956177</ele>
        <time>2010-08-28T12:55:41Z</time>
      </trkpt>
      <trkpt lat="48.87564" lon="7.36116">
        <ele>223.456177</ele>
        <time>2010-08-28T12:55:42Z</time>
      </trkpt>
      <trkpt lat="48.87565" lon="7.36109">
        <ele>224.085083</ele>
        <time>2010-08-28T12:55:43Z</time>
      </trkpt>
      <trkpt lat="48.87565" lon="7.36102">
        <ele>224.018677</ele>
        <time>2010-08-28T12:55:44Z</time>
      </trkpt>
      <trkpt lat="48.87566" lon="7.36089">
        <ele>223.229614</ele>
        <time>2010-08-28T12:55:46Z</time>
      </trkpt>
      <trkpt lat="48.87567" lon="7.36076">
        <ele>222.475708</ele>
        <time>2010-08-28T12:55:48Z</time>
      </trkpt>
      <trkpt lat="48.87568" lon="7.36064">
        <ele>222.139771</ele>
        <time>2010-08-28T12:55:50Z</time>
      </trkpt>
      <trkpt lat="48.87569" lon="7.36052">
        <ele>221.475708</ele>
        <time>2010-08-28T12:55:52Z</time>
      </trkpt>
      <trkpt lat="48.87569" lon="7.36041">
        <ele>219.022583</ele>
        <time>2010-08-28T12:55:54Z</time>
      </trkpt>
      <trkpt lat="48.8757" lon="7.36029">
        <ele>218.073364</ele>
        <time>2010-08-28T12:55:56Z</time>
      </trkpt>
      <trkpt lat="48.87569" lon="7.36016">
        <ele>217.100708</ele>
        <time>2010-08-28T12:55:58Z</time>
      </trkpt>
      <trkpt lat="48.87567" lon="7.36002">
        <ele>216.788208</ele>
        <time>2010-08-28T12:56:00Z</time>
      </trkpt>
      <trkpt lat="48.87565" lon="7.35994">
        <ele>218.026489</ele>
        <time>2010-08-28T12:56:01Z</time>
      </trkpt>
      <trkpt lat="48.87564" lon="7.35987">
        <ele>218.139771</ele>
        <time>2010-08-28T12:56:02Z</time>
      </trkpt>
      <trkpt lat="48.87563" lon="7.35979">
        <ele>218.194458</ele>
        <time>2010-08-28T12:56:03Z</time>
      </trkpt>
      <trkpt lat="48.87561" lon="7.35967">
        <ele>218.460083</ele>
        <time>2010-08-28T12:56:05Z</time>
      </trkpt>
      <trkpt lat="48.87558" lon="7.35955">
        <ele>218.854614</ele>
        <time>2010-08-28T12:56:07Z</time>
      </trkpt>
      <trkpt lat="48.87554" lon="7.35945">
        <ele>220.073364</ele>
        <time>2010-08-28T12:56:09Z</time>
      </trkpt>
      <trkpt lat="48.87546" lon="7.35942">
        <ele>220.546021</ele>
        <time>2010-08-28T12:56:11Z</time>
      </trkpt>
      <trkpt lat="48.87538" lon="7.35948">
        <ele>220.901489</ele>
        <time>2010-08-28T12:56:13Z</time>
      </trkpt>
      <trkpt lat="48.87534" lon="7.35952">
        <ele>220.928833</ele>
        <time>2010-08-28T12:56:14Z</time>
      </trkpt>
      <trkpt lat="48.87528" lon="7.35961">
        <ele>221.276489</ele>
        <time>2010-08-28T12:56:16Z</time>
      </trkpt>
      <trkpt lat="48.87521" lon="7.3597">
        <ele>221.745239</ele>
        <time>2010-08-28T12:56:18Z</time>
      </trkpt>
      <trkpt lat="48.87515" lon="7.35978">
        <ele>221.823364</ele>
        <time>2010-08-28T12:56:20Z</time>
      </trkpt>
      <trkpt lat="48.87508" lon="7.35986">
        <ele>221.944458</ele>
        <time>2010-08-28T12:56:22Z</time>
      </trkpt>
      <trkpt lat="48.87502" lon="7.35993">
        <ele>222.315552</ele>
        <time>2010-08-28T12:56:24Z</time>
      </trkpt>
      <trkpt lat="48.87497" lon="7.36">
        <ele>223.745239</ele>
        <time>2010-08-28T12:56:26Z</time>
      </trkpt>
      <trkpt lat="48.87491" lon="7.36007">
        <ele>224.346802</ele>
        <time>2010-08-28T12:56:28Z</time>
      </trkpt>
      <trkpt lat="48.87484" lon="7.36013">
        <ele>224.518677</ele>
        <time>2010-08-28T12:56:30Z</time>
      </trkpt>
      <trkpt lat="48.87478" lon="7.36019">
        <ele>224.819458</ele>
        <time>2010-08-28T12:56:32Z</time>
      </trkpt>
      <trkpt lat="48.87473" lon="7.36025">
        <ele>225.085083</ele>
        <time>2010-08-28T12:56:34Z</time>
      </trkpt>
      <trkpt lat="48.87465" lon="7.3603">
        <ele>225.807739</ele>
        <time>2010-08-28T12:56:36Z</time>
      </trkpt>
      <trkpt lat="48.87458" lon="7.36034">
        <ele>226.241333</ele>
        <time>2010-08-28T12:56:38Z</time>
      </trkpt>
      <trkpt lat="48.87452" lon="7.36038">
        <ele>226.893677</ele>
        <time>2010-08-28T12:56:40Z</time>
      </trkpt>
      <trkpt lat="48.87446" lon="7.36042">
        <ele>227.284302</ele>
        <time>2010-08-28T12:56:42Z</time>
      </trkpt>
      <trkpt lat="48.8744" lon="7.36045">
        <ele>227.573364</ele>
        <time>2010-08-28T12:56:44Z</time>
      </trkpt>
      <trkpt lat="48.87436" lon="7.36049">
        <ele>227.854614</ele>
        <time>2010-08-28T12:56:46Z</time>
      </trkpt>
      <trkpt lat="48.87431" lon="7.36052">
        <ele>227.835083</ele>
        <time>2010-08-28T12:56:48Z</time>
      </trkpt>
      <trkpt lat="48.87428" lon="7.36056">
        <ele>228.128052</ele>
        <time>2010-08-28T12:56:50Z</time>
      </trkpt>
      <trkpt lat="48.87424" lon="7.36062">
        <ele>228.366333</ele>
        <time>2010-08-28T12:56:52Z</time>
      </trkpt>
      <trkpt lat="48.8742" lon="7.36068">
        <ele>228.362427</ele>
        <time>2010-08-28T12:56:54Z</time>
      </trkpt>
      <trkpt lat="48.87417" lon="7.36075">
        <ele>228.452271</ele>
        <time>2010-08-28T12:56:56Z</time>
      </trkpt>
      <trkpt lat="48.87413" lon="7.36082">
        <ele>228.202271</ele>
        <time>2010-08-28T12:56:58Z</time>
      </trkpt>
      <trkpt lat="48.87409" lon="7.3609">
        <ele>228.030396</ele>
        <time>2010-08-28T12:57:00Z</time>
      </trkpt>
      <trkpt lat="48.87403" lon="7.36097">
        <ele>228.092896</ele>
        <time>2010-08-28T12:57:02Z</time>
      </trkpt>
      <trkpt lat="48.87398" lon="7.36103">
        <ele>228.198364</ele>
        <time>2010-08-28T12:57:04Z</time>
      </trkpt>
      <trkpt lat="48.87394" lon="7.3611">
        <ele>228.424927</ele>
        <time>2010-08-28T12:57:06Z</time>
      </trkpt>
      <trkpt lat="48.87391" lon="7.36116">
        <ele>228.147583</ele>
        <time>2010-08-28T12:57:08Z</time>
      </trkpt>
      <trkpt lat="48.87388" lon="7.36123">
        <ele>228.323364</ele>
        <time>2010-08-28T12:57:10Z</time>
      </trkpt>
      <trkpt lat="48.87385" lon="7.36129">
        <ele>228.444458</ele>
        <time>2010-08-28T12:57:12Z</time>
      </trkpt>
      <trkpt lat="48.87381" lon="7.36134">
        <ele>228.393677</ele>
        <time>2010-08-28T12:57:14Z</time>
      </trkpt>
      <trkpt lat="48.87377" lon="7.36142">
        <ele>228.557739</ele>
        <time>2010-08-28T12:57:17Z</time>
      </trkpt>
      <trkpt lat="48.87374" lon="7.36148">
        <ele>228.792114</ele>
        <time>2010-08-28T12:57:19Z</time>
      </trkpt>
      <trkpt lat="48.87371" lon="7.36153">
        <ele>229.053833</ele>
        <time>2010-08-28T12:57:21Z</time>
      </trkpt>
      <trkpt lat="48.87367" lon="7.3616">
        <ele>229.995239</ele>
        <time>2010-08-28T12:57:24Z</time>
      </trkpt>
      <trkpt lat="48.87364" lon="7.36165">
        <ele>230.393677</ele>
        <time>2010-08-28T12:57:27Z</time>
      </trkpt>
      <trkpt lat="48.8736" lon="7.36171">
        <ele>230.694458</ele>
        <time>2010-08-28T12:57:30Z</time>
      </trkpt>
      <trkpt lat="48.87355" lon="7.36178">
        <ele>230.671021</ele>
        <time>2010-08-28T12:57:33Z</time>
      </trkpt>
      <trkpt lat="48.87351" lon="7.36185">
        <ele>231.327271</ele>
        <time>2010-08-28T12:57:36Z</time>
      </trkpt>
      <trkpt lat="48.87347" lon="7.36193">
        <ele>231.639771</ele>
        <time>2010-08-28T12:57:39Z</time>
      </trkpt>
      <trkpt lat="48.87344" lon="7.36202">
        <ele>231.846802</ele>
        <time>2010-08-28T12:57:42Z</time>
      </trkpt>
      <trkpt lat="48.87341" lon="7.36208">
        <ele>231.596802</ele>
        <time>2010-08-28T12:57:44Z</time>
      </trkpt>
      <trkpt lat="48.87337" lon="7.36213">
        <ele>231.749146</ele>
        <time>2010-08-28T12:57:46Z</time>
      </trkpt>
      <trkpt lat="48.87334" lon="7.36219">
        <ele>232.061646</ele>
        <time>2010-08-28T12:57:48Z</time>
      </trkpt>
      <trkpt lat="48.87332" lon="7.36225">
        <ele>232.518677</ele>
        <time>2010-08-28T12:57:50Z</time>
      </trkpt>
      <trkpt lat="48.87329" lon="7.3623">
        <ele>232.448364</ele>
        <time>2010-08-28T12:57:52Z</time>
      </trkpt>
      <trkpt lat="48.87324" lon="7.36237">
        <ele>232.772583</ele>
        <time>2010-08-28T12:57:55Z</time>
      </trkpt>
      <trkpt lat="48.8732" lon="7.36246">
        <ele>232.721802</ele>
        <time>2010-08-28T12:57:58Z</time>
      </trkpt>
      <trkpt lat="48.87317" lon="7.36253">
        <ele>233.210083</ele>
        <time>2010-08-28T12:58:01Z</time>
      </trkpt>
      <trkpt lat="48.87314" lon="7.3626">
        <ele>233.112427</ele>
        <time>2010-08-28T12:58:04Z</time>
      </trkpt>
      <trkpt lat="48.87309" lon="7.36269">
        <ele>233.647583</ele>
        <time>2010-08-28T12:58:07Z</time>
      </trkpt>
      <trkpt lat="48.87306" lon="7.36275">
        <ele>234.046021</ele>
        <time>2010-08-28T12:58:09Z</time>
      </trkpt>
      <trkpt lat="48.87302" lon="7.36283">
        <ele>233.928833</ele>
        <time>2010-08-28T12:58:12Z</time>
      </trkpt>
      <trkpt lat="48.87298" lon="7.36289">
        <ele>234.307739</ele>
        <time>2010-08-28T12:58:15Z</time>
      </trkpt>
      <trkpt lat="48.87295" lon="7.36294">
        <ele>234.456177</ele>
        <time>2010-08-28T12:58:17Z</time>
      </trkpt>
      <trkpt lat="48.8729" lon="7.36301">
        <ele>234.534302</ele>
        <time>2010-08-28T12:58:20Z</time>
      </trkpt>
      <trkpt lat="48.87286" lon="7.36307">
        <ele>234.698364</ele>
        <time>2010-08-28T12:58:23Z</time>
      </trkpt>
      <trkpt lat="48.87283" lon="7.36315">
        <ele>234.963989</ele>
        <time>2010-08-28T12:58:26Z</time>
      </trkpt>
      <trkpt lat="48.8728" lon="7.36322">
        <ele>234.917114</ele>
        <time>2010-08-28T12:58:28Z</time>
      </trkpt>
      <trkpt lat="48.87275" lon="7.36329">
        <ele>235.838989</ele>
        <time>2010-08-28T12:58:31Z</time>
      </trkpt>
      <trkpt lat="48.87272" lon="7.36336">
        <ele>236.194458</ele>
        <time>2010-08-28T12:58:33Z</time>
      </trkpt>
      <trkpt lat="48.87268" lon="7.36341">
        <ele>236.538208</ele>
        <time>2010-08-28T12:58:35Z</time>
      </trkpt>
      <trkpt lat="48.87265" lon="7.36347">
        <ele>236.378052</ele>
        <time>2010-08-28T12:58:37Z</time>
      </trkpt>
      <trkpt lat="48.87262" lon="7.36352">
        <ele>236.479614</ele>
        <time>2010-08-28T12:58:39Z</time>
      </trkpt>
      <trkpt lat="48.87259" lon="7.36358">
        <ele>236.483521</ele>
        <time>2010-08-28T12:58:41Z</time>
      </trkpt>
      <trkpt lat="48.87257" lon="7.36364">
        <ele>236.499146</ele>
        <time>2010-08-28T12:58:43Z</time>
      </trkpt>
      <trkpt lat="48.87252" lon="7.3637">
        <ele>236.206177</ele>
        <time>2010-08-28T12:58:46Z</time>
      </trkpt>
      <trkpt lat="48.87249" lon="7.36376">
        <ele>235.667114</ele>
        <time>2010-08-28T12:58:48Z</time>
      </trkpt>
      <trkpt lat="48.87244" lon="7.36378">
        <ele>235.042114</ele>
        <time>2010-08-28T12:58:51Z</time>
      </trkpt>
      <trkpt lat="48.8724" lon="7.36373">
        <ele>234.370239</ele>
        <time>2010-08-28T12:58:54Z</time>
      </trkpt>
      <trkpt lat="48.87235" lon="7.36365">
        <ele>233.842896</ele>
        <time>2010-08-28T12:58:57Z</time>
      </trkpt>
      <trkpt lat="48.87231" lon="7.36359">
        <ele>233.159302</ele>
        <time>2010-08-28T12:59:00Z</time>
      </trkpt>
      <trkpt lat="48.87227" lon="7.36357">
        <ele>232.424927</ele>
        <time>2010-08-28T12:59:03Z</time>
      </trkpt>
      <trkpt lat="48.87222" lon="7.36357">
        <ele>234.354614</ele>
        <time>2010-08-28T12:59:07Z</time>
      </trkpt>
      <trkpt lat="48.87219" lon="7.3635">
        <ele>234.557739</ele>
        <time>2010-08-28T12:59:11Z</time>
      </trkpt>
      <trkpt lat="48.8722" lon="7.36342">
        <ele>234.667114</ele>
        <time>2010-08-28T12:59:13Z</time>
      </trkpt>
      <trkpt lat="48.87216" lon="7.36337">
        <ele>235.069458</ele>
        <time>2010-08-28T12:59:18Z</time>
      </trkpt>
      <trkpt lat="48.87208" lon="7.36339">
        <ele>238.909302</ele>
        <time>2010-08-28T13:01:45Z</time>
      </trkpt>
      <trkpt lat="48.87204" lon="7.36342">
        <ele>238.780396</ele>
        <time>2010-08-28T13:01:47Z</time>
      </trkpt>
    </trkseg>
  </trk>
</gpx>